     2.10           OBSERVATION DATA    G (GPS)             RINEX VERSION / TYPE
teqc 2000Feb29 simon 20020108 09:29:15UTC                   PGM / RUN BY / DATE
Solaris 2.7|Ultra 2|cc SC5.0|=+-|*Sparc                     COMMENT
BIT 2 OF LLI FLAGS DATA COLLECTED UNDER A/S CONDITION       COMMENT
_P42                                                        MARKER NAME
p_42                                                        MARKER NUMBER
LCS -Unknown-                                               OBSERVER / AGENCY
489 ASHTECH Z-XII3 4J30                                     REC # / TYPE / VERS
110 ASH701933_M                                             ANT # / TYPE
 -2326287.0000 -4655263.0000  3677159.0000                  APPROX POSITION XYZ
        1.3987        0.0000        0.0000                  ANTENNA: DELTA H/E/N
     1     1                                                WAVELENGTH FACT L1/2
     7    L1    L2    C1    P1    P2    S1    S2            # / TYPES OF OBSERV
    30.0000                                                 INTERVAL
SNR is mapped to RINEX snr flag value [1-9]                 COMMENT
L1: 1 -> 1; 90 -> 5; 210 -> 9                               COMMENT
L2: 1 -> 1; 150 -> 5; 250 -> 9                              COMMENT
Original height was 1.4730                                  COMMENT
New height found assuming measured height 1.4730            COMMENT
and assuming radial 0.1737 vertical -0.0640                 COMMENT
  2001    12    19    20     4   30.0000000     GPS         TIME OF FIRST OBS
                                                            END OF HEADER
 01 12 19 20  4 30.0000000  0  5G27G 2G31G28G 8
       216.16757                  18211167.350                    18211179.724
       237.000         205.000
     -6484.32649     -3243.49347  18545101.820    18545104.057    18545116.197
       240.000         209.000
      3126.83743                  20996681.954
       216.000          74.000
    -10613.23847                  17957824.466                    17957836.079
       236.000         206.000
     -8340.31957                  17151125.957                    17151137.312
       235.000         206.000
 01 12 19 20  5  0.0000000  0  8G27G 2G31G28G 7G 8G11G13
      1871.46659      1263.70757  18211422.343    18211423.214    18211435.524
       237.000         204.000
    -15000.35049     -9879.41847  18543483.097    18543483.667    18543495.758
       240.000         209.000
     53405.34745                  21008960.700
       212.000         159.000
    -75377.82349    -50792.55947  17948012.386    17948013.499    17948023.773
       235.000         206.000
   -135251.54449    -87034.60546  19605749.897    19605751.463    19605768.324
       228.000         184.000
    -62361.76159    -39826.73057  17143436.803    17143437.359    17143448.308
       235.000         206.000
    -56891.16746                  21095566.413
       218.000         163.000
     50129.33343                  21385793.715
       211.000          82.000
 01 12 19 20  5 29.9990000  0  8G27G 2G31G28G 7G 8G11G13
      3727.62249      2709.96747  20909908.133    20909908.597    20909920.948
       240.000         205.000
    -23243.87449    -16302.98647  21240046.861    21240047.128    21240059.180
       237.000         207.000
    154487.34049    103963.58646  23719440.216    23719440.460    23719459.440
       220.000         163.000
   -126523.55849    -90646.32847  20636412.231    20636412.812    20636423.168
       233.000         200.000
   -264431.62649   -187694.18346  22279300.646    22279301.339    22279318.188
       228.000         184.000
   -102242.66949    -70902.78647  19833980.151    19833980.293    19833991.375
       232.000         206.000
   -172939.79749   -122557.23145  23777662.842    23777663.300    23777681.640
       217.000         160.000
    108427.49045                  24098164.376                    24098185.725
       204.000         135.000
 01 12 19 20  5 59.9990000  0  8G27G 2G31G28G 7G 8G11G13
      6087.74549      4548.87347  20910357.450    20910357.796    20910370.172
       238.000         205.000
    -31230.12449    -22526.09547  21238527.272    21238527.379    21238539.415
       240.000         208.000
    219760.98249    154825.90745  23731861.836    23731862.169    23731880.996
       218.000         161.000
   -177295.39049   -130208.79747  20626750.796    20626751.184    20626761.636
       236.000         206.000
   -393262.90649   -288082.03046  22254785.058    22254785.501    22254802.412
       229.000         185.000
   -141631.98449   -101595.77447  19826484.762    19826484.781    19826495.888
       235.000         206.000
   -256788.58549   -187893.87445  23761707.022    23761707.327    23761725.833
       217.000         162.000
    228268.87849    166887.37345  24112441.499    24112443.563    24112461.178
       209.000         140.000
 01 12 19 20  6 29.9990000  0  8G27G 2G31G28G 7G 8G11G13
      8891.33349      6733.37347  20910891.115    20910891.381    20910903.712
       238.000         205.000
    -39017.15149    -28593.96647  21237045.573    21237045.567    21237057.554
       240.000         208.000
    285340.27949    205926.41746  23744341.419    23744341.367    23744360.300
       218.000         163.000
   -227737.53549   -169514.34147  20617152.007    20617152.335    20617162.792
       236.000         206.000
   -521760.40349   -388209.73946  22230332.904    22230333.222    22230350.064
       230.000         186.000
   -180575.55249   -131941.41747  19819074.145    19819074.101    19819085.190
       236.000         206.000
   -340244.45649   -252924.34545  23745825.911    23745826.096    23745844.555
       217.000         162.000
    303412.27949    225440.23445  24126741.262    24126743.104    24126763.522
       209.000         143.000
 01 12 19 20  6 59.9990000  0  8G27G 2G31G28G 7G 8G11G13
     12101.22949      9234.48547  20911502.103    20911502.282    20911514.584
       238.000         204.000
    -46643.45649    -34536.59847  21235594.422    21235594.339    21235606.342
       241.000         208.000
    351184.93549    257233.69845  23756871.460    23756871.301    23756890.407
       217.000         161.000
   -277887.98549   -208592.59647  20607608.890    20607609.047    20607619.522
       236.000         206.000
   -649959.48149   -488104.90446  22205937.477    22205937.667    22205954.537
       229.000         185.000
   -219109.73149   -161968.05447  19811741.371    19811741.283    19811752.412
       234.000         206.000
   -423342.53349   -317676.02046  23730012.850    23730012.992    23730031.545
       217.000         163.000
    378634.89449    284054.85045  24141056.187    24141057.655    24141078.008
       209.000         147.000
 01 12 19 20  7 29.9990000  0  8G27G 2G31G28G 7G 8G11G13
     15588.31249     11951.59247  20912165.843    20912165.902    20912178.199
       238.000         204.000
    -54238.77749    -40455.09047  21234149.176    21234149.011    21234161.015
       239.000         208.000
    417162.77649    308644.75945  23769426.734    23769426.549    23769445.685
       214.000         160.000
   -327876.80349   -247544.89847  20598096.433    20598096.515    20598106.964
       237.000         206.000
   -777987.49949   -587866.76346  22181574.442    22181574.662    22181591.517
       229.000         186.000
   -257362.56149   -191775.46147  19804462.187    19804462.033    19804473.146
       234.000         206.000
   -506209.61049   -382247.65846  23714243.715    23714243.804    23714262.496
       219.000         163.000
    453805.04149    342628.55745  24155361.065    24155362.201    24155382.579
       206.000         144.000
 01 12 19 20  7 59.9990000  0  9G27G 2G31G28G 7G 8G10G11G13
     19444.55349     14956.36047  20912899.739    20912899.741    20912912.071
       237.000         204.000
    -61712.18949    -46278.58647  21232727.098    21232726.894    21232738.916
       240.000         208.000
    483362.49849    360228.73045  23782024.380    23782024.063    23782043.199
       213.000         157.000
   -377613.25449   -286300.54747  20588632.021    20588631.995    20588642.441
       236.000         206.000
   -905750.75549   -687422.30846  22157261.953    22157262.077    22157278.895
       230.000         186.000
   -295241.73649   -221291.69547  19797254.046    19797253.868    19797265.008
       235.000         206.000
     14766.22453                  25060551.962
       201.000          74.000
   -588751.66749   -446566.05346  23698536.464    23698536.529    23698555.247
       219.000         163.000
    529011.49649    401230.56645  24169672.731    24169673.629    24169694.024
       211.000         147.000
 01 12 19 20  8 29.9990000  0  9G27G 2G31G28G 7G 8G10G11G13
     23714.27749     18283.31847  20913712.307    20913712.275    20913724.640
       237.000         204.000
    -69020.52449    -51973.45247  21231336.431    21231336.186    21231348.214
       240.000         207.000
    549825.31749    412017.68245  23794672.006    23794671.615    23794690.780
       211.000         155.000
   -427054.06549   -324825.83947  20579223.765    20579223.724    20579234.180
       236.000         206.000
  -1033203.38549   -786735.79046  22133008.431    22133008.543    22133025.391
       230.000         186.000
   -332702.08249   -250481.57347  19790125.614    19790125.410    19790136.555
       235.000         206.000
     37219.18444                  25066036.367
       200.000         131.000
   -670922.28749   -510595.01146  23682899.908    23682899.992    23682918.669
       219.000         163.000
    604295.75849    459893.18645  24183999.219    24183999.960    24184020.392
       212.000         145.000
 01 12 19 20  8 59.9990000  0  9G27G 2G31G28G 7G 8G10G11G13
     28397.39649     21932.41747  20914603.537    20914603.491    20914615.882
       237.000         204.000
    -76164.55549    -57540.28647  21229977.018    21229976.736    21229988.767
       239.000         207.000
    616547.96749    464009.07845  23807369.094    23807368.647    23807387.785
       212.000         156.000
   -476200.06849   -363121.41847  20569871.655    20569871.562    20569881.989
       237.000         206.000
  -1160343.44149   -885805.70846  22108814.256    22108814.472    22108831.342
       228.000         186.000
   -369742.79449   -279344.45447  19783077.029    19783076.800    19783087.964
       234.000         206.000
     59800.74544                  25071551.479                    25071577.027
       197.000         130.000
   -752719.15949   -574332.72746  23667334.461    23667334.538    23667353.221
       217.000         164.000
    679655.03349    518614.28045  24198340.108    24198340.590    24198360.828
       209.000         143.000
 01 12 19 20  9 29.9990000  0  9G27G 2G31G28G 7G 8G10G11G13
     33478.29449     25891.47547  20915570.419    20915570.383    20915582.812
       236.000         203.000
    -83160.47249    -62991.71647  21228645.778    21228645.499    21228657.515
       239.000         207.000
    683511.82749    516188.46045  23820112.046    23820111.547    23820130.661
       213.000         155.000
   -525067.69449   -401200.08047  20560572.400    20560572.342    20560582.750
       236.000         206.000
  -1287184.68749   -984642.78446  22084676.922    22084677.261    22084694.131
       229.000         186.000
   -406378.51749   -307891.76247  19776105.488    19776105.257    19776116.418
       235.000         206.000
    115548.15549     82496.70744  25077094.223    25077094.100    25077117.253
       195.000         126.000
   -834155.65749   -637789.61846  23651837.485    23651837.609    23651856.299
       218.000         164.000
    755071.06849    577379.60245  24212691.507    24212691.911    24212712.209
       202.000         137.000
 01 12 19 20  9 59.9990000  0  9G27G 2G31G28G 7G 8G10G11G13
     38956.79449     30160.35347  20916613.002    20916612.929    20916625.415
       236.000         203.000
    -90009.58449    -68328.74647  21227342.577    21227342.196    21227354.189
       240.000         207.000
    750713.42949    568553.08845  23832900.227    23832899.654    23832918.776
       212.000         152.000
   -573658.39149   -439062.95347  20551325.873    20551325.825    20551336.239
       236.000         206.000
  -1413725.86349  -1083246.03046  22060596.767    22060597.135    22060613.981
       229.000         186.000
   -442608.79449   -336123.14247  19769211.163    19769210.868    19769222.051
       235.000         206.000
    144817.91359    105304.08054  25082664.296    25082665.097    25082689.384
       196.000         127.000
   -915230.08949   -700964.40046  23636409.536    23636409.658    23636428.291
       220.000         164.000
    830540.76549    636186.68645  24227053.209    24227053.454    24227073.863
       205.000         136.000
 01 12 19 20 10 29.9990000  0  9G27G 2G31G28G 7G 8G10G11G13
     44862.49349     34762.11347  20917736.871    20917736.790    20917749.314
       236.000         203.000
    -96683.26049    -73529.06947  21226072.701    21226072.278    21226084.274
       240.000         207.000
    818179.34149    621123.66845  23845738.754    23845738.128    23845757.233
       212.000         152.000
   -621943.44849   -476687.67647  20542137.498    20542137.483    20542147.890
       237.000         206.000
  -1539935.45649  -1181590.92046  22036579.724    22036580.132    22036596.901
       230.000         186.000
   -478403.35849   -364014.99647  19762399.671    19762399.399    19762410.600
       235.000         206.000
    174256.95248    128243.37544  25088266.628    25088267.333    25088291.213
       190.000         118.000
   -995910.69149   -763832.28946  23621056.469    23621056.594    23621075.219
       220.000         165.000
    906090.64449    695056.28945  24241430.422    24241430.361    24241450.704
       207.000         138.000
 01 12 19 20 10 59.9990000  0  9G27G 2G31G28G 7G 8G10G11G13
     51175.12049     39680.96047  20918938.206    20918938.074    20918950.645
       236.000         203.000
   -103202.39349    -78608.96847  21224832.195    21224831.764    21224843.774
       240.000         207.000
    885886.34649    673882.08645  23858623.040    23858622.441    23858641.556
       213.000         153.000
   -669944.12449   -514090.79547  20533003.316    20533003.263    20533013.658
       236.000         205.000
  -1665832.03849  -1279691.89046  22012622.324    22012622.682    22012639.380
       231.000         186.000
   -513781.70449   -391582.53147  19755667.380    19755667.131    19755678.340
       235.000         206.000
    203841.75249    151296.22544  25093896.520    25093896.901    25093920.808
       195.000         118.000
  -1076215.68449   -826407.48946  23605774.885    23605775.036    23605793.602
       219.000         165.000
    981697.64249    753970.32545  24255818.493    24255818.051    24255838.548
       204.000         137.000
 01 12 19 20 11 29.9990000  0  9G27G 2G31G28G 7G 8G10G11G13
     57882.34749     44907.28747  20920214.666    20920214.458    20920227.085
       236.000         203.000
   -109580.34249    -83578.84847  21223618.551    21223618.110    21223630.151
       241.000         207.000
    953818.93149    726816.28145  23871550.328    23871549.724    23871568.883
       211.000         155.000
   -717673.74849   -551282.70547  20523920.507    20523920.559    20523931.012
       236.000         206.000
  -1791426.15549  -1377557.18046  21988722.489    21988722.768    21988739.410
       231.000         187.000
   -548755.38149   -418834.73347  19749012.109    19749011.859    19749023.093
       236.000         207.000
    233556.75548    174450.59344  25099551.287    25099551.270    25099575.493
       194.000         115.000
  -1156155.16249   -888697.87546  23590562.788    23590563.041    23590581.591
       218.000         164.000
   1057346.66449    812917.13345  24270214.250    24270213.759    24270234.394
       205.000         138.000
 01 12 19 20 11 59.9990000  0  8G27G 2G31G28G 7G 8G11G13
     64986.39749     50442.84447  20921566.516    20921566.354    20921579.034
       236.000         202.000
   -115815.72449    -88437.63147  21222432.081    21222431.608    21222443.639
       240.000         207.000
   1021976.47049    779925.74045  23884520.502    23884519.855    23884539.032
       212.000         157.000
   -765131.18249   -588262.52247  20514889.748    20514889.725    20514900.188
       235.000         206.000
  -1916713.89849  -1475183.73846  21964880.904    21964881.157    21964897.715
       230.000         187.000
   -583321.44149   -445769.31947  19742434.416    19742434.163    19742445.404
       235.000         207.000
  -1235724.80749   -950700.07746  23575421.135    23575421.372    23575439.918
       219.000         163.000
   1133037.29449    871896.30545  24284617.930    24284617.430    24284638.182
       205.000         134.000
 01 12 19 20 12 29.9990000  0  8G27G 2G31G28G 7G 8G11G13
     72477.81649     56280.24547  20922992.155    20922991.976    20923004.697
       235.000         202.000
   -121918.63949    -93193.19247  21221270.822    21221270.299    21221282.334
       239.000         207.000
   1090346.58749    833200.83445  23897531.174    23897530.424    23897549.673
       211.000         157.000
   -812326.51549   -625038.09647  20505908.643    20505908.723    20505919.222
       235.000         205.000
  -2041702.76149  -1572577.41947  21941096.104    21941096.416    21941112.917
       231.000         188.000
   -617488.33349   -472392.86647  19735932.689    19735932.426    19735943.667
       236.000         207.000
  -1314931.93049  -1012419.80846  23560348.433    23560348.687    23560367.184
       217.000         165.000
   1208757.74349    930898.77245  24299027.305    24299026.840    24299047.597
       208.000         140.000
 01 12 19 20 12 59.9990000  0  8G27G 2G31G28G 7G 8G11G13
     80347.70349     62412.55447  20924489.767    20924489.614    20924502.388
       235.000         202.000
   -127898.62749    -97852.96147  21220132.795    21220132.377    21220144.420
       240.000         207.000
   1158917.49149    886632.38245  23910580.022    23910579.212    23910598.545
       213.000         159.000
   -859269.38549   -661616.95247  20496975.657    20496975.771    20496986.278
       235.000         205.000
  -2166399.98349  -1669743.85247  21917366.788    21917367.165    21917383.613
       231.000         189.000
   -651264.12649   -498711.66247  19729505.354    19729505.107    19729516.372
       235.000         207.000
  -1393783.34749  -1073862.36346  23545343.422    23545343.665    23545362.187
       220.000         165.000
   1284495.64849    989914.78145  24313440.112    24313439.550    24313460.439
       204.000         135.000
 01 12 19 20 13 29.9990000  0  8G27G 2G31G28G 7G 8G11G13
     88603.14749     68845.29447  20926060.745    20926060.618    20926073.437
       234.000         202.000
   -133749.36949   -102412.01847  21219019.532    21219019.060    21219031.104
       240.000         207.000
   1227693.15249    940223.50245  23923667.894    23923667.006    23923686.416
       216.000         162.000
   -905953.84149   -697994.43047  20488092.041    20488092.027    20488102.493
       235.000         205.000
  -2290796.66349  -1766676.09447  21893694.658    21893695.086    21893711.487
       231.000         189.000
   -684641.01949   -524719.63247  19723153.932    19723153.710    19723164.971
       235.000         207.000
  -1472269.54849  -1135020.35246  23530407.888    23530408.165    23530426.642
       218.000         166.000
   1360255.75649   1048948.11445  24327857.062    24327856.529    24327877.372
       204.000         137.000
 01 12 19 20 13 59.9990000  0  8G27G 2G31G28G 7G 8G11G13
     97240.10849     75575.32647  20927704.362    20927704.232    20927717.087
       235.000         202.000
   -139475.74149   -106874.15847  21217929.855    21217929.404    21217941.475
       240.000         208.000
   1296666.40249    993968.59845  23936793.226    23936792.424    23936811.915
       212.000         162.000
   -952385.00949   -734174.54447  20479256.442    20479256.448    20479266.929
       235.000         205.000
  -2414895.04649  -1863375.91547  21870079.330    21870079.782    21870096.120
       233.000         189.000
   -717622.38449   -550419.39747  19716877.789    19716877.570    19716888.831
       236.000         207.000
  -1550392.61649  -1195895.37946  23515541.536    23515541.789    23515560.248
       218.000         166.000
   1436031.20749   1107993.41145  24342277.043    24342276.481    24342297.335
       201.000         143.000
 01 12 19 20 14 29.9990000  0  8G27G 2G31G28G 7G 8G11G13
    106238.01049     82586.60647  20929416.781    20929416.543    20929429.429
       235.000         202.000
   -145099.05349   -111255.98247  21216859.838    21216859.365    21216871.459
       240.000         208.000
   1365813.90949   1047849.47045  23949951.683    23949950.942    23949970.552
       210.000         159.000
   -998584.04049   -770173.75747  20470465.150    20470465.078    20470475.543
       235.000         205.000
  -2538714.01849  -1959858.01947  21846517.199    21846517.665    21846533.893
       233.000         190.000
   -750227.87149   -575826.27947  19710673.199    19710672.962    19710684.225
       236.000         207.000
  -1628170.95749  -1256501.79546  23500740.712    23500740.974    23500759.485
       217.000         166.000
   1511798.65049   1167032.44845  24356695.471    24356694.932    24356715.839
       204.000         139.000
 01 12 19 20 14 59.9990000  0  8G27G 2G31G28G 7G 8G11G13
    115553.53649     89845.38047  20931189.483    20931189.272    20931202.211
       236.000         202.000
   -150663.08349   -115591.62047  21215801.030    21215800.577    21215812.726
       240.000         208.000
   1435089.70649   1101830.28645  23963134.616    23963133.910    23963153.552
       206.000         155.000
  -1044595.15949   -806026.54147  20461709.528    20461709.433    20461719.917
       234.000         205.000
  -2662294.82749  -2056154.55247  21823000.533    21823000.892    21823017.023
       234.000         191.000
   -782499.70149   -600973.16147  19704532.100    19704531.840    19704543.093
       236.000         207.000
  -1705645.60449  -1316871.56246  23485997.638    23485997.935    23486016.554
       217.000         168.000
   1587512.46849   1226029.65445  24371103.927    24371103.163    24371124.168
       204.000         136.000
 01 12 19 20 15 29.9990000  0  8G27G 2G31G28G 7G 8G11G13
    125136.91349     97312.87347  20933013.221    20933013.003    20933025.943
       236.000         202.000
   -156218.28049   -119920.36447  21214743.960    21214743.507    21214755.651
       240.000         208.000
   1504440.97049   1155869.89645  23976331.901    23976331.199    23976350.972
       205.000         152.000
  -1090469.01149   -841772.36947  20452980.018    20452979.922    20452990.435
       236.000         206.000
  -2785685.60849  -2152303.01847  21799519.977    21799520.293    21799536.328
       233.000         191.000
   -814487.07349   -625898.39347  19698445.136    19698444.845    19698456.103
       235.000         207.000
  -1782864.24749  -1377041.85746  23471303.359    23471303.669    23471322.302
       218.000         168.000
   1663119.80749   1284943.88745  24385492.023    24385491.119    24385512.291
       204.000         141.000
 01 12 19 20 15 59.9980000  0  8G27G 2G31G28G 7G 8G11G13
    135122.47149    105093.75447  20934913.505    20934913.264    20934926.198
       235.000         202.000
   -161630.58149   -124137.75647  21213714.057    21213713.611    21213725.782
       240.000         208.000
   1573996.85149   1210068.97245  23989568.143    23989567.446    23989587.271
       210.000         151.000
  -1136070.26749   -877305.77047  20444302.327    20444302.273    20444312.820
       234.000         206.000
  -2908745.84149  -2248193.92747  21776102.202    21776102.571    21776118.578
       232.000         192.000
   -846053.30249   -650495.46247  19692438.244    19692437.981    19692449.260
       235.000         207.000
  -1859687.43049  -1436903.99646  23456684.430    23456684.660    23456703.210
       219.000         168.000
   1738750.54849   1343876.36745  24399884.571    24399883.594    24399904.818
       206.000         142.000
 01 12 19 20 16 29.9980000  0  8G27G 2G31G28G 7G 8G11G13
    145501.07849    113180.90247  20936888.530    20936888.312    20936901.252
       236.000         202.000
   -166910.65549   -128252.11747  21212709.306    21212708.865    21212721.062
       240.000         207.000
   1643749.39349   1264421.32345  24002841.795    24002841.120    24002860.929
       213.000         150.000
  -1181412.51549   -912637.34847  20435673.943    20435673.885    20435684.497
       235.000         206.000
  -3031491.55849  -2343839.76447  21752744.291    21752744.669    21752760.684
       234.000         192.000
   -877209.62249   -674773.13147  19686509.413    19686509.144    19686520.420
       235.000         207.000
  -1936128.16749  -1496468.12046  23442138.202    23442138.385    23442156.906
       218.000         168.000
   1814397.21849   1402821.25845  24414279.866    24414279.078    24414300.421
       199.000         139.000
 01 12 19 20 16 59.9980000  0  8G27G 2G31G28G 7G 8G11G13
    156247.46549    121554.62447  20938933.612    20938933.345    20938946.293
       235.000         202.000
   -172083.91349   -132283.24447  21211724.817    21211724.439    21211736.664
       240.000         207.000
   1713668.28349   1318903.34045  24016147.189    24016146.449    24016166.292
       215.000         147.000
  -1226520.03749   -947786.01847  20427090.157    20427090.178    20427100.821
       235.000         206.000
  -3153942.09249  -2439255.60847  21729442.517    21729442.954    21729458.949
       235.000         192.000
   -907978.97649   -698749.26647  19680654.213    19680653.947    19680665.214
       235.000         207.000
  -2012206.59449  -1555749.90046  23427660.923    23427661.095    23427679.581
       221.000         169.000
   1890029.74849   1461755.08645  24428672.692    24428671.818    24428693.439
       201.000         141.000
 01 12 19 20 17 29.9980000  0  8G27G 2G31G28G 7G 8G11G13
    167349.22549    130205.26647  20941046.227    20941046.020    20941058.955
       236.000         202.000
   -177163.43149   -136241.32347  21210758.285    21210757.872    21210770.084
       240.000         207.000
   1783738.50749   1373503.31345  24029481.326    24029480.591    24029500.511
       215.000         145.000
  -1271406.03749   -982762.06747  20418548.698    20418548.661    20418559.263
       236.000         205.000
  -3276107.89049  -2534449.58347  21706195.027    21706195.443    21706211.370
       235.000         192.000
   -938373.03849   -722432.96647  19674870.444    19674870.167    19674881.420
       235.000         206.000
  -2087932.90949  -1614757.29346  23413250.604    23413250.757    23413269.265
       219.000         168.000
   1965632.85449   1520666.02645  24443059.961    24443059.013    24443080.737
       205.000         139.000
 01 12 19 20 17 59.9980000  0  8G27G 2G31G28G 7G 8G11G13
    178856.06249    139171.54747  20943236.011    20943235.776    20943248.717
       236.000         201.000
   -182100.11949   -140088.10747  21209818.913    21209818.472    21209830.682
       241.000         207.000
   1854007.01249   1428257.78045  24042853.179    24042852.480    24042872.374
       212.000         144.000
  -1316021.70449  -1017527.46347  20410058.658    20410058.568    20410069.147
       236.000         205.000
  -3397937.35849  -2629381.49647  21683011.580    21683011.937    21683027.799
       235.000         192.000
   -968341.07649   -745784.69647  19669167.727    19669167.443    19669178.688
       235.000         206.000
  -2163255.17449  -1673449.82946  23398917.145    23398917.342    23398935.801
       221.000         168.000
   2041253.79949   1579590.86745  24457450.725    24457449.625    24457471.464
       204.000         136.000
 01 12 19 20 18 29.9980000  0  8G27G 2G31G28G 7G 8G11G13
    190745.49649    148435.95047  20945498.599    20945498.345    20945511.264
       237.000         202.000
   -186916.87849   -143841.44547  21208902.272    21208901.886    21208914.085
       240.000         207.000
   1924448.63649   1483147.11545  24056258.034    24056257.282    24056277.303
       212.000         148.000
  -1360390.20549  -1052100.26447  20401615.672    20401615.518    20401626.068
       235.000         205.000
  -3519451.20949  -2724067.48747  21659888.152    21659888.505    21659904.285
       234.000         192.000
   -997904.81549   -768821.38547  19663541.956    19663541.668    19663552.885
       236.000         207.000
  -2238193.92549  -1731843.47646  23384656.671    23384656.895    23384675.332
       219.000         169.000
   2116867.61449   1638510.14445  24471840.128    24471838.899    24471860.836
       206.000         137.000
 01 12 19 20 18 59.9980000  0  8G27G 2G31G28G 7G 8G11G13
    202977.10449    157966.98747  20947826.331    20947826.032    20947838.923
       236.000         202.000
   -191654.76749   -147533.32547  21208000.667    21208000.322    21208012.530
       240.000         207.000
   1995020.04549   1538137.55545  24069687.538    24069686.812    24069706.898
       207.000         149.000
  -1404552.65849  -1086512.52447  20393211.842    20393211.671    20393222.179
       235.000         205.000
  -3640687.98649  -2818537.56947  21636817.499    21636817.809    21636833.507
       235.000         193.000
  -1027103.80249   -791573.85047  19657985.573    19657985.286    19657996.499
       236.000         206.000
  -2312787.28349  -1789967.97146  23370461.925    23370462.171    23370480.591
       219.000         169.000
   2192431.23949   1697390.31445  24486219.783    24486218.573    24486240.641
       205.000         138.000
 01 12 19 20 19 29.9980000  0  8G27G 2G31G28G 7G 8G11G13
    215603.63449    167805.75547  20950229.150    20950228.857    20950241.749
       236.000         202.000
   -196261.55249   -151123.04947  21207124.078    21207123.702    21207135.909
       239.000         207.000
   2065771.28449   1593268.08645  24083151.291    24083150.497    24083170.666
       206.000         151.000
  -1448457.17749  -1120723.79247  20384857.038    20384856.887    20384867.356
       237.000         205.000
  -3761593.24649  -2912749.32847  21613809.920    21613810.184    21613825.824
       236.000         193.000
  -1055884.40749   -814000.30347  19652508.795    19652508.534    19652519.735
       236.000         206.000
  -2386980.27049  -1847780.45146  23356343.333    23356343.601    23356362.052
       220.000         170.000
   2267995.03049   1756270.61445  24500599.314    24500598.397    24500620.501
       196.000         134.000
 01 12 19 20 19 59.9980000  0  8G27G 2G31G28G 7G 8G11G13
    228546.97049    177891.37847  20952692.213    20952691.976    20952704.855
       236.000         202.000
   -200815.98349   -154671.99047  21206257.436    21206257.064    21206269.255
       240.000         207.000
   2136621.36949   1648475.62845  24096633.834    24096633.049    24096653.257
       205.000         153.000
  -1492182.61549  -1154795.53047  20376536.326    20376536.193    20376546.631
       236.000         205.000
  -3882243.26949  -3006762.20747  21590850.901    21590851.158    21590866.691
       236.000         194.000
  -1084324.01049   -836161.04847  19647096.955    19647096.672    19647107.858
       236.000         206.000
  -2460849.22749  -1905340.42446  23342286.313    23342286.696    23342305.165
       222.000         170.000
   2343478.12949   1815088.05645  24514963.195    24514962.621    24514984.907
       205.000         133.000
 01 12 19 20 20 29.9980000  0  8G27G 2G31G28G 7G 8G11G13
    241900.17549    188296.39047  20955233.352    20955233.095    20955245.960
       236.000         202.000
   -205225.28149   -158107.83247  21205418.441    21205418.026    21205430.209
       240.000         207.000
   2207660.94649   1703830.82445  24110152.421    24110151.583    24110171.951
       207.000         155.000
  -1535636.41449  -1188655.59247  20368267.245    20368267.171    20368277.577
       236.000         205.000
  -4002543.04949  -3100502.16147  21567958.566    21567958.772    21567974.217
       235.000         193.000
  -1112328.43449   -857982.67847  19641767.874    19641767.607    19641778.798
       235.000         206.000
  -2534298.53149  -1962573.38246  23328309.181    23328309.618    23328328.085
       221.000         170.000
   2418971.39549   1873913.45145  24529329.643    24529328.845    24529351.335
       200.000         134.000
 01 12 19 20 20 59.9980000  0  8G27G 2G31G28G 7G 8G11G13
    255592.12849    198965.36247  20957838.915    20957838.661    20957851.527
       236.000         201.000
   -209561.02449   -161486.36947  21204593.397    21204592.994    21204605.165
       240.000         208.000
   2278816.07649   1759276.06045  24123692.956    24123692.158    24123712.550
       208.000         156.000
  -1578890.26749  -1222359.86647  20360036.259    20360036.208    20360046.573
       238.000         206.000
  -4122561.89049  -3194023.19947  21545119.671    21545119.839    21545135.209
       235.000         194.000
  -1139968.05549   -879520.04347  19636508.213    19636507.962    19636519.156
       235.000         206.000
  -2607397.41249  -2019533.27246  23314398.689    23314399.215    23314417.709
       222.000         170.000
   2494401.04948   1932689.18045  24543684.150    24543683.104    24543705.699
       194.000         133.000
 01 12 19 20 21 29.9980000  0  8G27G 2G31G28G 7G 8G11G13
    269639.88049    209911.56347  20960512.183    20960511.937    20960524.819
       236.000         201.000
   -213806.57249   -164794.63147  21203785.544    21203785.107    21203797.280
       240.000         207.000
   2350101.07649   1814822.50345  24137258.281    24137257.455    24137277.911
       210.000         155.000
  -1621928.03049  -1255895.75847  20351846.433    20351846.369    20351856.743
       237.000         205.000
  -4242280.73049  -3287310.46847  21522337.823    21522338.000    21522353.306
       235.000         194.000
  -1167224.76749   -900759.04147  19631321.473    19631321.191    19631332.386
       236.000         206.000
  -2680126.47749  -2076204.98646  23300558.701    23300559.183    23300577.657
       221.000         170.000
   2569782.07149   1991427.08045  24558028.893    24558028.061    24558050.594
       200.000         137.000
 01 12 19 20 21 59.9980000  0  8G27G 2G31G28G 7G 8G11G13
    284034.30549    221127.90547  20963251.426    20963251.178    20963264.062
       236.000         201.000
   -217971.73249   -168040.25847  21202993.029    21202992.543    21203004.726
       241.000         207.000
   2421503.94849   1870460.77845  24150846.017    24150845.143    24150865.732
       209.000         156.000
  -1664759.64749  -1289271.02947  20343695.850    20343695.761    20343706.121
       237.000         205.000
  -4361707.21549  -3380369.91847  21499611.677    21499611.782    21499627.070
       235.000         195.000
  -1194107.19049   -921706.37947  19626205.921    19626205.641    19626216.822
       235.000         206.000
  -2752492.95749  -2132594.15846  23286787.606    23286788.135    23286806.597
       222.000         170.000
   2645102.58249   2050117.76445  24572362.446    24572361.447    24572384.317
       201.000         134.000
 01 12 19 20 22 29.9980000  0  8G27G 2G31G28G 7G 8G11G13
    298792.60349    232627.78547  20966059.905    20966059.661    20966072.559
       236.000         201.000
   -222039.41549   -171209.93147  21202218.933    21202218.514    21202230.726
       241.000         208.000
   2493039.44949   1926202.39845  24164459.002    24164458.142    24164478.784
       210.000         154.000
  -1707368.39249  -1322472.63647  20335587.701    20335587.581    20335597.914
       237.000         205.000
  -4480822.01749  -3473186.49547  21476944.823    21476944.891    21476960.161
       235.000         195.000
  -1220597.01749   -942347.79647  19621165.030    19621164.789    19621175.970
       235.000         206.000
  -2824477.43449  -2188685.66746  23273089.292    23273089.810    23273108.206
       222.000         171.000
   2720377.16349   2108772.68045  24586687.248    24586686.202    24586709.237
       202.000         134.000
 01 12 19 20 22 59.9980000  0  8G27G 2G31G28G 7G 8G11G13
    313908.85349    244406.58947  20968936.504    20968936.244    20968949.187
       236.000         200.000
   -226015.99949   -174308.62347  21201462.278    21201461.817    21201474.067
       240.000         207.000
   2564699.02049   1982040.70545  24178095.530    24178094.704    24178115.426
       210.000         151.000
  -1749760.86949  -1355505.72147  20327520.592    20327520.511    20327530.891
       238.000         206.000
  -4599629.33449  -3565763.46047  21454336.430    21454336.483    21454351.741
       235.000         195.000
  -1246699.39149   -962687.30147  19616197.907    19616197.675    19616208.842
       235.000         206.000
  -2896083.41649  -2244482.25546  23259462.950    23259463.493    23259481.846
       222.000         170.000
   2795597.78249   2167385.56145  24601001.511    24601000.665    24601023.788
       199.000         137.000
 01 12 19 20 23 29.9980000  0  8G27G 2G31G28G 7G 8G11G13
    329396.37849    256474.69447  20971883.724    20971883.496    20971896.454
       236.000         199.000
   -229888.49249   -177326.20447  21200725.378    21200724.944    21200737.171
       240.000         207.000
   2636493.22049   2037983.92745  24191757.822    24191756.922    24191777.647
       208.000         149.000
  -1791924.46949  -1388360.47647  20319497.160    20319497.053    20319507.394
       236.000         205.000
  -4718114.10149  -3658089.08547  21431789.406    21431789.446    21431804.695
       235.000         195.000
  -1272399.93249   -982713.68647  19611307.264    19611307.031    19611318.187
       236.000         206.000
  -2967295.79849  -2299972.14646  23245911.461    23245912.057    23245930.338
       221.000         170.000
   2870775.15349   2225964.75845  24615307.814    24615306.857    24615330.245
       203.000         141.000
 01 12 19 20 23 59.9980000  0  8G27G 2G31G28G 7G 8G11G13
    345252.79849    268830.25447  20974901.148    20974900.933    20974913.885
       237.000         200.000
   -233659.73749   -180264.88947  21200007.759    21200007.320    21200019.551
       240.000         206.000
   2708417.22249   2094028.27945  24205444.750    24205443.866    24205464.593
       206.000         144.000
  -1833862.29649  -1421039.30347  20311516.613    20311516.528    20311526.853
       236.000         205.000
  -4836276.81149  -3750163.74747  21409303.700    21409303.698    21409318.913
       235.000         195.000
  -1297700.26349  -1002428.21747  19606492.847    19606492.558    19606503.690
       235.000         207.000
  -3038114.87349  -2355155.58346  23232434.752    23232435.432    23232453.659
       221.000         169.000
   2945904.66349   2284506.61445  24629604.927    24629604.004    24629627.553
       206.000         139.000
 01 12 19 20 24 29.9980000  0  8G27G 2G31G28G 7G 8G11G13
    361450.85549    281452.01947  20977983.653    20977983.400    20977996.351
       236.000         200.000
   -237357.25349   -183146.12147  21199304.136    21199303.737    21199315.941
       239.000         207.000
   2780441.11249   2150150.46745  24219150.618    24219149.749    24219170.565
       204.000         139.000
  -1875601.98449  -1453563.73647  20303573.657    20303573.686    20303584.043
       236.000         205.000
  -4954142.93449  -3842007.29147  21386874.348    21386874.393    21386889.570
       235.000         195.000
  -1322626.82949  -1021851.50247  19601749.518    19601749.207    19601760.341
       236.000         207.000
  -3108565.78849  -2410052.16746  23219028.212    23219028.877    23219047.010
       222.000         168.000
   3020956.38149   2342987.91845  24643887.190    24643886.307    24643909.946
       206.000         135.000
 01 12 19 20 24 59.9980000  0  8G27G 2G31G28G 7G 8G11G13
    378010.20649    294355.30747  20981134.854    20981134.613    20981147.583
       236.000         200.000
   -240961.64649   -185954.78847  21198618.341    21198617.885    21198630.096
       240.000         207.000
   2852582.09249   2206363.92245  24232878.924    24232877.890    24232898.852
       200.000         134.000
  -1917124.69449  -1485919.10647  20295672.148    20295672.170    20295682.504
       236.000         205.000
  -5071690.85249  -3933602.87647  21364505.579    21364505.625    21364520.794
       235.000         195.000
  -1347158.83849  -1040967.34147  19597081.186    19597080.924    19597092.050
       236.000         207.000
  -3178626.63349  -2464644.81646  23205695.912    23205696.559    23205714.615
       224.000         168.000
   3095947.72449   2401422.17544  24658158.050    24658157.161    24658180.827
       206.000         127.000
 01 12 19 20 25 29.9980000  0  8G27G 2G31G28G 7G 8G11G13
    394940.82949    307547.90547  20984356.714    20984356.480    20984369.483
       235.000         200.000
   -244463.26749   -188683.37147  21197952.039    21197951.576    21197963.798
       240.000         207.000
   2924847.54549   2262674.38044  24246630.711    24246629.815    24246650.842
       197.000         130.000
  -1958420.85649  -1518097.95147  20287813.866    20287813.762    20287824.081
       237.000         205.000
  -5188908.90749  -4024941.42147  21342199.566    21342199.628    21342214.769
       235.000         196.000
  -1371285.85149  -1059767.60447  19592489.987    19592489.716    19592500.826
       236.000         207.000
  -3248285.53449  -2518924.25746  23192440.084    23192440.724    23192458.668
       221.000         169.000
   3170886.60749   2459815.58144  24672419.055    24672418.164    24672441.762
       199.000         127.000
 01 12 19 20 25 59.9980000  0  8G27G 2G31G28G 7G 8G11G13
    412200.73149    320997.08447  20987641.200    20987640.972    20987654.026
       236.000         199.000
   -247904.24349   -191364.69347  21197297.336    21197296.822    21197309.033
       240.000         207.000
   2997193.26249   2319047.38944  24260397.705    24260396.971    24260418.249
       195.000         126.000
  -1999532.94749  -1550133.35247  20279990.481    20279990.374    20280000.692
       237.000         205.000
  -5305837.09949  -4116054.08947  21319948.688    21319948.788    21319963.924
       235.000         196.000
  -1395048.49449  -1078283.94447  19587968.112    19587967.837    19587978.937
       236.000         207.000
  -3317582.15949  -2572921.42346  23179253.292    23179253.841    23179271.748
       221.000         168.000
   3245728.59049   2518133.50444  24686661.064    24686660.460    24686684.136
       197.000         122.000
 01 12 19 20 26 29.9980000  0  8G27G 2G31G28G 7G 8G11G13
    429777.88549    334693.47847  20990986.081    20990985.854    20990998.932
       235.000         199.000
   -251297.05449   -194008.48947  21196651.666    21196651.223    21196663.446
       240.000         207.000
   3069604.54948   2375471.51244  24274177.507    24274176.567    24274198.094
       194.000         121.000
  -2040473.91349  -1582035.41647  20272199.741    20272199.582    20272209.870
       237.000         205.000
  -5422485.69449  -4206948.89247  21297751.002    21297751.157    21297766.273
       235.000         197.000
  -1418458.16149  -1096525.23547  19583513.412    19583513.134    19583524.237
       236.000         207.000
  -3386526.40349  -2626644.03146  23166133.282    23166133.985    23166151.858
       222.000         168.000
   3320459.36148   2576364.57744  24700881.914    24700881.604    24700905.253
       190.000         111.000
 01 12 19 20 26 59.9980000  0  8G27G 2G31G28G 7G 8G11G13
    447752.00749    348699.19047  20994406.532    20994406.282    20994419.382
       234.000         199.000
   -254562.15649   -196552.76747  21196030.355    21196029.937    21196042.156
       240.000         207.000
   3142158.69348   2432006.90044  24287984.323    24287983.352    24288004.736
       190.000         117.000
  -2081164.07449  -1613742.03947  20264456.641    20264456.491    20264466.761
       236.000         205.000
  -5538772.95649  -4297562.13047  21275622.163    21275622.291    21275637.390
       236.000         196.000
  -1441434.04649  -1114428.51147  19579141.280    19579140.979    19579152.059
       236.000         207.000
  -3455036.22149  -2680028.12846  23153096.145    23153096.855    23153114.655
       222.000         170.000
   3395156.15749   2634569.42444  24715096.507    24715096.192    24715119.995
       195.000         122.000
 01 12 19 20 27 29.9980000  0  8G27G 2G31G28G 7G 8G11G13
    466072.92749    362975.14247  20997892.978    20997892.715    20997905.818
       234.000         198.000
   -257749.92449   -199036.78347  21195423.727    21195423.369    21195435.582
       240.000         207.000
   3214803.08648   2488612.68344  24301808.292    24301808.483    24301829.671
       189.000         115.000
  -2121654.29149  -1645292.86647  20256751.584    20256751.453    20256761.744
       237.000         206.000
  -5654747.17349  -4387931.43847  21253552.819    21253552.977    21253568.053
       235.000         197.000
  -1464025.53449  -1132032.26247  19574842.270    19574841.970    19574853.046
       235.000         207.000
  -3523159.76349  -2733111.23046  23140132.549    23140133.223    23140150.968
       221.000         169.000
   3469767.12858   2692707.13654  24729294.942    24729294.629    24729318.768
       187.000         111.000
 01 12 19 20 27 59.9980000  0  9G27G 2G26G31G28G 7G 8G11G13
    484750.81049    377529.24247  21001447.316    21001447.059    21001460.181
       233.000         197.000
   -260850.32549   -201452.72547  21194833.834    21194833.426    21194845.629
       240.000         206.000
   -164024.71455                  22882136.700
       208.000         140.000
   3287545.58148   2545294.91144  24315650.861                    24315652.134
       181.000         111.000
  -2161934.73149  -1676680.23347  20249086.600    20249086.381    20249096.628
       237.000         206.000
  -5770396.38449  -4478047.49547  21231545.369    21231545.529    21231560.574
       236.000         197.000
  -1486221.39349  -1149327.73447  19570618.491    19570618.227    19570629.318
       236.000         207.000
  -3590884.81349  -2785883.83746  23127244.806    23127245.422    23127263.073
       222.000         167.000
   3544299.77449   2750783.76144  24743478.712    24743478.052    24743502.242
       202.000         129.000
 01 12 19 20 28 29.9980000  0  9G27G 2G26G31G28G 7G 8G11G13
    503793.46749    392367.58347  21005071.071    21005070.829    21005083.948
       234.000         197.000
   -263855.76249   -203794.66347  21194261.953    21194261.556    21194273.774
       240.000         207.000
   -331110.62149   -243087.21845  22862829.025    22862828.977    22862847.807
       211.000         143.000
   3360391.08858   2602057.33654  24329513.030    24329514.162    24329535.890
       183.000         108.000
  -2201998.37149  -1707898.64647  20241462.749    20241462.513    20241472.805
       236.000         206.000
  -5885711.13849  -4567902.94147  21209601.572    21209601.710    21209616.705
       236.000         197.000
  -1508012.96149  -1166308.17447  19566471.688    19566471.433    19566482.519
       236.000         207.000
  -3658201.51149  -2838338.24446  23114434.736    23114435.319    23114452.903
       220.000         167.000
   3618759.65249   2808803.93644  24757648.663    24757647.746    24757672.015
       195.000         129.000
 01 12 19 20 28 59.9980000  0  9G27G 2G26G31G28G 7G 8G11G13
    523199.49349    407489.07147  21008763.965    21008763.730    21008776.876
       233.000         196.000
   -266767.78549   -206063.81747  21193707.894    21193707.468    21193719.691
       241.000         207.000
   -432136.82949   -321808.77945  22843604.575    22843605.562    22843621.544
       211.000         147.000
                   2658897.38444  24343394.324
       182.000         106.000
  -2241846.98849  -1738949.52147  20233879.783    20233879.565    20233889.857
       236.000         206.000
  -6000690.73149  -4657497.22647  21187721.582    21187721.681    21187736.626
       236.000         197.000
  -1529400.86949  -1182974.07547  19562401.695    19562401.448    19562412.530
       236.000         207.000
  -3725109.19849  -2890473.94946  23101702.394    23101703.043    23101720.583
       221.000         168.000
   3693143.41049   2866764.58545  24771804.633    24771803.067    24771827.447
       201.000         134.000
 01 12 19 20 29 29.9980000  0  8G27G 2G26G31G28G 7G 8G11
    542965.18749    422890.82447  21012525.318    21012525.072    21012538.255
       233.000         196.000
   -269590.12649   -208263.08347  21193170.899    21193170.444    21193182.682
       240.000         207.000
   -532726.94459   -400190.52255  22824462.939    22824463.316    22824480.094
       214.000         151.000
                   2715810.30354  24357293.395
       183.000         101.000
  -2281484.58949  -1769835.96347  20226336.998    20226336.795    20226347.116
       236.000         206.000
  -6115336.92449  -4746831.71947  21165905.016    21165905.101    21165919.994
       236.000         198.000
  -1550387.54549  -1199327.33847  19558408.071    19558407.827    19558418.901
       237.000         207.000
  -3791609.32949  -2942292.08346  23089047.660    23089048.307    23089065.846
       221.000         168.000
 01 12 19 20 29 59.9980000  0  8G27G 2G26G31G28G 7G 8G11
    563091.85749    438573.85747  21016355.318    21016355.110    21016368.336
       233.000         196.000
   -272321.54549   -210391.50447  21192651.097    21192650.709    21192662.944
       240.000         207.000
   -632877.27649   -478229.57345  22805404.929    22805405.273    22805422.080
       217.000         156.000
                   2772795.14254  24371209.963
       179.000          97.000
  -2320910.28549  -1800557.28547  20218834.434    20218834.305    20218844.642
       237.000         205.000
  -6229646.56249  -4835903.97147  21144152.411    21144152.554    21144167.387
       236.000         198.000
  -1570970.89449  -1215366.31947  19554491.188    19554490.929    19554502.004
       236.000         207.000
  -3857698.38649  -2993789.90446  23076471.197    23076471.819    23076489.331
       221.000         169.000
 01 12 19 20 30 29.9980000  0  8G27G 2G26G31G28G 7G 8G11
    583575.19049    454534.81347  21020253.257    21020253.034    21020266.288
       234.000         196.000
   -274966.56649   -212452.60147  21192147.891    21192147.417    21192159.674
       239.000         206.000
   -732590.00849   -555927.62245  22786430.223    22786430.622    22786447.260
       219.000         160.000
                     20602.92653  24385142.766
       182.000          74.000
  -2360128.89349  -1831117.23347  20211371.302    20211371.221    20211381.573
       237.000         205.000
  -6343622.33649  -4924716.07347  21122463.399    21122463.520    21122478.337
       237.000         198.000
  -1591154.50749  -1231093.81947  19550650.409    19550650.134    19550661.201
       236.000         207.000
  -3923378.78949  -3044969.31846  23063972.459    23063973.126    23063990.599
       221.000         171.000
 01 12 19 20 30 59.9980000  0  8G27G 2G26G31G28G 7G 8G11
    604405.59449    470766.20047  21024217.221    21024217.004    21024230.278
       233.000         195.000
   -277534.78549   -214453.85547  21191659.217    21191658.732    21191670.997
       241.000         206.000
   -831872.77949   -633290.65346  22767537.287    22767537.650    22767554.394
       220.000         163.000
                     77731.92753  24399089.799
       178.000          80.000
  -2399150.49749  -1861523.66847  20203945.655    20203945.626    20203956.023
       237.000         205.000
  -6457271.77849  -5013273.89147  21100836.514    21100836.600    21100851.366
       237.000         198.000
  -1610946.99649  -1246516.54647  19546884.007    19546883.739    19546894.811
       236.000         207.000
  -3988657.97349  -3095836.09546  23051550.191    23051550.776    23051568.202
       222.000         171.000
 01 12 19 20 31 29.9980000  0  8G27G 2G26G31G28G 7G 8G11
    625606.66849    487286.43347  21028251.736    21028251.512    21028264.799
       233.000         195.000
   -280002.68549   -216376.93247  21191189.630    21191189.144    21191201.403
       241.000         206.000
   -930699.42849   -710298.26946  22748731.068    22748731.482    22748748.327
       221.000         167.000
                    134952.82553  24413054.791
       177.000          86.000
  -2437951.91549  -1891758.53047  20196562.012    20196561.984    20196572.343
       235.000         206.000
  -6570569.55249  -5101557.68147  21079276.520    21079276.609    21079291.322
       237.000         199.000
  -1630323.68349  -1261615.26747  19543196.749    19543196.499    19543207.545
       236.000         206.000
  -4053510.16949  -3146370.16046  23039209.167    23039209.700    23039227.112
       222.000         172.000
 01 12 19 20 31 59.9980000  0  8G27G 2G26G31G28G 7G 8G11
    647170.19949    504089.09647  21032355.199    21032354.988    21032368.278
       233.000         195.000
   -282378.65249   -218228.37447  21190737.490    21190737.046    21190749.328
       240.000         206.000
  -1029076.40849   -786955.50346  22730010.538    22730010.939    22730027.776
       223.000         170.000
                     14945.87753  24427035.928
       182.000          74.000
  -2476541.83749  -1921828.59347  20189218.567    20189218.543    20189228.909
       237.000         205.000
  -6683522.14349  -5189572.50647  21057782.204    21057782.306    21057796.993
       237.000         199.000
  -1649292.10849  -1276395.86947  19539587.159    19539586.916    19539597.958
       236.000         206.000
  -4117941.90849  -3196576.60746  23026948.194    23026948.637    23026966.006
       223.000         170.000
 01 12 19 20 32 29.9980000  0  8G27G 2G26G31G28G 7G 8G11
    669086.36749    521166.54247  21036525.816    21036525.563    21036538.857
       232.000         194.000
   -284672.44049   -220015.78347  21190301.075    21190300.597    21190312.887
       240.000         206.000
  -1127011.02749   -863268.04846  22711374.117    22711374.551    22711391.386
       225.000         173.000
                     72257.26843  24441031.114
       181.000          84.000
  -2514930.49549  -1951741.83347  20181913.606    20181913.465    20181923.784
       238.000         206.000
  -6796137.37449  -5277324.46247  21036352.111    21036352.198    21036366.836
       237.000         199.000
  -1667861.00749  -1290865.15147  19536053.593    19536053.361    19536064.399
       236.000         206.000
  -4181960.58149  -3246461.18546  23014765.715    23014766.190    23014783.540
       220.000         170.000
 01 12 19 20 32 59.9980000  0  8G27G 2G26G31G28G 7G 8G11
    691364.97549    538526.39947  21040765.364    21040765.112    21040778.402
       233.000         193.000
   -286874.10449   -221731.39947  21189882.050    21189881.670    21189893.990
       240.000         206.000
  -1224491.10149   -939226.40846  22692824.152    22692824.659    22692841.478
       227.000         176.000
                    129638.33253  24455041.190
       173.000          81.000
  -2553108.14449  -1981490.64547  20174648.568    20174648.478    20174658.820
       236.000         205.000
  -6908403.35549  -5364804.27547  21014988.395    21014988.550    21015003.159
       238.000         199.000
  -1686019.51149  -1305014.64747  19532598.163    19532597.933    19532608.958
       236.000         206.000
  -4245554.28549  -3296014.62046  23002664.129    23002664.619    23002681.936
       222.000         170.000
 01 12 19 20 33 29.9980000  0  8G27G 2G26G31G28G 7G 8G11
    713992.64449    556158.25547  21045071.338    21045071.083    21045084.381
       233.000         194.000
   -288997.06149   -223385.68147  21189478.121    21189477.705    21189490.009
       239.000         205.000
  -1321527.94349  -1014839.38846  22674358.563    22674359.077    22674375.860
       227.000         177.000
                      9265.89753  24469063.634
       169.000          74.000
  -2591088.60949  -2011085.80647  20167421.186    20167421.034    20167431.382
       236.000         206.000
  -7020331.81349  -5452021.09047  20993688.967    20993689.138    20993703.696
       237.000         200.000
  -1703780.25249  -1318854.20247  19529218.410    19529218.180    19529229.230
       236.000         207.000
  -4308734.37049  -3345245.76846  22990641.308    22990641.731    22990658.998
       222.000         171.000
 01 12 19 20 33 59.9980000  0  8G27G 2G26G31G28G 7G 8G11
    736985.27949    574074.50647  21049446.739    21049446.508    21049459.803
       231.000         193.000
   -291025.37849   -224966.21947  21189092.237    21189091.770    21189104.074
       239.000         205.000
  -1418103.47349  -1090092.90146  22655980.745    22655981.311    22655998.012
       228.000         178.000
                     66722.22153  24483100.970
       164.000          83.000
  -2628856.42749  -2040515.26647  20160234.066    20160234.019    20160244.397
       236.000         205.000
  -7131904.88249  -5538960.98247  20972457.184    20972457.365    20972471.873
       237.000         200.000
  -1721126.35749  -1332370.67047  19525917.591    19525917.336    19525928.394
       237.000         206.000
  -4371482.80149  -3394140.55546  22978700.583    22978701.015    22978718.213
       222.000         171.000
 01 12 19 20 34 29.9980000  0  7G27G 2G26G28G 7G 8G11
    760328.75549    592264.13447  21053888.881    21053888.678    21053901.994
       233.000         193.000
   -292973.00349   -226483.88347  21188721.509    21188721.145    21188733.483
       238.000         205.000
  -1514229.55049  -1164996.19146  22637688.478    22637689.072    22637705.711
       227.000         179.000
  -2666425.85749  -2069790.13647  20153084.890    20153084.791    20153095.152
       236.000         205.000
  -7243134.85849  -5625633.53147  20951290.659    20951290.862    20951305.320
       238.000         200.000
  -1738070.98049  -1345574.28647  19522693.134    19522692.877    19522703.934
       236.000         206.000
  -4433811.70549  -3442708.42946  22966839.776    22966840.157    22966857.293
       221.000         171.000
 01 12 19 20 34 59.9980000  0  7G27G 2G26G28G 7G 8G11
    784030.42649    610732.86047  21058399.212    21058399.002    21058412.364
       231.000         193.000
   -294832.74249   -227933.06847  21188367.613    21188367.273    21188379.648
       239.000         205.000
  -1609896.61249  -1239541.81346  22619483.543    22619484.166    22619500.759
       228.000         180.000
  -2703789.81349  -2098904.89647  20145974.702    20145974.661    20145985.013
       237.000         206.000
  -7354012.57049  -5712031.59847  20930191.207    20930191.412    20930205.801
       238.000         200.000
  -1754605.81449  -1358458.59347  19519546.669    19519546.423    19519557.482
       236.000         206.000
  -4495711.76849  -3490942.14046  22955060.520    22955060.872    22955077.967
       222.000         171.000
 01 12 19 20 35 29.9980000  0  7G27G 2G26G28G 7G 8G11
    808085.58049    629477.02347  21062976.762    21062976.596    21062990.025
       231.000         193.000
   -296609.03649   -229317.22247  21188029.667    21188029.283    21188041.675
       240.000         205.000
  -1705107.11749  -1313731.68746  22601365.524    22601366.141    22601382.698
       227.000         178.000
  -2740953.32349  -2127863.45347  20138902.813    20138902.708    20138913.012
       236.000         206.000
  -7464540.66749  -5798157.23847  20909158.310    20909158.483    20909172.816
       237.000         200.000
  -1770734.51649  -1371026.43647  19516477.540    19516477.239    19516488.296
       236.000         206.000
  -4557185.41449  -3538843.57346  22943362.197    22943362.678    22943379.813
       220.000         172.000
 01 12 19 20 35 59.9980000  0  7G27G 2G26G28G 7G 8G11
    832498.54849    648500.00147  21067622.595    21067622.309    21067635.782
       231.000         193.000
   -298297.54849   -230632.98447  21187708.327    21187707.995    21187720.416
       239.000         206.000
  -1799854.58249  -1387560.73746  22583335.607    22583336.236    22583352.742
       227.000         177.000
  -2777912.23649  -2156662.58647  20131869.802    20131869.645    20131879.947
       237.000         205.000
  -7574712.99249  -5884005.65847  20888193.121    20888193.257    20888207.540
       238.000         200.000
  -1786452.01849  -1383273.86047  19513486.534    19513486.296    19513497.357
       236.000         206.000
  -4618226.13049  -3586407.65846  22931746.438    22931746.927    22931764.009
       222.000         171.000
 01 12 19 20 36 29.9980000  0  7G27G 2G26G28G 7G 8G11
    857278.03949    667808.58547  21072338.022    21072337.753    21072351.279
       232.000         193.000
   -299889.11749   -231873.20547  21187405.504    21187405.171    21187417.596
       239.000         205.000
  -1894127.84849  -1461020.29646  22565395.918    22565396.535    22565413.041
       225.000         174.000
  -2814658.07649  -2185295.68547  20124877.344    20124877.167    20124887.402
       236.000         206.000
  -7684519.03749  -5969568.67247  20867297.587    20867297.741    20867311.978
       237.000         201.000
  -1801748.29749  -1395193.06447  19510575.779    19510575.528    19510586.591
       236.000         206.000
  -4678823.43149  -3633626.21546  22920215.136    22920215.552    22920232.621
       222.000         172.000
 01 12 19 20 36 59.9970000  0  7G27G 2G26G28G 7G 8G11
    882394.09749    687379.42047  21077117.493    21077117.268    21077130.810
       232.000         193.000
   -301412.81249   -233060.53947  21187115.560    21187115.229    21187127.697
       239.000         205.000
  -1987950.98449  -1534129.09146  22547541.845    22547542.480    22547558.984
       224.000         173.000
  -2851218.95849  -2213784.65947  20117920.012    20117919.858    20117930.075
       235.000         205.000
  -7793982.37049  -6054864.62847  20846467.313    20846467.430    20846481.637
       238.000         201.000
  -1816651.38149  -1406805.88447  19507739.827    19507739.582    19507750.634
       237.000         206.000
  -4739002.40549  -3680518.79946  22908763.409    22908763.770    22908780.874
       220.000         172.000
 01 12 19 20 37 29.9970000  0  7G27G 2G26G28G 7G 8G11
    907884.50949    707241.95547  21081968.273    21081968.032    21081981.567
       232.000         194.000
   -302832.36049   -234166.71747  21186845.431    21186845.111    21186857.606
       239.000         205.000
  -2081291.80049  -1606862.04746  22529779.628    22529780.227    22529796.702
       224.000         172.000
  -2887561.37449  -2242103.40447  20111004.189    20111004.096    20111014.328
       236.000         205.000
  -7903072.29549  -6139869.62547  20825708.079    20825708.191    20825722.350
       238.000         202.000
  -1831125.06749  -1418084.10347  19504985.597    19504985.328    19504996.401
       235.000         206.000
  -4798728.92549  -3727058.82246  22897397.789    22897398.132    22897415.184
       222.000         172.000
 01 12 19 20 37 59.9970000  0  7G27G 2G26G28G 7G 8G11
    933736.07349    727385.90447  21086887.806    21086887.523    21086901.060
       232.000         193.000
   -304159.97649   -235201.26647  21186592.873    21186592.525    21186605.010
       239.000         205.000
  -2174157.32049  -1679224.65146  22512107.809    22512108.443    22512124.850
       224.000         170.000
  -2923696.87649  -2270260.91647  20104127.952    20104127.760    20104137.958
       236.000         206.000
  -8011795.50549  -6224588.87447  20805018.609    20805018.736    20805032.848
       238.000         202.000
  -1845180.32449  -1429036.26947  19502310.998    19502310.728    19502321.792
       236.000         206.000
  -4858011.03049  -3773252.54846  22886116.687    22886117.037    22886134.024
       222.000         172.000
 01 12 19 20 38 29.9970000  0  7G27G 2G26G28G 7G 8G11
    959934.29949    747799.98047  21091873.277    21091872.979    21091886.536
       233.000         193.000
   -305409.86149   -236175.24447  21186355.033    21186354.701    21186367.156
       239.000         204.000
  -2266559.81149  -1751226.48246  22494524.051    22494524.729    22494541.081
       226.000         170.000
  -2959639.83149  -2298268.38647  20097288.111    20097288.016    20097298.246
       237.000         206.000
  -8120164.60949  -6309032.19847  20784396.579    20784396.669    20784410.741
       239.000         203.000
  -1858830.48149  -1439672.79147  19499713.482    19499713.199    19499724.276
       236.000         206.000
  -4916861.18549  -3819109.69146  22874917.836    22874918.143    22874935.070
       222.000         172.000
 01 12 19 20 38 59.9970000  0  7G27G 2G26G28G 7G 8G11
    986486.99049    768490.26047  21096926.195    21096925.883    21096939.462
       232.000         193.000
   -306573.95649   -237082.37147  21186133.542    21186133.212    21186145.656
       240.000         204.000
  -2358489.18649  -1822859.64446  22477030.360    22477031.076    22477047.352
       228.000         175.000
  -2995382.75149  -2326119.97847  20090486.340    20090486.324    20090496.594
       236.000         206.000
  -8228170.12749  -6393192.21147  20763843.750    20763843.811    20763857.817
       238.000         203.000
  -1872066.94249  -1449986.95247  19497194.672    19497194.399    19497205.482
       236.000         206.000
  -4975269.89049  -3864622.86046  22863802.946    22863803.244    22863820.162
       223.000         172.000
 01 12 19 20 39 29.9970000  0  7G27G 2G26G28G 7G 8G11
   1013387.52549    789451.59247  21102045.255    21102044.949    21102058.596
       231.000         193.000
   -307658.68249   -237927.65647  21185927.172    21185926.836    21185939.275
       239.000         204.000
  -2449950.08449  -1894127.73046  22459625.847    22459626.552    22459642.770
       227.000         176.000
  -3030932.31949  -2353820.91347  20083721.512    20083721.458    20083731.746
       237.000         206.000
  -8335816.65449  -6477072.48247  20743359.232    20743359.259    20743373.220
       239.000         203.000
  -1884895.30749  -1459983.10647  19494753.542    19494753.260    19494764.346
       236.000         206.000
  -5033241.45949  -3909795.39046  22852771.268    22852771.563    22852788.369
       223.000         173.000
 01 12 19 20 39 59.9970000  0  7G27G 2G26G28G 7G 8G11
   1040637.24749    810684.99847  21107230.818    21107230.496    21107244.192
       231.000         192.000
   -308662.40049   -238709.82547  21185736.206    21185735.856    21185748.296
       239.000         204.000
  -2540938.89249  -1965027.96446  22442311.182    22442311.873    22442328.018
       227.000         179.000
  -3066287.34549  -2381370.25547  20076993.672    20076993.609    20077003.887
       235.000         206.000
  -8443101.01049  -6560670.55347  20722943.563    20722943.615    20722957.536
       239.000         203.000
  -1897313.28349  -1469659.47847  19492390.447    19492390.205    19492401.297
       236.000         206.000
  -5090772.67249  -3954624.81046  22841823.339    22841823.650    22841840.453
       221.000         173.000
 01 12 19 20 40 29.9970000  0  7G27G 2G26G28G 7G 8G11
   1068244.38949    832196.91347  21112484.436    21112484.049    21112497.797
       231.000         192.000
   -309576.59749   -239422.23047  21185562.182    21185561.907    21185574.362
       237.000         204.000
  -2631445.12649  -2035552.14146  22425088.278    22425089.001    22425105.130
       226.000         180.000
  -3101439.75049  -2408761.72147  20070304.320    20070304.322    20070314.600
       236.000         206.000
  -8550013.08449  -6643978.52947  20702598.765    20702598.807    20702612.684
       238.000         203.000
  -1909311.80849  -1479009.01247  19490107.217    19490106.996    19490118.081
       236.000         206.000
  -5147853.28149  -3999103.09746  22830961.161    22830961.470    22830978.229
       222.000         172.000
 01 12 19 20 40 59.9970000  0  7G27G 2G26G28G 7G 8G11
   1096193.42249    853975.23147  21117802.955    21117802.651    21117816.483
       229.000         192.000
   -310416.33149   -240076.62647  21185402.387    21185402.122    21185414.624
       238.000         204.000
  -2721482.19849  -2105710.72746  22407954.692    22407955.422    22407971.547
       224.000         179.000
  -3136405.09649  -2436007.42347  20063650.660    20063650.626    20063660.887
       236.000         206.000
  -8656566.53649  -6727007.06147  20682322.174    20682322.251    20682336.102
       238.000         204.000
  -1920905.19249  -1488042.84547  19487901.124    19487900.873    19487911.972
       236.000         206.000
  -5204496.62149  -4043240.68046  22820182.121    22820182.495    22820199.253
       221.000         172.000
 01 12 19 20 41 29.9970000  0  7G27G 2G26G28G 7G 8G11
   1124481.86349    876018.02347  21123186.250    21123185.869    21123199.744
       231.000         192.000
   -311183.82249   -240674.72547  21185256.360    21185256.100    21185268.659
       238.000         204.000
  -2811050.39049  -2175503.92446  22390910.272    22390911.039    22390927.161
       222.000         177.000
  -3171186.01449  -2463109.42347  20057032.089    20057032.026    20057042.308
       236.000         206.000
  -8762761.88449  -6809756.54947  20662113.777    20662113.848    20662127.678
       239.000         204.000
  -1932095.26249  -1496762.41347  19485771.776    19485771.496    19485782.587
       237.000         206.000
  -5260703.26749  -4087037.94446  22809486.221    22809486.643    22809503.347
       222.000         172.000
 01 12 19 20 41 59.9970000  0  7G27G 2G26G28G 7G 8G11
   1153127.38149    898339.06647  21128637.419    21128637.036    21128650.945
       230.000         192.000
   -311861.25649   -241202.64247  21185127.494    21185127.210    21185139.806
       238.000         204.000
  -2900130.02349  -2244916.45946  22373958.850    22373959.639    22373975.728
       227.000         178.000
  -3205764.90749  -2490054.01147  20050451.910    20050451.878    20050462.116
       236.000         206.000
  -8868579.88049  -6892211.98847  20641977.151    20641977.251    20641991.063
       239.000         204.000
  -1942863.46249  -1505153.24547  19483722.696    19483722.398    19483733.494
       236.000         206.000
  -5316453.66449  -4130479.68546  22798877.237    22798877.614    22798894.274
       223.000         172.000
 01 12 19 20 42 29.9970000  0  7G27G 2G26G28G 7G 8G11
   1182124.66849    920934.20047  21134155.539    21134155.121    21134169.089
       231.000         192.000
   -312453.51449   -241664.19947  21185014.888    21185014.551    21185027.142
       239.000         204.000
  -2988724.04349  -2313950.61046  22357099.851    22357100.663    22357116.696
       228.000         179.000
  -3240147.29549  -2516845.47147  20043909.071    20043909.085    20043919.348
       235.000         206.000
  -8974023.64449  -6974375.81847  20621911.743    20621911.850    20621925.665
       239.000         204.000
  -1953213.87849  -1513218.53747  19481753.105    19481752.793    19481763.891
       237.000         206.000
  -5371751.31749  -4173568.65646  22788354.376    22788354.748    22788371.379
       222.000         172.000
 01 12 19 20 42 59.9970000  0  7G27G 2G26G28G 7G 8G11
   1211466.85349    943798.10247  21139739.268    21139738.874    21139752.873
       231.000         192.000
   -312967.03049   -242064.38547  21184917.239    21184916.888    21184929.458
       239.000         204.000
  -3076837.28349  -2382610.13046  22340332.427    22340333.192    22340349.165
       229.000         179.000
  -3274339.68649  -2543488.89647  20037402.526    20037402.493    20037412.732
       235.000         206.000
  -9079098.33749  -7056252.05647  20601916.531    20601916.680    20601930.468
       238.000         204.000
  -1963152.64149  -1520963.05247  19479861.882    19479861.542    19479872.624
       237.000         206.000
  -5426601.00249  -4216308.55246  22777916.718    22777917.094    22777933.703
       222.000         171.000
 01 12 19 20 43 29.9970000  0  7G27G 2G26G28G 7G 8G11
   1241166.22349    966940.32147  21145390.974    21145390.582    21145404.614
       230.000         192.000
   -313388.92449   -242393.17947  21184837.032    21184836.633    21184849.211
       237.000         204.000
  -3164455.22149  -2450883.71646  22323659.150    22323659.947    22323675.897
       227.000         177.000
  -3308329.95349  -2569974.81547  20030934.437    20030934.354    20030944.573
       236.000         206.000
  -9183789.77449  -7137829.65647  20581994.345    20581994.446    20582008.217
       240.000         205.000
  -1972666.31149  -1528376.32847  19478051.511    19478051.153    19478062.244
       236.000         206.000
  -5480988.26349  -4258688.10646  22767567.057    22767567.469    22767584.038
       224.000         173.000
 01 12 19 20 43 59.9970000  0  7G27G 2G26G28G 7G 8G11
   1271207.98849    990349.32947  21151107.827    21151107.444    21151121.496
       231.000         191.000
   -313733.59249   -242661.79947  21184771.479    21184771.093    21184783.689
       239.000         204.000
  -3251590.45349  -2518781.14946  22307077.714    22307078.509    22307094.465
       225.000         178.000
  -3342132.81649  -2596314.70747  20024501.940    20024501.866    20024512.070
       235.000         206.000
  -9288110.69149  -7219118.53447  20562142.630    20562142.731    20562156.480
       239.000         205.000
  -1981768.50849  -1535468.96847  19476319.468    19476319.079    19476330.186
       236.000         206.000
  -5534925.98449  -4300717.37346  22757303.014    22757303.352    22757319.932
       223.000         172.000
 01 12 19 20 44 29.9970000  0  7G27G 2G26G28G 7G 8G11
   1301603.15949   1014033.75247  21156891.956    21156891.569    21156905.638
       230.000         190.000
   -313989.66649   -242861.39047  21184722.771    21184722.404    21184735.035
       237.000         204.000
  -3338229.85349  -2586292.19846  22290590.623    22290591.450    22290607.411
       225.000         179.000
  -3375737.21449  -2622499.95447  20018107.249    20018107.160    20018117.358
       236.000         206.000
  -9392048.36849  -7300108.79347  20542363.839    20542363.944    20542377.676
       240.000         205.000
  -1990447.64749  -1542231.94747  19474667.832    19474667.513    19474678.611
       236.000         205.000
  -5588401.22249  -4342386.26846  22747126.875    22747127.262    22747143.777
       223.000         172.000
 01 12 19 20 44 59.9970000  0  7G27G 2G26G28G 7G 8G11
   1332344.15249   1037987.63447  21162741.835    21162741.500    21162755.587
       230.000         189.000
   -314164.22649   -242997.45747  21184689.642    21184689.229    21184701.873
       238.000         204.000
  -3424378.90449  -2653421.15546  22274196.869    22274197.690    22274213.679
       224.000         179.000
  -3409150.95249  -2648536.63047  20011748.824    20011748.747    20011758.921
       236.000         206.000
  -9495608.57149  -7380804.91447  20522656.949    20522656.991    20522670.689
       240.000         205.000
  -1998710.12549  -1548670.26247  19473095.568    19473095.229    19473106.338
       237.000         206.000
  -5641419.76949  -4383699.31046  22737037.601    22737038.068    22737054.509
       222.000         173.000
 01 12 19 20 45 29.9970000  0  7G27G 2G26G28G 7G 8G11
   1363426.54549   1062207.52547  21168656.722    21168656.375    21168670.499
       229.000         189.000
   -314261.12249   -243073.00747  21184671.172    21184670.822    21184683.471
       238.000         203.000
  -3510039.84649  -2720169.76446  22257896.010    22257896.833    22257912.840
       226.000         181.000
  -3442378.09749  -2674427.90847  20005425.903    20005425.826    20005435.981
       237.000         206.000
  -9598793.82649  -7461208.87447  20503021.307    20503021.386    20503035.047
       240.000         205.000
  -2006559.60549  -1554786.75447  19471601.844    19471601.529    19471612.668
       237.000         206.000
  -5693983.73049  -4424658.13546  22727034.959    22727035.372    22727051.817
       224.000         172.000
 01 12 19 20 45 59.9970000  0  7G27G 2G26G28G 7G 8G11
   1394850.10349   1086693.25647  21174636.556    21174636.166    21174650.333
       228.000         188.000
   -314280.06249   -243087.81647  21184667.633    21184667.257    21184679.896
       239.000         203.000
  -3595210.74249  -2786536.53746  22241688.436    22241689.256    22241705.236
       228.000         185.000
  -3475418.78749  -2700173.90047  19999138.441    19999138.371    19999148.525
       236.000         206.000
  -9701602.40449  -7541319.32047  20483457.395    20483457.463    20483471.098
       240.000         205.000
  -2013995.33949  -1560580.84647  19470186.834    19470186.552    19470197.738
       236.000         206.000
  -5746091.38049  -4465261.39746  22717119.105    22717119.548    22717135.894
       224.000         172.000
 01 12 19 20 46 29.9970000  0  7G27G 2G26G28G 7G 8G11
   1426612.04149   1111442.67347  21180680.688    21180680.365    21180694.570
       228.000         188.000
   -314223.24849   -243043.60347  21184678.551    21184678.122    21184690.763
       238.000         203.000
  -3679892.19849  -2852521.92046  22225573.992    22225574.807    22225590.788
       229.000         184.000
  -3508275.80849  -2725776.76747  19992885.955    19992885.885    19992896.049
       236.000         206.000
  -9804035.07949  -7621136.84947  20463965.005    20463965.092    20463978.659
       239.000         205.000
  -2021018.96949  -1566053.81247  19468850.302    19468850.029    19468861.223
       237.000         206.000
  -5797743.78849  -4505509.92546  22707289.895    22707290.340    22707306.651
       223.000         172.000
 01 12 19 20 46 59.9970000  0  7G27G 2G26G28G 7G 8G11
   1458711.85949   1136455.36547  21186789.202    21186788.845    21186803.115
       229.000         188.000
   -314090.68649   -242940.35847  21184703.812    21184703.371    21184716.043
       237.000         202.000
  -3764082.65049  -2918124.72846  22209553.026    22209553.809    22209569.745
       230.000         182.000
  -3540949.60049  -2751236.85547  19986668.324    19986668.252    19986678.425
       237.000         206.000
  -9906090.76549  -7700660.63047  20444544.379    20444544.448    20444557.948
       240.000         205.000
  -2027630.00449  -1571205.28147  19467592.284    19467592.004    19467603.219
       237.000         206.000
  -5848939.52049  -4545402.61946  22697547.575    22697548.025    22697564.284
       223.000         172.000
 01 12 19 20 47 29.9970000  0  7G27G 2G26G28G 7G 8G11
   1491142.14749   1161725.56547  21192960.641    21192960.235    21192974.524
       229.000         189.000
   -313889.23049   -242783.42747  21184742.123    21184741.744    21184754.427
       237.000         203.000
  -3847787.59249  -2983349.21546  22193624.383    22193625.173    22193641.065
       227.000         180.000
  -3573447.37449  -2776559.79247  19980484.152    19980484.116    19980494.295
       236.000         206.000
 -10007774.99249  -7779894.96247  20425194.486    20425194.495    20425207.914
       240.000         205.000
  -2033835.22949  -1576040.53447  19466411.485    19466411.210    19466422.421
       237.000         206.000
  -5899684.17049  -4584943.81046  22687891.152    22687891.575    22687907.813
       223.000         172.000
 01 12 19 20 47 59.9970000  0  7G27G 2G26G28G 7G 8G11
   1523907.79349   1187257.08547  21199195.837    21199195.449    21199209.745
       229.000         189.000
   -313613.28549   -242568.45547  21184794.604    21184794.277    21184807.008
       238.000         203.000
  -3930999.74349  -3048189.70046  22177789.476    22177790.290    22177806.189
       228.000         181.000
  -3605764.57949  -2801742.02247  19974334.485    19974334.361    19974344.527
       236.000         206.000
 -10109080.76649  -7858834.39347  20405916.563    20405916.575    20405929.898
       240.000         205.000
  -2039628.66649  -1580554.91747  19465309.058    19465308.761    19465319.991
       237.000         207.000
  -5949971.09549  -4624128.34446  22678321.791    22678322.203    22678338.407
       223.000         173.000
 01 12 19 20 48 29.9970000  0  7G27G 2G26G28G 7G 8G11
   1557040.42449   1213074.57347  21205500.883    21205500.517    21205514.805
       229.000         188.000
   -313230.96249   -242270.60247  21184867.411    21184867.054    21184879.806
       238.000         203.000
  -4013685.60049  -3112620.08746  22162054.802    22162055.605    22162071.508
       230.000         183.000
  -3637868.89549  -2826758.36847  19968225.153    19968225.093    19968235.252
       236.000         206.000
 -10209974.97949  -7937453.13147  20386716.938    20386716.954    20386730.221
       241.000         205.000
  -2044977.70349  -1584723.01547  19464291.169    19464290.895    19464302.126
       236.000         207.000
  -5999766.54049  -4662929.93246  22668845.935    22668846.356    22668862.541
       223.000         173.000
 01 12 19 20 48 59.9970000  0  7G27G 2G26G28G 7G 8G11
   1590503.55849   1239149.57747  21211868.818    21211868.476    21211882.761
       229.000         189.000
   -312777.95149   -241917.66947  21184953.625    21184953.308    21184966.101
       237.000         204.000
  -4095879.51049  -3176667.14046  22146413.776    22146414.546    22146430.398
       231.000         184.000
  -3669796.73949  -2851637.21247  19962149.538    19962149.443    19962159.571
       236.000         206.000
 -10310492.01649  -8015777.96247  20367589.083    20367589.093    20367602.315
       240.000         204.000
  -2049917.76849  -1588572.43447  19463351.167    19463350.863    19463362.091
       237.000         207.000
  -6049104.94249  -4701375.37346  22659457.074    22659457.480    22659473.713
       223.000         174.000
 01 12 19 20 49 29.9970000  0  7G27G 2G26G28G 7G 8G11
   1624290.21049   1265476.68347  21218298.315    21218297.982    21218312.294
       230.000         189.000
   -312260.79149   -241514.74747  21185052.104    21185051.773    21185064.598
       238.000         204.000
  -4177586.27649  -3240334.60346  22130865.378    22130866.167    22130881.955
       230.000         183.000
  -3701554.82249  -2876383.76247  19956106.192    19956106.078    19956116.184
       237.000         206.000
 -10410637.22149  -8093813.06047  20348531.973    20348531.987    20348545.166
       241.000         204.000
  -2054455.26049  -1592108.16747  19462487.692    19462487.427    19462498.665
       237.000         207.000
  -6097991.55449  -4739468.78346  22650154.210    22650154.610    22650170.814
       222.000         173.000
 01 12 19 20 49 59.9970000  0  7G27G 2G26G28G 7G 8G11
   1658436.78349   1292084.23847  21224796.343    21224795.998    21224810.332
       229.000         188.000
   -311642.08749   -241032.69947  21185169.901    21185169.567    21185182.396
       238.000         204.000
  -4258767.52749  -3303592.56846  22115417.009    22115417.793    22115433.483
       230.000         181.000
  -3733106.53949  -2900969.51147  19950101.997    19950101.964    19950112.053
       237.000         206.000
 -10510372.03049  -8171528.37147  20329552.914    20329552.984    20329566.105
       240.000         204.000
  -2058552.40749  -1595300.77147  19461708.045    19461707.778    19461719.039
       237.000         207.000
  -6146388.29349  -4777180.48446  22640944.582    22640944.971    22640961.089
       224.000         172.000
 01 12 19 20 50 29.9970000  0  7G27G 2G26G28G 7G 8G11
   1692908.77449   1318945.37347  21231356.328    21231355.954    21231370.304
       229.000         189.000
   -310955.62949   -240497.85547  21185300.643    21185300.258    21185313.076
       238.000         204.000
  -4339455.37349  -3366466.10146  22100062.457    22100063.269    22100078.937
       230.000         181.000
  -3764485.67749  -2925420.78547  19944130.814    19944130.712    19944140.796
       237.000         206.000
 -10609729.08449  -8248949.32847  20310645.827    20310645.876    20310658.923
       241.000         204.000
  -2062242.76349  -1598176.39847  19461005.823    19461005.539    19461016.816
       238.000         206.000
  -6194326.83049  -4814535.14446  22631822.195    22631822.526    22631838.594
       224.000         173.000
 01 12 19 20 50 59.9970000  0  7G27G 2G26G28G 7G 8G11
   1727726.69549   1346076.07247  21237982.096    21237981.730    21237996.107
       229.000         189.000
   -310180.31949   -239893.77847  21185448.274    21185447.848    21185460.663
       238.000         204.000
  -4419627.51749  -3428937.77746  22084806.073    22084806.885    22084822.535
       229.000         182.000
  -3795672.09149  -2949721.89047  19938196.293    19938196.157    19938206.177
       237.000         206.000
 -10708686.11649  -8326058.57947  20291814.959    20291814.898    20291827.869
       242.000         204.000
  -2065504.94449  -1600718.38347  19460385.103    19460384.796    19460396.056
       237.000         207.000
  -6241785.41949  -4851515.82946  22622790.989    22622791.383    22622807.456
       224.000         173.000
 01 12 19 20 51 29.9970000  0  7G27G 2G26G28G 7G 8G11
   1762890.11449   1373475.99647  21244673.633    21244673.225    21244687.659
       228.000         188.000
   -309315.75349   -239220.15247  21185612.919    21185612.439    21185625.243
       237.000         204.000
  -4499282.15249  -3491006.17446  22069648.217    22069649.005    22069664.600
       229.000         180.000
  -3826665.97049  -2973872.96347  19932298.344    19932298.206    19932308.246
       237.000         206.000
 -10807241.61449  -8402854.95047  20273060.390    20273060.329    20273073.237
       241.000         204.000
  -2068338.37349  -1602926.28047  19459845.946    19459845.629    19459856.883
       237.000         206.000
  -6288762.74049  -4888121.50746  22613851.544    22613851.858    22613867.909
       224.000         173.000
 01 12 19 20 51 59.9970000  0  7G27G 2G26G28G 7G 8G11
   1798387.25749   1401135.97047  21251428.619    21251428.228    21251442.724
       228.000         188.000
   -308373.23049   -238485.78447  21185792.320    21185791.839    21185804.661
       237.000         203.000
  -4578429.19049  -3552679.07246  22054586.969    22054587.740    22054603.166
       231.000         181.000
  -3857478.69849  -2997882.88647  19926434.937    19926434.744    19926444.792
       236.000         206.000
 -10905405.72249  -8479346.34547  20254380.318    20254380.228    20254393.081
       242.000         204.000
  -2070754.00749  -1604808.62947  19459386.286    19459385.980    19459397.212
       238.000         206.000
  -6335268.78749  -4924359.95246  22605001.622    22605001.956    22605018.038
       223.000         173.000
 01 12 19 20 52 29.9970000  0  7G27G 2G26G28G 7G 8G11
   1834234.80649   1429068.97146  21258250.276    21258249.890    21258264.435
       229.000         187.000
   -307335.19749   -237676.98747  21185989.802    21185989.390    21186002.252
       236.000         203.000
  -4657049.80149  -3613941.77046  22039625.873    22039626.645    22039641.954
       232.000         182.000
  -3888093.78449  -3021738.79147  19920608.951    19920608.869    19920618.940
       236.000         206.000
 -11003159.73849  -8555518.19247  20235778.266    20235778.171    20235790.965
       242.000         205.000
  -2072734.21849  -1606351.68647  19459009.553    19459009.192    19459020.392
       238.000         206.000
  -6381285.52949  -4960217.11246  22596244.925    22596245.223    22596261.323
       223.000         172.000
 01 12 19 20 52 59.9970000  0  7G27G 2G26G28G 7G 8G11
   1870414.35449   1457260.68846  21265135.162    21265134.752    21265149.339
       227.000         186.000
   -306219.25749   -236807.48747  21186202.304    21186201.810    21186214.690
       237.000         202.000
  -4735160.32149  -3674806.99046  22024761.861    22024762.624    22024777.884
       230.000         183.000
  -3918528.63049  -3045454.26047  19914817.447    19914817.313    19914827.376
       236.000         206.000
 -11100520.31349  -8631383.46747  20217251.089    20217250.977    20217263.709
       242.000         205.000
  -2074296.31349  -1607568.92947  19458712.335    19458711.977    19458723.179
       238.000         207.000
  -6426828.72749  -4995705.27546  22587578.282    22587578.570    22587594.696
       223.000         173.000
 01 12 19 20 53 29.9970000  0  7G27G 2G26G28G 7G 8G11
   1906921.66549   1485707.81446  21272082.319    21272081.965    21272096.603
       227.000         186.000
   -305028.75749   -235879.89147  21186428.913    21186428.388    21186441.314
       236.000         202.000
  -4812763.09649  -3735276.56346  22009994.439    22009995.216    22010010.458
       229.000         182.000
  -3948787.09349  -3069032.27847  19909059.457    19909059.325    19909069.366
       237.000         206.000
 -11197490.02649  -8706944.17347  20198798.239    20198798.166    20198810.834
       241.000         205.000
  -2075443.91849  -1608463.19447  19458494.031    19458493.641    19458504.831
       238.000         207.000
  -6471900.50449  -5030826.08146  22579001.426    22579001.648    22579017.783
       222.000         173.000
 01 12 19 20 53 59.9970000  0  7G27G 2G26G28G 7G 8G11
   1943760.18749   1514413.02346  21279092.543    21279092.200    21279106.898
       227.000         184.000
   -303759.35949   -234890.81047  21186670.456    21186669.977    21186682.957
       237.000         202.000
  -4889852.47249  -3795346.09046  21995324.769    21995325.513    21995340.649
       229.000         180.000
  -3978865.62449  -3092470.09547  19903335.693    19903335.583    19903345.613
       237.000         206.000
 -11294063.27249  -8782195.94247  20180420.865    20180420.794    20180433.438
       242.000         206.000
  -2076172.23549  -1609030.74047  19458355.515    19458355.081    19458366.264
       238.000         207.000
  -6516496.10849  -5065575.81946  22570515.203    22570515.346    22570531.436
       223.000         173.000
 01 12 19 20 54 29.9970000  0  7G27G 2G26G28G 7G 8G11
   1980933.82149   1543379.35446  21286166.524    21286166.196    21286180.930
       227.000         184.000
   -302406.39749   -233836.61247  21186928.038    21186927.492    21186940.478
       236.000         202.000
  -4966422.48849  -3855010.92246  21980753.814    21980754.590    21980769.722
       228.000         181.000
  -4008759.74649  -3115764.21347  19897647.040    19897646.918    19897656.937
       238.000         206.000
 -11390234.20949  -8857134.22647  20162119.992    20162119.978    20162132.625
       241.000         206.000
  -2076476.42849  -1609267.79647  19458297.616    19458297.230    19458308.396
       238.000         207.000
  -6560609.70449  -5099949.97846  22562120.599    22562120.773    22562136.869
       223.000         174.000
 01 12 19 20 54 59.9970000  0  7G27G 2G26G28G 7G 8G11
   2018465.17849   1572624.42646  21293308.612    21293308.266    21293323.053
       226.000         184.000
   -300946.63549   -232699.19647  21187205.860    21187205.319    21187218.306
       236.000         201.000
  -5042448.70949  -3914252.01546  21966286.391    21966287.185    21966302.319
       229.000         180.000
  -4038446.83049  -3138897.00047  19891997.748    19891997.654    19892007.656
       236.000         207.000
 -11485978.73149  -8931740.24547  20143900.301    20143900.310    20143912.953
       241.000         207.000
  -2076333.17549  -1609156.19847  19458324.908    19458324.529    19458335.663
       238.000         207.000
  -6604217.08349  -5133929.66846  22553822.279    22553822.473    22553838.554
       223.000         173.000
 01 12 19 20 55 29.9970000  0  7G27G 2G26G28G 7G 8G11
   2056334.05249   1602132.51046  21300514.924    21300514.569    21300529.417
       225.000         184.000
   -299399.29149   -231493.52847  21187500.327    21187499.811    21187512.802
       237.000         201.000
  -5117949.28749  -3973083.52646  21951919.015    21951919.806    21951934.849
       227.000         176.000
  -4067946.63049  -3161883.84447  19886384.064    19886383.998    19886394.022
       238.000         206.000
 -11581315.06749  -9006028.18747  20125758.307    20125758.316    20125770.950
       242.000         207.000
  -2075761.82749  -1608711.00947  19458433.643    19458433.272    19458444.417
       238.000         207.000
  -6647336.44149  -5167529.09646  22545616.828    22545617.069    22545633.168
       223.000         174.000
 01 12 19 20 55 59.9970000  0  7G27G 2G26G28G 7G 8G11
   2094514.84449   1631883.63146  21307780.601    21307780.221    21307795.112
       226.000         183.000
   -297788.97249   -230238.78247  21187806.796    21187806.310    21187819.264
       236.000         201.000
  -5192947.88649  -4031523.87546  21937647.163    21937647.921    21937662.878
       229.000         179.000
  -4097284.21349  -3184744.28947  19880801.308    19880801.236    19880811.277
       236.000         206.000
 -11676267.05649  -9080016.64747  20107689.514    20107689.473    20107702.087
       242.000         207.000
  -2074786.75449  -1607951.23147  19458619.203    19458618.849    19458630.001
       238.000         207.000
  -6689991.86549  -5200766.98546  22537499.810    22537500.000    22537516.063
       225.000         174.000
 01 12 19 20 56 29.9970000  0  7G27G 2G26G28G 7G 8G11
   2133017.20949   1661885.33146  21315107.460    21315107.074    21315121.994
       224.000         182.000
   -296104.89349   -228926.55547  21188127.306    21188126.830    21188139.750
       237.000         202.000
  -5267432.56849  -4089563.76246  21923472.997    21923473.823    21923488.781
       229.000         181.000
  -4126449.37249  -3207470.37547  19875251.322    19875251.291    19875261.317
       237.000         207.000
 -11770823.04149  -9153696.52947  20089696.033    20089695.987    20089708.580
       241.000         207.000
  -2073397.40049  -1606868.62947  19458883.602    19458883.243    19458894.425
       238.000         207.000
  -6732171.67449  -5233634.28246  22529473.144    22529473.383    22529489.454
       224.000         174.000
 01 12 19 20 56 59.9970000  0  7G27G 2G26G28G 7G 8G11
   2171831.27749   1692129.93346  21322493.625    21322493.245    21322508.184
       225.000         180.000
   -294356.26549   -227564.03447  21188460.172    21188459.665    21188472.540
       237.000         201.000
  -5341411.36949  -4147209.46346  21909395.285    21909396.053    21909410.964
       230.000         183.000
  -4155451.58249  -3230069.48947  19869732.424    19869732.356    19869742.411
       238.000         207.000
 -11864991.14949  -9227074.16747  20071776.396    20071776.314    20071788.882
       240.000         207.000
  -2071602.66949  -1605470.15047  19459225.163    19459224.800    19459235.985
       238.000         207.000
  -6773883.95649  -5266137.26046  22521535.573    22521535.773    22521551.768
       224.000         173.000
 01 12 19 20 57 29.9960000  0  7G27G 2G26G28G 7G 8G11
   2210960.25749   1722619.91846  21329939.709    21329939.323    21329954.311
       224.000         180.000
   -292537.82449   -226147.10647  21188806.249    21188805.746    21188818.638
       236.000         201.000
  -5414875.45049  -4204454.07146  21895415.433    21895416.187    21895431.073
       229.000         180.000
  -4184284.91549  -3252537.00747  19864245.698    19864245.561    19864255.611
       236.000         207.000
 -11958761.97949  -9300142.23947  20053932.275    20053932.232    20053944.794
       241.000         208.000
  -2069397.31949  -1603751.70247  19459644.818    19459644.485    19459655.700
       238.000         207.000
  -6815121.27049  -5298270.14546  22513688.254    22513688.490    22513704.495
       223.000         175.000
 01 12 19 20 57 59.9960000  0  7G27G 2G26G28G 7G 8G11
   2250406.05549   1753356.76546  21337446.074    21337445.699    21337460.693
       223.000         180.000
   -290649.17749   -224675.47147  21189165.586    21189165.143    21189178.107
       237.000         201.000
  -5487828.41549  -4261300.41946  21881532.785    21881533.568    21881548.455
       230.000         182.000
  -4212951.66649  -3274874.72547  19858790.567    19858790.447    19858800.496
       237.000         207.000
 -12052140.57449  -9372904.67547  20036162.799    20036162.794    20036175.361
       241.000         208.000
  -2066781.09049  -1601713.08647  19460142.688    19460142.356    19460153.596
       239.000         207.000
  -6855885.12949  -5330034.09446  22505931.029    22505931.286    22505947.261
       225.000         174.000
 01 12 19 20 58 29.9960000  0  7G27G 2G26G28G 7G 8G11
   2290166.96349   1784339.14546  21345012.389    21345012.025    21345027.067
       223.000         180.000
   -288689.47549   -223148.46147  21189538.545    21189538.115    21189551.083
       237.000         201.000
  -5560266.27249  -4317745.37346  21867748.271    21867749.029    21867763.883
       232.000         184.000
  -4241450.34049  -3297081.46747  19853367.468    19853367.337    19853377.360
       238.000         206.000
 -12145122.40949  -9445357.95047  20018468.871    20018468.859    20018481.413
       241.000         208.000
  -2063753.18649  -1599353.68247  19460718.887    19460718.562    19460729.818
       239.000         207.000
  -6896172.58149  -5361426.82646  22498264.561    22498264.821    22498280.749
       224.000         174.000
 01 12 19 20 58 59.9960000  0  7G27G 2G26G28G 7G 8G11
   2330240.88649   1815565.44146  21352638.302    21352637.962    21352653.002
       223.000         180.000
   -286659.98349   -221567.07347  21189924.786    21189924.338    21189937.303
       237.000         201.000
  -5632189.16049  -4373789.08546  21854061.780    21854062.486    21854077.352
       230.000         185.000
  -4269782.95549  -3319158.81747  19847975.966    19847975.817    19847985.813
       238.000         206.000
 -12237707.86849  -9517502.35947  20000850.384    20000850.359    20000862.889
       240.000         208.000
  -2060314.98449  -1596674.56547  19461373.194    19461372.864    19461384.104
       238.000         207.000
  -6935984.38449  -5392448.92646  22490688.603    22490688.854    22490704.686
       226.000         173.000
 01 12 19 20 59 29.9960000  0  7G27G 2G26G28G 7G 8G11
   2370642.32649   1847046.94146  21360326.529    21360326.217    21360341.289
       224.000         180.000
   -284545.32549   -219919.31547  21190327.197    21190326.783    21190339.726
       237.000         201.000
  -5703580.82949  -4429418.83346  21840476.309    21840477.037    21840491.949
       229.000         185.000
  -4297934.52949  -3341095.08947  19842618.821    19842618.743    19842628.737
       237.000         207.000
 -12329880.75049  -9589325.27547  19983310.375    19983310.365    19983322.875
       240.000         208.000
  -2056451.20249  -1593663.83147  19462108.470    19462108.126    19462119.387
       239.000         207.000
  -6975304.52249  -5423087.90846  22483206.156    22483206.381    22483222.213
       226.000         175.000
 01 12 19 20 59 59.9960000  0  7G27G 2G26G28G 7G 8G11
   2411355.86549   1878771.62146  21368074.168    21368073.849    21368088.947
       224.000         180.000
   -282359.76049   -218216.31247  21190743.110    21190742.698    21190755.684
       236.000         202.000
  -5774454.53849  -4484644.99046  21826989.357    21826990.101    21827005.053
       229.000         184.000
  -4325919.69249  -3362901.69047  19837293.434    19837293.333    19837303.328
       237.000         207.000
 -12421654.44249  -9660837.13647  19965846.315    19965846.329    19965858.835
       241.000         208.000
  -2052176.08349  -1590332.58547  19462922.024    19462921.688    19462932.928
       238.000         207.000
  -7014146.34849  -5453354.19646  22475814.707    22475814.963    22475830.788
       226.000         175.000
 01 12 19 21  0 29.9960000  0  7G27G 2G26G28G 7G 8G11
   2452383.10549   1910740.75946  21375881.517    21375881.181    21375896.299
       225.000         179.000
   -280100.74449   -216456.06447  21191172.951    21191172.613    21191185.571
       237.000         201.000
  -5844806.77949  -4539464.79746  21813601.601    21813602.403    21813617.411
       230.000         184.000
  -4353736.14249  -3384576.83847  19832000.105    19832000.020    19832010.000
       238.000         206.000
 -12513025.46449  -9732035.22847  19948458.922    19948458.911    19948471.422
       241.000         208.000
  -2047487.11249  -1586678.85447  19463814.283    19463813.960    19463825.235
       238.000         207.000
  -7052506.37349  -5483245.05046  22468515.068    22468515.264    22468531.003
       225.000         174.000
 01 12 19 21  0 59.9960000  0  7G27G 2G26G28G 7G 8G11
   2493758.62249   1942981.26946  21383755.201    21383754.830    21383769.903
       226.000         180.000
   -277732.34249   -214610.57647  21191623.683    21191623.340    21191636.308
       236.000         202.000
  -5914601.03149  -4593849.83246  21800320.184    21800320.928    21800335.891
       232.000         186.000
  -4381348.73149  -3406093.12747  19826745.569    19826745.496    19826755.453
       236.000         206.000
 -12603957.47449  -9802891.23447  19931155.035    19931155.044    19931167.536
       240.000         208.000
  -2042348.60149  -1582674.83447  19464792.077    19464791.787    19464803.079
       238.000         207.000
  -7090348.49549  -5512732.35546  22461313.887    22461314.110    22461329.832
       226.000         175.000
 01 12 19 21  1 29.9960000  0  7G27G 2G26G28G 7G 8G11
   2535453.27749   1975470.47446  21391689.641    21391689.200    21391704.269
       225.000         179.000
   -275282.87949   -212701.92647  21192089.824    21192089.483    21192102.500
       235.000         201.000
  -5983864.53049  -4647821.28046  21787139.767    21787140.461    21787155.334
       230.000         185.000
  -4408786.12449  -3427472.90447  19821524.429    19821524.325    19821534.285
       237.000         206.000
 -12694477.90049  -9873426.52547  19913929.491    19913929.495    19913941.965
       240.000         208.000
  -2036789.02049  -1578342.70547  19465850.032    19465849.739    19465861.038
       238.000         206.000
  -7127700.26649  -5541837.56346  22454206.040    22454206.238    22454221.901
       225.000         174.000
 01 12 19 21  1 59.9960000  0  7G27G 2G26G28G 7G 8G11
   2577452.75049   2008197.21846  21399682.021    21399681.563    21399696.642
       226.000         179.000
   -272765.35449   -210740.23747  21192568.959    21192568.588    21192581.608
       237.000         201.000
  -6052609.83849  -4701388.94246  21774057.850    21774058.571    21774073.428
       230.000         185.000
  -4436062.00149  -3448726.81947  19816333.995    19816333.887    19816343.841
       236.000         206.000
 -12784599.26649  -9943650.86147  19896779.877    19896779.884    19896792.327
       240.000         208.000
  -2030821.80649  -1573692.94147  19466985.495    19466985.256    19466996.557
       238.000         206.000
  -7164574.27649  -5570570.51146  22447189.062    22447189.270    22447204.899
       224.000         175.000
 01 12 19 21  2 29.9960000  0  7G27G 2G26G28G 7G 8G11
   2619787.06349   2041184.84646  21407738.136    21407737.625    21407752.750
       225.000         179.000
   -270148.52549   -208701.17547  21193066.893    21193066.572    21193079.622
       236.000         201.000
  -6120805.09849  -4754527.99546  21761080.524    21761081.318    21761096.184
       230.000         184.000
  -4463145.62049  -3469830.92647  19811180.133    19811180.029    19811189.971
       237.000         206.000
 -12874289.71749 -10013539.42847  19879712.212    19879712.264    19879724.706
       240.000         208.000
  -2024415.85649  -1568701.31647  19468204.520    19468204.270    19468215.588
       238.000         206.000
  -7200938.81149  -5598906.44946  22440269.098    22440269.337    22440284.904
       225.000         175.000
 01 12 19 21  2 59.9960000  0  7G27G 2G26G28G 7G 8G11
   2662452.64549   2074430.61046  21415857.210    21415856.738    21415871.909
       225.000         179.000
   -267435.00549   -206586.76947  21193583.353    21193582.975    21193596.061
       236.000         201.000
  -6188451.84949  -4807239.65446  21748207.580    21748208.416    21748223.227
       229.000         182.000
  -4490040.08649  -3490787.63547  19806062.315    19806062.171    19806072.131
       237.000         206.000
 -12963551.08549 -10083093.64047  19862726.297    19862726.305    19862738.721
       240.000         208.000
  -2017574.04649  -1563370.05947  19469506.516    19469506.235    19469517.543
       238.000         206.000
  -7236795.71149  -5626846.82846  22433445.781    22433446.001    22433461.516
       226.000         176.000
 01 12 19 21  3 29.9960000  0  7G27G 2G26G28G 7G 8G11
   2705440.28649   2107927.32946  21424037.540    21424037.129    21424052.367
       223.000         179.000
   -264633.02649   -204403.43947  21194116.650    21194116.232    21194129.298
       237.000         201.000
  -6255557.53149  -4859529.69146  21735437.619    21735438.497    21735453.322
       231.000         185.000
  -4516753.88349  -3511603.57347  19800978.838    19800978.705    19800988.650
       237.000         207.000
 -13052390.80049 -10152319.30247  19845820.585    19845820.587    19845832.968
       240.000         208.000
  -2010304.46349  -1557705.47947  19470889.873    19470889.598    19470900.899
       238.000         207.000
  -7272152.55649  -5654397.55946  22426717.517    22426717.779    22426733.334
       224.000         175.000
 01 12 19 21  3 59.9960000  0  7G27G 2G26G28G 7G 8G11
   2748734.96549   2141663.29046  21432276.411    21432275.954    21432291.253
       222.000         180.000
   -261756.19749   -202161.77347  21194664.151    21194663.711    21194676.773
       236.000         200.000
  -6322135.39349  -4911408.46046  21722768.223    21722769.055    21722783.825
       232.000         184.000
  -4543301.12549  -3532289.72247  19795927.043    19795926.923    19795936.888
       237.000         207.000
 -13140822.13249 -10221226.74047  19828992.597    19828992.579    19829004.955
       241.000         208.000
  -2002621.26049  -1551718.59047  19472351.988    19472351.663    19472362.985
       238.000         206.000
  -7307022.78849  -5681569.10546  22420081.835    22420082.117    22420097.697
       223.000         174.000
 01 12 19 21  4 29.9960000  0  7G27G 2G26G28G 7G 8G11
   2792342.83949   2175643.30246  21440574.834    21440574.382    21440589.718
       224.000         181.000
   -258797.14649   -199856.04147  21195227.346    21195226.857    21195239.907
       236.000         200.000
  -6388177.18849  -4962869.52546  21710200.868    21710201.637    21710216.343
       230.000         183.000
  -4569675.01649  -3552840.79547  19790908.218    19790908.133    19790918.083
       237.000         206.000
 -13228836.95549 -10289809.63347  19812243.843    19812243.839    19812256.194
       240.000         208.000
  -1994517.28949  -1545403.84447  19473894.121    19473893.815    19473905.143
       238.000         206.000
  -7341398.56149  -5708355.37346  22413540.317    22413540.550    22413556.107
       225.000         174.000
 01 12 19 21  4 59.9960000  0  7G27G 2G26G28G 7G 8G11
   2836263.58049   2209867.10746  21448932.814    21448932.331    21448947.750
       224.000         180.000
   -255755.17549   -197485.69547  21195806.130    21195805.711    21195818.817
       235.000         200.000
  -6453681.70949  -5013911.90246  21697735.650    21697736.432    21697751.158
       231.000         186.000
  -4595875.29049  -3573256.59247  19785922.425    19785922.370    19785932.317
       237.000         206.000
 -13316434.09849 -10358067.05647  19795574.664    19795574.603    19795586.926
       241.000         208.000
  -1985992.17749  -1538760.93447  19475516.383    19475516.106    19475527.438
       239.000         206.000
  -7375278.44149  -5734755.22946  22407093.112    22407093.367    22407108.899
       224.000         173.000
 01 12 19 21  5 29.9960000  0  7G27G 2G26G28G 7G 8G11
   2880493.63549   2244331.93046  21457349.655    21457349.164    21457364.640
       223.000         179.000
   -252632.49649   -195052.46947  21196400.319    21196399.952    21196413.072
       236.000         200.000
  -6518650.55749  -5064536.88347  21685372.448    21685373.188    21685387.907
       232.000         188.000
  -4621904.66849  -3593539.22347  19780969.232    19780969.155    19780979.099
       238.000         207.000
 -13403615.13749 -10426000.24847  19778984.625    19778984.551    19778996.833
       241.000         208.000
  -1977048.57949  -1531791.94047  19477218.303    19477218.037    19477229.361
       238.000         206.000
  -7408664.60149  -5760770.36746  22400739.963    22400740.175    22400755.619
       224.000         174.000
 01 12 19 21  5 59.9960000  0  7G27G 2G26G28G 7G 8G11
   2925042.39749   2279045.08346  21465827.050    21465826.637    21465842.168
       224.000         180.000
   -249418.34549   -192547.96147  21197011.978    21197011.619    21197024.712
       236.000         199.000
  -6583072.42649  -5114735.64647  21673113.447    21673114.109    21673128.753
       234.000         188.000
  -4647752.98049  -3613680.76547  19776050.487    19776050.376    19776060.336
       238.000         207.000
 -13490368.90049 -10493600.49547  19762475.868    19762475.794    19762488.071
       240.000         208.000
  -1967676.00349  -1524488.67347  19479001.893    19479001.599    19479012.917
       239.000         206.000
  -7441546.05449  -5786392.20346  22394482.777    22394482.995    22394498.388
       224.000         174.000
 01 12 19 21  6 29.9960000  0  7G27G 2G26G28G 7G 8G11
   2969920.03049   2314014.52546  21474367.076    21474366.674    21474382.255
       223.000         178.000
   -246101.48849   -189963.42747  21197643.166    21197642.810    21197655.934
       235.000         200.000
  -6646935.48149  -5164498.98446  21660960.692    21660961.330    21660975.896
       231.000         185.000
  -4673409.13849  -3633672.57647  19771168.275    19771168.164    19771178.123
       237.000         206.000
 -13576683.55449 -10560858.57847  19746050.678    19746050.589    19746062.857
       240.000         208.000
  -1957863.41349  -1516842.54147  19480869.242    19480868.908    19480880.208
       239.000         206.000
  -7473911.05949  -5811611.63846  22388323.839    22388324.077    22388339.508
       223.000         175.000
 01 12 19 21  6 59.9960000  0  7G27G 2G26G28G 7G 8G11
   3015114.09549   2349230.53846  21482967.242    21482966.917    21482982.524
       223.000         177.000
   -242693.20149   -187307.65347  21198291.768    21198291.425    21198304.521
       237.000         200.000
  -6710250.52449  -5213835.30146  21648912.092    21648912.763    21648927.337
       231.000         186.000
  -4698885.00249  -3653523.89947  19766320.394    19766320.256    19766330.193
       237.000         206.000
 -13662569.88149 -10627782.90547  19729706.956    19729706.887    19729719.140
       241.000         208.000
  -1947622.44549  -1508862.61747  19482818.052    19482817.724    19482829.025
       238.000         206.000
  -7505770.58549  -5836437.19546  22382261.099    22382261.361    22382276.776
       224.000         174.000
 01 12 19 21  7 29.9960000  0  7G27G 2G26G28G 7G 8G11
   3060624.15649   2384692.78646  21491627.566    21491627.288    21491642.927
       221.000         174.000
   -239192.49949   -184579.87247  21198958.073    21198957.630    21198970.719
       236.000         199.000
  -6773016.19249  -5262743.52047  21636968.166    21636968.810    21636983.345
       234.000         188.000
  -4724180.30649  -3673234.52147  19761506.740    19761506.718    19761516.621
       237.000         206.000
 -13748026.60549 -10694372.47447  19713444.988    19713444.943    19713457.166
       240.000         208.000
  -1936952.73249  -1500548.60547  19484848.521    19484848.143    19484859.443
       239.000         206.000
  -7537123.39149  -5860867.92446  22376294.783    22376295.040    22376310.521
       224.000         174.000
 01 12 19 21  7 59.9960000  0  7G27G 2G26G28G 7G 8G11
   3106439.85649   2420393.19246  21500346.154    21500345.843    21500361.471
       223.000         174.000
   -235608.41749   -181787.12847  21199640.101    21199639.691    21199652.786
       237.000         199.000
  -6835241.01249  -5311230.31546  21625127.188    21625127.793    21625142.271
       232.000         186.000
  -4749304.54649  -3692811.86147  19756725.801    19756725.739    19756735.604
       238.000         206.000
 -13833062.23949 -10760633.92247  19697263.207    19697263.115    19697275.318
       240.000         208.000
  -1925863.66949  -1491907.82947  19486958.743    19486958.361    19486969.661
       239.000         206.000
  -7567978.17649  -5884910.58046  22370423.274    22370423.522    22370438.961
       224.000         175.000
 01 12 19 21  8 29.9960000  0  7G27G 2G26G28G 7G 8G11
   3152566.61549   2456335.98446  21509123.946    21509123.612    21509139.206
       222.000         174.000
   -231934.17649   -178924.13247  21200339.373    21200338.917    21200351.988
       236.000         199.000
  -6896917.64849  -5359289.93646  21613390.395    21613391.030    21613405.502
       231.000         185.000
  -4774251.25249  -3712250.84347  19751978.592    19751978.550    19751988.388
       237.000         206.000
 -13917669.50449 -10826561.57147  19681162.897    19681162.819    19681174.997
       240.000         208.000
  -1914348.98349  -1482935.39847  19489149.933    19489149.562    19489160.893
       239.000         206.000
  -7598327.99549  -5908559.76046  22364647.898    22364648.127    22364663.526
       225.000         174.000
 01 12 19 21  8 59.9960000  0  7G27G 2G26G28G 7G 8G11
   3198994.22649   2492513.20346  21517958.906    21517958.582    21517974.192
       221.000         174.000
   -228178.66349   -175997.81147  21201054.062    21201053.600    21201066.669
       236.000         199.000
  -6958054.88949  -5406929.26247  21601756.281    21601756.922    21601771.354
       235.000         188.000
  -4799029.80249  -3731558.81747  19747263.432    19747263.346    19747273.163
       238.000         206.000
 -14001856.99549 -10892162.12747  19665142.475    19665142.412    19665154.522
       240.000         208.000
  -1902417.98849  -1473638.57447  19491420.359    19491419.983    19491431.336
       238.000         206.000
  -7628181.68049  -5931822.36846  22358966.954    22358967.149    22358982.487
       224.000         175.000
 01 12 19 21  9 29.9960000  0  7G27G 2G26G28G 7G 8G11
   3245731.74449   2528931.89746  21526852.847    21526852.532    21526868.177
       222.000         175.000
   -224331.66849   -173000.20547  21201786.143    21201785.700    21201798.800
       236.000         199.000
  -7018641.80749  -5454139.76047  21590227.034    21590227.613    21590241.946
       234.000         188.000
  -4823630.35549  -3750728.07147  19742582.077    19742582.002    19742591.832
       238.000         206.000
 -14085613.99949 -10957427.22747  19649203.998    19649203.934    19649215.986
       240.000         208.000
  -1890060.66549  -1464009.53847  19493771.912    19493771.525    19493782.897
       238.000         206.000
  -7657528.65249  -5954690.14546  22353382.362    22353382.540    22353397.883
       225.000         175.000
 01 12 19 21  9 59.9960000  0  7G27G 2G26G28G 7G 8G11
   3292787.05549   2565598.20746  21535807.307    21535806.990    21535822.654
       223.000         175.000
   -220383.92849   -169924.10547  21202537.425    21202536.970    21202550.082
       236.000         199.000
  -7078669.00549  -5500914.12547  21578804.200    21578804.781    21578819.034
       233.000         188.000
  -4848044.21049  -3769751.85547  19737936.316    19737936.218    19737946.027
       238.000         207.000
 -14168930.89049 -11022349.38847  19633349.318    19633349.211    19633361.224
       241.000         208.000
  -1877268.45549  -1454041.64747  19496206.228    19496205.828    19496217.219
       238.000         206.000
  -7686359.65149  -5977155.86946  22347895.990    22347896.154    22347911.481
       224.000         174.000
 01 12 19 21 10 29.9960000  0  7G27G 2G26G28G 7G 8G11
   3340143.52349   2602499.21646  21544819.084    21544818.739    21544834.441
       222.000         176.000
   -216350.34149   -166781.10747  21203305.086    21203304.595    21203317.726
       236.000         199.000
  -7138151.20449  -5547263.81547  21567485.125    21567485.674    21567499.872
       231.000         188.000
  -4872286.94149  -3788642.28947  19733323.139    19733322.987    19733332.780
       238.000         207.000
 -14251822.64949 -11086940.27147  19617575.470    19617575.376    19617587.345
       240.000         208.000
  -1864057.01949  -1443747.08447  19498720.274    19498719.915    19498731.333
       238.000         206.000
  -7714689.70749  -5999231.26446  22342505.023    22342505.100    22342520.450
       224.000         176.000
 01 12 19 21 10 59.9960000  0  7G27G 2G26G28G 7G 8G11
   3387810.72249   2639642.33946  21553889.891    21553889.597    21553905.338
       222.000         176.000
   -212220.00049   -163562.72947  21204091.099    21204090.614    21204103.782
       236.000         199.000
  -7197077.31449  -5593180.16847  21556271.756    21556272.343    21556286.606
       232.000         191.000
  -4896348.10449  -3807391.23647  19728744.441    19728744.314    19728754.086
       238.000         207.000
 -14334277.77149 -11151190.91547  19601884.680    19601884.610    19601896.552
       240.000         208.000
  -1850415.79349  -1433117.61547  19501316.060    19501315.769    19501327.224
       237.000         205.000
  -7742507.42049  -6020907.45246  22337211.425    22337211.563    22337226.916
       223.000         174.000
 01 12 19 21 11 29.9960000  0  7G27G 2G26G28G 7G 8G11
   3435798.25649   2677035.07046  21563021.748    21563021.415    21563037.206
       223.000         174.000
   -207982.00249   -160260.46347  21204897.656    21204897.140    21204910.312
       235.000         199.000
  -7255436.03549  -5638654.40847  21545166.518    21545167.061    21545181.278
       234.000         192.000
  -4920217.30149  -3825990.60847  19724202.287    19724202.147    19724211.904
       238.000         207.000
 -14416285.18049 -11215092.69947  19586279.108    19586279.052    19586290.949
       241.000         208.000
  -1836334.38349  -1422145.14547  19503995.705    19503995.394    19504006.862
       238.000         205.000
  -7769802.09249  -6042176.05746  22332017.464    22332017.571    22332032.872
       225.000         174.000
 01 12 19 21 11 59.9960000  0  7G27G 2G26G28G 7G 8G11
   3484089.76449   2714664.65046  21572211.421    21572211.085    21572226.934
       221.000         174.000
   -203651.27549   -156885.95047  21205721.842    21205721.296    21205734.481
       235.000         198.000
  -7313242.14549  -5683698.05147  21534166.424    21534166.926    21534181.122
       233.000         190.000
  -4943909.96749  -3844452.42147  19719693.751    19719693.590    19719703.341
       239.000         207.000
 -14497859.58049 -11278657.06647  19570755.967    19570755.897    19570767.750
       240.000         208.000
  -1821828.48949  -1410841.89947  19506756.097    19506755.799    19506767.296
       238.000         205.000
  -7796588.68949  -6063048.77146  22326920.071    22326920.236    22326935.473
       223.000         174.000
 01 12 19 21 12 29.9960000  0  7G27G 2G26G28G 7G 8G11
   3532689.55549   2752534.44646  21581459.817    21581459.414    21581475.316
       220.000         174.000
   -199221.88049   -153434.54847  21206564.674    21206564.190    21206577.412
       234.000         197.000
  -7370489.49449  -5728306.27246  21523272.433    21523273.009    21523287.278
       230.000         186.000
  -4967420.63649  -3862772.41547  19715219.765    19715219.646    19715229.391
       239.000         207.000
 -14578994.67949 -11341879.12647  19555316.406    19555316.333    19555328.140
       240.000         208.000
  -1806892.78649  -1399203.74247  19509598.311    19509598.006    19509609.515
       237.000         205.000
  -7822860.89849  -6083520.66846  22321920.503    22321920.727    22321936.038
       221.000         173.000
 01 12 19 21 12 59.9960000  0  7G27G 2G26G28G 7G 8G11
   3581584.26649   2790634.07146  21590764.314    21590763.875    21590779.843
       220.000         172.000
   -194705.88249   -149915.67147  21207424.052    21207423.593    21207436.822
       234.000         196.000
  -7427189.85149  -5772488.29546  21512482.627    21512483.212    21512497.360
       234.000         185.000
  -4990761.66249  -3880960.21347  19710778.078    19710778.000    19710787.749
       238.000         207.000
 -14659702.20049 -11404768.00647  19539958.210    19539958.145    19539969.912
       240.000         209.000
  -1791539.73349  -1387240.37647  19512519.931    19512519.632    19512531.149
       237.000         204.000
  -7848630.98149  -6103601.28446  22317016.672    22317016.846    22317032.160
       222.000         173.000
 01 12 19 21 13 29.9960000  0  7G27G 2G26G28G 7G 8G11
   3630794.21749   2828979.30946  21600128.776    21600128.324    21600144.390
       220.000         171.000
   -190081.49249   -146312.33047  21208304.045    21208303.618    21208316.827
       234.000         196.000
  -7483321.20149  -5816226.97146  21501801.187    21501801.755    21501815.673
       232.000         185.000
  -5013911.68449  -3898999.18547  19706372.774    19706372.692    19706382.437
       238.000         207.000
 -14739960.14549 -11467306.56847  19524685.614    19524685.507    19524697.234
       240.000         208.000
  -1775747.99349  -1374935.17047  19515524.986    19515524.716    19515536.268
       237.000         204.000
  -7873877.06349  -6123273.58546  22312212.543    22312212.689    22312228.046
       224.000         175.000
 01 12 19 21 13 59.9960000  0  7G27G 2G26G28G 7G 8G11
   3680291.92449   2867548.77846  21609547.973    21609547.540    21609563.663
       221.000         172.000
   -185374.53949   -142644.65447  21209199.804    21209199.364    21209212.571
       233.000         196.000
  -7538909.44849  -5859542.41347  21491222.973    21491223.573    21491237.444
       231.000         188.000
  -5036897.16949  -3916909.94547  19701998.792    19701998.701    19702008.436
       238.000         207.000
 -14819794.33749 -11529514.93747  19509493.618    19509493.500    19509505.170
       241.000         208.000
  -1759544.39649  -1362309.03747  19518608.448    19518608.174    19518619.774
       237.000         204.000
  -7898625.37349  -6142558.02246  22307503.164    22307503.262    22307518.655
       224.000         176.000
 01 12 19 21 14 29.9960000  0  7G27G 2G26G28G 7G 8G11
   3730070.62149   2906337.19446  21619020.793    21619020.239    21619036.395
       220.000         170.000
   -180590.34449   -138916.79947  21210110.239    21210109.796    21210123.045
       234.000         195.000
  -7593959.79749  -5902438.68847  21480747.131    21480747.751    21480761.721
       231.000         188.000
  -5059723.89949  -3934697.00447  19697655.060    19697654.917    19697664.636
       239.000         207.000
 -14899209.87549 -11591397.09147  19494381.247    19494381.169    19494392.781
       240.000         208.000
  -1742934.77149  -1349366.52747  19521769.218    19521768.900    19521780.520
       237.000         203.000
  -7922881.22549  -6161458.71046  22302887.511    22302887.592    22302902.959
       226.000         176.000
 01 12 19 21 14 59.9960000  0  7G27G 2G26G28G 7G 8G11
   3780141.52349   2945353.31546  21628549.158    21628548.545    21628564.687
       223.000         170.000
   -175716.15649   -135118.82347  21211037.856    21211037.376    21211050.639
       235.000         195.000
  -7648459.60149  -5944905.98647  21470376.123    21470376.723    21470390.774
       232.000         191.000
  -5082379.63749  -3952350.81947  19693343.797    19693343.671    19693353.405
       239.000         208.000
 -14978193.83449 -11652942.94147  19479351.030    19479350.956    19479362.528
       240.000         208.000
  -1725907.05249  -1336098.21947  19525009.503    19525009.202    19525020.827
       237.000         204.000
  -7946631.99049  -6179965.84946  22298367.926    22298367.986    22298383.411
       224.000         176.000
 01 12 19 21 15 29.9960000  0  7G27G 2G26G28G 7G 8G11
   3830511.16149   2984602.21346  21638134.383    21638133.705    21638149.840
       221.000         171.000
   -170743.84849   -131244.38947  21211984.086    21211983.636    21211996.881
       233.000         195.000
  -7702400.48349  -5986937.76446  21460111.450    21460112.060    21460126.177
       231.000         187.000
  -5104856.63149  -3969865.35747  19689066.619    19689066.470    19689076.191
       239.000         207.000
 -15056738.10149 -11714146.17947  19464404.424    19464404.401    19464415.960
       240.000         208.000
  -1708453.93449  -1322498.43547  19528330.817    19528330.459    19528342.090
       237.000         204.000
  -7969869.52249  -6198073.05746  22293945.950    22293946.031    22293961.471
       225.000         174.000
 01 12 19 21 15 59.9960000  0  7G27G 2G26G28G 7G 8G11
   3881188.16449   3024090.61446  21647778.043    21647777.372    21647793.506
       221.000         171.000
   -165663.23849   -127285.57447  21212951.000    21212950.511    21212963.783
       233.000         195.000
  -7755772.46949  -6028526.26646  21449955.052    21449955.673    21449969.690
       233.000         187.000
  -5127145.19649  -3987233.07147  19684825.185    19684825.084    19684834.815
       239.000         208.000
 -15134832.18849 -11774998.62647  19449543.525    19449543.499    19449555.050
       239.000         208.000
  -1690566.07049  -1308559.88747  19531734.828    19531734.447    19531746.095
       237.000         204.000
  -7992584.05349  -6215772.73646  22289623.531    22289623.617    22289639.069
       224.000         173.000
 01 12 19 21 16 29.9960000  0  7G27G 2G26G28G 7G 8G11
   3932155.19949   3063804.99846  21657476.852    21657476.222    21657492.409
       221.000         171.000
   -160490.09049   -123254.65247  21213935.557    21213935.012    21213948.245
       233.000         195.000
  -7808591.20049  -6069683.65147  21439904.026    21439904.602    21439918.482
       234.000         189.000
  -5149261.67349  -4004466.68747  19680616.517    19680616.461    19680626.198
       239.000         208.000
 -15212491.93949 -11835512.63147  19434765.297    19434765.263    19434776.807
       239.000         208.000
  -1672259.85849  -1294295.35247  19535218.414    19535218.048    19535229.730
       237.000         204.000
  -8014791.54349  -6233077.29546  22285397.576    22285397.669    22285413.060
       224.000         174.000
 01 12 19 21 16 59.9960000  0  7G27G 2G26G28G 7G 8G11
   3983426.74849   3103756.66946  21667233.641    21667233.005    21667249.256
       222.000         172.000
   -155208.45849   -119139.20647  21214940.576    21214940.107    21214953.389
       233.000         195.000
  -7860840.83749  -6110397.58146  21429961.136    21429961.746    21429975.663
       230.000         186.000
  -5171190.41849  -4021554.02247  19676443.638    19676443.557    19676453.281
       238.000         207.000
 -15289701.32749 -11895675.70847  19420072.746    19420072.731    19420084.262
       239.000         208.000
  -1653520.11649  -1279693.00847  19538784.532    19538784.147    19538795.838
       237.000         204.000
  -8036476.21449  -6249974.47046  22281271.235    22281271.259    22281286.645
       227.000         173.000
 01 12 19 21 17 29.9960000  0  7G27G 2G26G28G 7G 8G11
   4034996.94749   3143941.06046  21677047.302    21677046.568    21677062.936
       220.000         170.000
   -149822.39749   -114942.39247  21215965.600    21215965.096    21215978.416
       233.000         194.000
  -7912525.59649  -6150671.33846  21420125.644    21420126.309    21420140.239
       230.000         183.000
  -5192936.06449  -4038498.68047  19672305.510    19672305.481    19672315.193
       240.000         207.000
 -15366464.40249 -11955491.00847  19405465.164    19405465.139    19405476.656
       240.000         208.000
  -1634351.71049  -1264756.63747  19542432.186    19542431.809    19542443.503
       238.000         203.000
  -8057642.45649  -6266467.65946  22277243.577    22277243.533    22277258.863
       227.000         174.000
 01 12 19 21 17 59.9950000  0  7G27G 2G26G28G 7G 8G11
   4086844.85049   3184341.82546  21686913.690    21686913.018    21686929.474
       218.000         169.000
   -144349.89349   -110678.21747  21217007.021    21217006.540    21217019.873
       233.000         194.000
  -7963661.66549  -6190517.54847  21410394.790    21410395.403    21410409.216
       234.000         188.000
  -5214516.01549  -4055314.22347  19668198.976    19668198.949    19668208.666
       239.000         207.000
 -15442796.15649 -12014970.21647  19390939.632    19390939.626    19390951.140
       239.000         209.000
  -1614773.69049  -1249501.09147  19546157.839    19546157.424    19546169.118
       237.000         204.000
  -8078307.35049  -6282570.15046  22273311.195    22273311.172    22273326.416
       227.000         176.000
 01 12 19 21 18 29.9950000  0  7G27G 2G26G28G 7G 8G11
   4139001.71949   3224983.35446  21696838.856    21696838.234    21696854.745
       216.000         168.000
   -138760.95249   -106323.31847  21218070.655    21218070.126    21218083.488
       231.000         195.000
  -8014222.97349  -6229915.90246  21400773.220    21400773.830    21400787.642
       232.000         187.000
  -5235902.82649  -4071979.25647  19664129.170    19664129.158    19664138.874
       239.000         207.000
 -15518672.35449 -12074094.44847  19376500.826    19376500.802    19376512.317
       239.000         208.000
  -1594756.26349  -1233903.15247  19549967.070    19549966.664    19549978.355
       238.000         204.000
  -8098443.37349  -6298260.56046  22269479.516    22269479.490    22269494.727
       226.000         172.000
 01 12 19 21 18 59.9950000  0  7G27G 2G26G28G 7G 8G11
   4191444.76749   3265847.84846  21706818.435    21706817.914    21706834.506
       217.000         166.000
   -133075.11049   -101892.90947  21219152.600    21219152.131    21219165.551
       232.000         194.000
  -8064227.50049  -6268880.37447  21391257.566    21391258.208    21391272.115
       231.000         188.000
  -5257115.53049  -4088508.63347  19660092.575    19660092.539    19660102.201
       239.000         207.000
 -15594109.73049 -12132876.74347  19362145.542    19362145.476    19362156.994
       239.000         208.000
  -1574320.23549  -1217979.03047  19553855.948    19553855.547    19553867.255
       237.000         204.000
  -8118069.29949  -6313553.46246  22265744.856    22265744.822    22265760.060
       226.000         175.000
 01 12 19 21 19 29.9950000  0  7G27G 2G26G28G 7G 8G11
   4244189.40449   3306947.37246  21716855.462    21716855.017    21716871.638
       217.000         167.000
   -127275.52949    -97373.86947  21220256.268    21220255.823    21220269.274
       232.000         194.000
  -8113658.34749  -6307397.83547  21381851.108    21381851.752    21381865.688
       231.000         188.000
  -5278137.73949  -4104889.55547  19656092.187    19656092.133    19656101.787
       239.000         207.000
 -15669091.41849 -12191303.95547  19347876.900    19347876.859    19347888.380
       239.000         208.000
  -1553449.43849  -1201716.12747  19557827.587    19557827.174    19557838.887
       238.000         204.000
  -8137168.57249  -6328435.97446  22262110.413    22262110.354    22262125.640
       226.000         175.000
 01 12 19 21 19 59.9950000  0  7G27G 2G26G28G 7G 8G11
   4297229.21149   3348276.89046  21726948.904    21726948.331    21726964.939
       220.000         166.000
   -121366.93449    -92769.89347  21221380.615    21221380.221    21221393.751
       231.000         194.000
  -8162520.53749  -6345472.16446  21372552.739    21372553.465    21372567.432
       230.000         185.000
  -5298974.52549  -4121125.99347  19652127.107    19652127.025    19652136.687
       240.000         207.000
 -15743622.37449 -12249379.94947  19333694.073    19333694.005    19333705.528
       238.000         208.000
  -1532149.42649  -1185118.77347  19561880.905    19561880.473    19561892.191
       238.000         205.000
  -8155746.51849  -6342912.26646  22258575.030    22258575.062    22258590.406
       225.000         172.000
 01 12 19 21 20 29.9950000  0  7G27G 2G26G28G 7G 8G11
   4350548.69449   3389824.32646  21737095.499    21737094.862    21737111.518
       220.000         167.000
   -115363.06549    -88091.66147  21222523.166    21222522.785    21222536.321
       230.000         194.000
  -8210828.18949  -6383114.42647  21363360.123    21363360.798    21363374.639
       233.000         188.000
  -5319640.08149  -4137229.00547  19648194.583    19648194.505    19648204.141
       239.000         207.000
 -15817716.33749 -12307115.43047  19319594.394    19319594.332    19319605.828
       238.000         208.000
  -1510435.15849  -1168198.62547  19566013.051    19566012.632    19566024.337
       238.000         205.000
  -8173817.27949  -6356993.32646  22255136.224    22255136.294    22255151.643
       225.000         173.000
 01 12 19 21 20 59.9950000  0  7G27G 2G26G28G 7G 8G11
   4404133.32049   3431578.38346  21747292.448    21747291.849    21747308.493
       220.000         170.000
   -109276.93149    -83349.34047  21223681.415    21223680.993    21223694.605
       233.000         195.000
  -8258594.50349  -6420334.85146  21354270.456    21354271.104    21354284.867
       231.000         186.000
  -5340147.96349  -4153209.15047  19644292.064    19644291.975    19644301.622
       239.000         208.000
 -15891386.20749 -12364520.45547  19305575.449    19305575.371    19305586.849
       238.000         208.000
  -1488320.27049  -1150966.30347  19570221.448    19570221.009    19570232.736
       238.000         205.000
  -8191394.41249  -6370689.74246  22251791.469    22251791.487    22251806.780
       224.000         173.000
 01 12 19 21 21 29.9950000  0  7G27G 2G26G28G 7G 8G11
   4458012.81849   3473562.21046  21757545.459    21757544.910    21757561.591
       220.000         167.000
   -103076.99749    -78518.34047  21224861.441    21224860.927    21224874.530
       232.000         194.000
  -8305788.36049  -6457109.18646  21345289.636    21345290.317    21345304.088
       231.000         186.000
  -5360467.14949  -4169042.27347  19640425.508    19640425.380    19640435.008
       241.000         208.000
 -15964600.91649 -12421570.80747  19291643.133    19291643.031    19291654.478
       238.000         208.000
  -1465774.20549  -1133398.00147  19574511.882    19574511.459    19574523.183
       238.000         205.000
  -8208446.60849  -6383977.14546  22248546.491    22248546.546    22248561.869
       226.000         176.000
 01 12 19 21 21 59.9950000  0  7G27G 2G26G28G 7G 8G11
   4512186.09749   3515774.94646  21767854.333    21767853.889    21767870.668
       218.000         167.000
    -96762.33849    -73597.94447  21226063.197    21226062.656    21226076.305
       231.000         194.000
  -8352409.28749  -6493437.10147  21336417.850    21336418.563    21336432.294
       233.000         188.000
  -5380597.21949  -4184728.02647  19636594.892    19636594.765    19636604.365
       239.000         208.000
 -16037359.58049 -12478265.79547  19277797.624    19277797.464    19277808.908
       238.000         208.000
  -1442797.33349  -1115494.00447  19578884.306    19578883.877    19578895.602
       239.000         205.000
  -8224973.65649  -6396855.31846  22245401.416    22245401.532    22245416.870
       225.000         175.000
 01 12 19 21 22 29.9950000  0  7G27G 2G26G28G 7G 8G11
   4566626.83349   3558196.09746  21778214.302    21778213.772    21778230.584
       219.000         167.000
    -90357.69649    -68607.41447  21227282.030    21227281.489    21227295.170
       230.000         193.000
  -8398482.32349  -6529338.09147  21327650.533    21327651.156    21327664.832
       233.000         189.000
  -5400563.39149  -4200286.06447  19632795.409    19632795.323    19632804.915
       240.000         208.000
 -16109687.16549 -12534624.88347  19264034.088    19264033.928    19264045.367
       238.000         208.000
  -1419415.13649  -1097274.17447  19583333.842    19583333.410    19583345.154
       238.000         205.000
  -8241000.85049  -6409344.00146  22242351.526    22242351.628    22242366.930
       226.000         173.000
 01 12 19 21 22 59.9950000  0  7G27G 2G26G28G 7G 8G11
   4621341.35749   3600830.57746  21788626.237    21788625.732    21788642.608
       217.000         168.000
    -83855.08649    -63540.54947  21228519.524    21228518.980    21228532.684
       231.000         193.000
  -8443999.70849  -6564806.11646  21318988.875    21318989.469    21319003.019
       233.000         187.000
  -5420357.84049  -4215710.29547  19629028.640    19629028.549    19629038.153
       240.000         207.000
 -16181575.65449 -12590641.82347  19250354.093    19250353.945    19250365.409
       238.000         208.000
  -1395620.45049  -1078732.92547  19587861.857    19587861.444    19587873.203
       239.000         205.000
  -8256520.60349  -6421437.27746  22239398.267    22239398.363    22239413.522
       225.000         173.000
 01 12 19 21 23 29.9950000  0  7G27G 2G26G28G 7G 8G11
   4676313.71749   3643665.94946  21799087.151    21799086.780    21799103.737
       215.000         165.000
    -77268.68849    -58408.39347  21229772.946    21229772.408    21229786.158
       231.000         193.000
  -8488976.13349  -6599852.63646  21310430.176    21310430.722    21310444.136
       233.000         186.000
  -5439995.26849  -4231012.17947  19625291.793    19625291.697    19625301.241
       240.000         208.000
 -16253039.53449 -12646327.90147  19236754.898    19236754.779    19236766.228
       238.000         208.000
  -1371428.60849  -1059882.19747  19592465.487    19592465.057    19592476.829
       238.000         205.000
  -8271547.73449  -6433146.74646  22236538.603    22236538.757    22236553.964
       225.000         172.000
 01 12 19 21 23 59.9950000  0  7G27G 2G26G28G 7G 8G11
   4731551.54649   3686708.19046  21809598.723    21809598.350    21809615.402
       218.000         167.000
    -70589.00449    -53203.54947  21231044.154    21231043.588    21231057.411
       232.000         194.000
  -8533402.66149  -6634470.62546  21301976.041    21301976.595    21301989.944
       232.000         186.000
  -5459466.66949  -4246184.68647  19621586.497    19621586.396    19621595.925
       241.000         208.000
 -16324069.49049 -12701675.85147  19223238.285    19223238.173    19223249.601
       238.000         207.000
  -1346831.13149  -1040715.39947  19597146.298    19597145.863    19597157.624
       239.000         205.000
  -8286073.44349  -6444465.50246  22233774.285    22233774.543    22233789.781
       224.000         173.000
 01 12 19 21 24 29.9950000  0  7G27G 2G26G28G 7G 8G11
   4787039.30149   3729945.19646  21820157.953    21820157.467    21820174.519
       217.000         166.000
    -63829.72449    -47936.67147  21232330.467    21232329.931    21232343.792
       232.000         193.000
  -8577293.24849  -6668671.02646  21293623.744    21293624.383    21293637.761
       230.000         185.000
  -5478786.13749  -4261238.81047  19617910.156    19617910.033    19617919.541
       241.000         208.000
 -16394679.42649 -12756696.51547  19209801.607    19209801.477    19209812.906
       237.000         207.000
  -1321842.62249  -1021243.89447  19601901.492    19601901.067    19601912.832
       238.000         204.000
  -8300111.75249  -6455404.46446  22231102.879    22231103.119    22231118.385
       224.000         169.000
 01 12 19 21 24 59.9950000  0  7G27G 2G26G28G 7G 8G11
   4842816.54049   3773407.73846  21830772.170    21830771.686    21830788.803
       216.000         164.000
    -56949.60149    -42575.62947  21233639.804    21233639.270    21233653.159
       232.000         193.000
  -8620607.42349  -6702422.25346  21285381.073    21285381.797    21285395.307
       231.000         187.000
  -5497913.00049  -4276142.86447  19614270.468    19614270.305    19614279.808
       240.000         208.000
 -16464828.47449 -12811358.05147  19196452.621    19196452.514    19196463.903
       238.000         207.000
  -1296423.02049  -1001436.48247  19606738.708    19606738.302    19606750.093
       238.000         204.000
  -8313622.32749  -6465932.23446  22228531.871    22228532.096    22228547.408
       222.000         172.000
 01 12 19 21 25 29.9950000  0  7G27G 2G26G28G 7G 8G11
   4898870.77549   3817086.15945  21841439.171    21841438.595    21841455.731
       215.000         162.000
    -49959.27349    -37128.69947  21234970.059    21234969.554    21234983.470
       231.000         193.000
  -8663356.16349  -6735732.89547  21277246.338    21277246.984    21277260.470
       234.000         189.000
  -5516858.31349  -4290905.44847  19610665.298    19610665.134    19610674.649
       240.000         208.000
 -16534527.34649 -12865668.80047  19183189.346    19183189.212    19183200.573
       238.000         207.000
  -1270583.99649   -981302.24347  19611655.768    19611655.347    19611667.147
       238.000         204.000
  -8326616.34849  -6476057.46646  22226059.204    22226059.399    22226074.657
       222.000         168.000
 01 12 19 21 25 59.9950000  0  7G27G 2G26G28G 7G 8G11
   4955173.82049   3860958.44045  21852153.393    21852152.844    21852169.969
       218.000         161.000
    -42885.06249    -31616.40047  21236316.304    21236315.794    21236329.744
       232.000         193.000
  -8705566.46649  -6768623.98646  21269214.132    21269214.678    21269227.991
       235.000         187.000
  -5535648.96949  -4305547.52047  19607089.527    19607089.382    19607098.923
       240.000         208.000
 -16603802.91749 -12919649.69647  19170006.599    19170006.450    19170017.794
       238.000         207.000
  -1244353.03549   -960862.59947  19616647.376    19616646.967    19616658.798
       237.000         203.000
  -8339120.86849  -6485801.34946  22223679.687    22223679.854    22223695.168
       223.000         168.000
 01 12 19 21 26 29.9950000  0  7G27G 2G26G28G 7G 8G11
   5011748.28449   3905042.23245  21862919.287    21862918.772    21862935.884
       216.000         161.000
    -35702.46249    -26019.64047  21237683.230    21237682.673    21237696.651
       231.000         192.000
  -8747214.35349  -6801076.86646  21261288.827    21261289.354    21261302.393
       233.000         186.000
  -5554260.45549  -4320049.99047  19603547.873    19603547.732    19603557.267
       240.000         208.000
 -16672630.71649 -12973281.69147  19156909.032    19156908.916    19156920.243
       238.000         207.000
  -1217706.47049   -940099.11747  19621718.057    19621717.666    19621729.525
       237.000         202.000
  -8351112.14149  -6495145.27846  22221397.812    22221397.926    22221413.280
       221.000         168.000
 01 12 19 21 26 59.9950000  0  7G27G 2G26G28G 7G 8G11
   5068579.09449   3949325.77345  21873734.057    21873733.513    21873750.572
       213.000         158.000
    -28424.76449    -20348.78447  21239068.182    21239067.634    21239081.664
       232.000         193.000
  -8788313.92149  -6833102.46746  21253467.677    21253468.275    21253481.200
       230.000         184.000
  -5572707.01649  -4334423.95247  19600037.559    19600037.452    19600047.003
       239.000         208.000
 -16741024.71949 -13026575.66047  19143894.056    19143893.911    19143905.223
       238.000         207.000
  -1190659.26849   -919023.44947  19626864.929    19626864.607    19626876.498
       237.000         202.000
  -8362604.14949  -6504100.19346  22219210.985    22219211.087    22219226.394
       222.000         169.000
 01 12 19 21 27 29.9950000  0  7G27G 2G26G28G 7G 8G11
   5125680.61849   3993820.25945  21884600.364    21884599.729    21884616.855
       215.000         157.000
    -21035.63449    -14591.09047  21240474.357    21240473.825    21240487.916
       231.000         192.000
  -8828849.28949  -6864688.42746  21245753.765    21245754.471    21245767.488
       231.000         187.000
  -5590972.70549  -4348656.97247  19596561.705    19596561.594    19596571.169
       240.000         208.000
 -16808968.65749 -13079518.93147  19130964.687    19130964.578    19130975.850
       238.000         207.000
  -1163195.68449   -897623.32447  19632091.087    19632090.779    19632102.697
       237.000         202.000
  -8373581.26049  -6512653.92446  22217122.202    22217122.274    22217137.543
       224.000         170.000
 01 12 19 21 27 59.9950000  0  7G27G 2G26G28G 7G 8G11
   5183046.65549   4038520.84545  21895516.992    21895516.272    21895533.456
       214.000         159.000
    -13539.33549     -8749.89147  21241900.941    21241900.389    21241914.480
       233.000         192.000
  -8868825.63349  -6895838.78946  21238146.535    21238147.166    21238160.254
       231.000         187.000
  -5609062.06049  -4362752.60147  19593119.424    19593119.309    19593128.862
       240.000         208.000
 -16876467.37449 -13132115.27847  19118120.090    19118119.960    19118131.208
       238.000         207.000
  -1135321.40649   -875903.18847  19637395.460    19637395.117    19637407.058
       235.000         201.000
  -8384048.98249  -6520810.71046  22215130.333    22215130.386    22215145.601
       222.000         170.000
 01 12 19 21 28 29.9950000  0  7G27G 2G26G28G 7G 8G11
   5240678.30049   4083428.39845  21906483.958    21906483.359    21906500.558
       214.000         158.000
     -5932.94049     -2822.87847  21243348.568    21243347.959    21243361.962
       233.000         192.000
  -8908240.70449  -6926551.79947  21230646.039    21230646.694    21230659.767
       235.000         190.000
  -5626972.59049  -4376708.88047  19589711.188    19589711.047    19589720.612
       241.000         208.000
 -16943518.46949 -13184362.82847  19105360.625    19105360.510    19105371.759
       237.000         207.000
  -1107034.81949   -853861.76447  19642778.242    19642777.896    19642789.871
       235.000         201.000
  -8394004.71649  -6528568.58646  22213235.900    22213235.912    22213251.181
       224.000         169.000
 01 12 19 21 28 59.9950000  0  7G27G 2G26G28G 7G 8G11
   5298548.31449   4128521.69945  21917496.505    21917495.846    21917513.088
       214.000         158.000
      1758.32149      3170.25547  21244812.216    21244811.638    21244825.661
       231.000         192.000
  -8947120.38049  -6956847.61547  21223247.533    21223248.120    21223261.261
       233.000         189.000
  -5644730.14449  -4390545.96247  19586332.054    19586331.908    19586341.469
       240.000         208.000
 -17010147.43449 -13236281.44547  19092681.543    19092681.386    19092692.644
       238.000         208.000
  -1078362.40349   -831519.69047  19648234.372    19648234.090    19648246.108
       235.000         200.000
  -8403475.00449  -6535948.17046  22211433.915    22211433.869    22211449.087
       223.000         172.000
 01 12 19 21 29 29.9950000  0  7G27G 2G26G28G 7G 8G11
   5356636.71849   4173785.17545  21928550.501    21928549.872    21928567.205
       213.000         161.000
      9516.25949      9215.33847  21246288.527    21246287.971    21246302.048
       231.000         191.000
  -8985483.67949  -6986741.08047  21215947.313    21215947.852    21215960.918
       235.000         190.000
  -5662353.34449  -4404278.35347  19582978.524    19582978.334    19582987.897
       241.000         208.000
 -17076372.91349 -13287885.66247  19080079.218    19080079.068    19080090.287
       237.000         207.000
  -1049323.45349   -808892.01347  19653760.384    19653760.064    19653772.087
       234.000         200.000
  -8412478.67849  -6542964.14746  22209720.678    22209720.598    22209735.793
       222.000         170.000
 01 12 19 21 29 59.9950000  0  7G27G 2G26G28G 7G 8G11
   5414977.52749   4219245.32845  21939652.502    21939651.945    21939669.318
       213.000         162.000
     17376.89249     15340.45147  21247784.394    21247783.853    21247797.930
       231.000         192.000
  -9023295.42149  -7016204.73247  21208752.104    21208752.580    21208765.586
       234.000         191.000
  -5679806.48249  -4417878.22947  19579657.290    19579657.102    19579666.707
       239.000         208.000
 -17142159.37949 -13339147.79547  19067560.414    19067560.273    19067571.474
       237.000         207.000
  -1019883.02149   -785951.49147  19659362.720    19659362.426    19659374.471
       234.000         199.000
  -8420980.65049  -6549589.23646  22208102.967    22208102.814    22208118.095
       225.000         172.000
 01 12 19 21 30 29.9950000  0  7G27G 2G26G28G 7G 8G11
   5473559.52349   4264893.39846  21950800.546    21950799.921    21950817.393
       217.000         163.000
     25331.12649     21538.51447  21249298.117    21249297.559    21249311.615
       232.000         192.000
  -9060565.45549  -7045246.27447  21201659.780    21201660.276    21201673.305
       233.000         189.000
  -5697099.04449  -4431352.97847  19576366.632    19576366.440    19576376.046
       240.000         208.000
 -17207516.34849 -13390075.25347  19055123.326    19055123.207    19055134.404
       237.000         207.000
   -990051.63249   -762706.32147  19665039.494    19665039.202    19665051.266
       235.000         200.000
  -8428990.78149  -6555831.03146  22206578.785    22206578.621    22206593.847
       221.000         167.000
 01 12 19 21 30 59.9950000  0  7G27G 2G26G28G 7G 8G11
   5532376.89149   4310724.92945  21961993.315    21961992.673    21962010.168
       215.000         161.000
     33374.78649     27806.25147  21250828.833    21250828.277    21250842.332
       231.000         192.000
  -9097298.65149  -7073869.54446  21194669.653    21194670.141    21194683.156
       230.000         186.000
  -5714235.45749  -4444706.04747  19573105.646    19573105.495    19573115.088
       239.000         207.000
 -17272448.41949 -13440671.62847  19042767.140    19042767.018    19042778.196
       237.000         207.000
   -959834.57349   -739160.62947  19670789.699    19670789.371    19670801.443
       235.000         200.000
  -8436513.95249  -6561693.38746  22205147.154    22205147.050    22205162.353
       221.000         169.000
 01 12 19 21 31 29.9950000  0  7G27G 2G26G28G 7G 8G11
   5591428.71649   4356739.11645  21973230.650    21973230.056    21973247.618
       213.000         161.000
     41508.90249     34144.47747  21252376.691    21252376.171    21252390.288
       231.000         191.000
  -9133494.80949  -7102074.30447  21187781.508    21187782.088    21187795.186
       233.000         188.000
  -5731215.31449  -4457937.12747  19569874.452    19569874.350    19569883.928
       240.000         208.000
 -17336954.86049 -13490936.34047  19030491.968    19030491.818    19030502.989
       238.000         207.000
   -929231.89849   -715314.44747  19676613.328    19676612.933    19676625.012
       235.000         200.000
  -8443550.28949  -6567176.36346  22203808.265    22203808.126    22203823.417
       221.000         168.000
 01 12 19 21 31 59.9950000  0  7G27G 2G26G28G 7G 8G11
   5650726.49149   4402944.97845  21984514.878    21984514.184    21984531.788
       213.000         159.000
     49747.15949     40563.85147  21253944.317    21253943.889    21253958.026
       231.000         191.000
  -9169141.38149  -7129850.82447  21180998.159    21180998.745    21181011.862
       233.000         190.000
  -5748025.36449  -4471035.89447  19566675.643    19566675.516    19566685.074
       240.000         207.000
 -17401022.87349 -13540859.42247  19018300.223    19018300.036    19018311.199
       237.000         207.000
   -898231.69949   -691158.50347  19682512.520    19682512.138    19682524.219
       235.000         200.000
  -8450087.27649  -6572270.25546  22202564.404    22202564.272    22202579.564
       221.000         166.000
 01 12 19 21 32 29.9950000  0  8G27G 2G26G 4G28G 7G 8G11
   5710251.50149   4449327.85445  21995842.149    21995841.511    21995859.252
       213.000         158.000
     58072.85549     47051.35647  21255528.742    21255528.279    21255542.428
       231.000         190.000
  -9204255.99949  -7157212.85647  21174316.119    21174316.655    21174329.837
       233.000         192.000
   -252901.29853                  23118986.268
       207.000          84.000
  -5764682.80349  -4484015.74647  19563505.834    19563505.709    19563515.284
       239.000         207.000
 -17464669.67749 -13590454.29647  19006188.608    19006188.411    19006199.553
       237.000         206.000
   -866851.80649   -666706.69347  19688484.042    19688483.599    19688495.680
       236.000         200.000
  -8456142.59549  -6576988.77246  22201412.203    22201412.072    22201427.338
       219.000         168.000
 01 12 19 21 32 59.9950000  0  8G27G 2G26G 4G28G 7G 8G11
   5770009.28049   4495892.14545  22007213.874    22007213.207    22007230.982
       211.000         156.000
     66493.23649     53612.65247  21257131.174    21257130.686    21257144.794
       231.000         191.000
  -9238832.25449  -7184155.35347  21167736.421    21167736.960    21167750.240
       233.000         191.000
    -21789.06343                  23091644.837
       208.000          74.000
  -5781180.61549  -4496871.20547  19560366.418    19560366.299    19560375.871
       239.000         207.000
 -17527888.42649 -13639715.61747  18994158.409    18994158.244    18994169.359
       236.000         207.000
   -835086.06949   -641954.21847  19694528.976    19694528.488    19694540.562
       236.000         200.000
  -8461709.83149  -6581326.96846  22200352.940    22200352.764    22200368.045
       221.000         167.000
 01 12 19 21 33 29.9950000  0  8G27G 2G26G 4G28G 7G 8G11
   5830008.94149   4542644.90745  22018631.547    22018630.924    22018648.742
       213.000         157.000
     75019.42249     60256.39447  21258753.698    21258753.222    21258767.334
       230.000         191.000
  -9272859.87349  -7210670.37247  21161261.248    21161261.738    21161275.038
       234.000         191.000
   -133818.17944                  23064286.704
       207.000          99.000
  -5797507.98249  -4509593.85347  19557259.409    19557259.303    19557268.886
       239.000         207.000
 -17590668.53749 -13688635.14247  18982211.765    18982211.553    18982222.649
       237.000         207.000
   -802925.01249   -616893.69447  19700649.032    19700648.597    19700660.704
       236.000         201.000
  -8466778.82049  -6585276.88446  22199388.443    22199388.205    22199403.548
       220.000         167.000
 01 12 19 21 33 59.9950000  0  8G27G 2G26G 4G28G 7G 8G11
   5890247.12549   4589583.51545  22030094.714    22030094.046    22030111.921
       212.000         155.000
     83650.22549     66981.64247  21260396.181    21260395.676    21260409.784
       230.000         191.000
  -9306341.20349  -7236759.67847  21154889.893    21154890.412    21154903.723
       233.000         190.000
   -245920.43144                  23036912.040
       208.000          97.000
  -5813666.69349  -4522185.07747  19554184.481    19554184.415    19554193.975
       240.000         207.000
 -17653011.84149 -13737214.29547  18970348.187    18970347.993    18970359.075
       236.000         207.000
   -770370.94549   -591526.93947  19706843.948    19706843.500    19706855.615
       236.000         201.000
  -8471352.29949  -6588840.69046  22198518.160    22198517.962    22198533.335
       222.000         167.000
 01 12 19 21 34 29.9950000  0  8G27G 2G26G 4G28G 7G 8G11
   5950740.12449   4636720.69145  22041606.363    22041605.647    22041623.556
       213.000         158.000
     92404.04049     73802.75347  21262062.068    21262061.535    21262075.657
       231.000         191.000
  -9339258.81449  -7262409.71847  21148625.730    21148626.311    21148639.756
       233.000         192.000
    -10626.84743                  23009525.098
       207.000          74.000
  -5829638.72149  -4534630.83347  19551145.129    19551145.057    19551154.624
       240.000         207.000
 -17714900.67249 -13785439.30847  18958571.070    18958570.900    18958581.974
       236.000         207.000
   -737407.04149   -565840.82847  19713116.854    19713116.388    19713128.517
       237.000         201.000
  -8475412.61049  -6592004.59846  22197745.668    22197745.443    22197760.756
       224.000         172.000
 01 12 19 21 34 59.9950000  0  8G27G 2G26G 4G28G 7G 8G11
   6011465.08949   4684038.59845  22053162.132    22053161.383    22053179.398
       212.000         157.000
    101259.91649     80703.38647  21263747.231    21263746.780    21263760.934
       231.000         191.000
  -9371634.59149  -7287637.59647  21142464.952    21142465.460    21142478.786
       234.000         190.000
   -122834.55644                  22982122.175
       211.000         131.000
  -5845445.38649  -4546947.73247  19548137.258    19548137.180    19548146.732
       240.000         207.000
 -17776356.34349 -13833326.80647  18946876.435    18946876.251    18946887.305
       236.000         207.000
   -704055.46149   -539852.64347  19719463.502    19719463.042    19719475.197
       237.000         201.000
  -8478981.74649  -6594785.78646  22197066.404    22197066.280    22197081.689
       222.000         170.000
 01 12 19 21 35 29.9950000  0  8G27G 2G26G 4G28G 7G 8G11
   6072418.93049   4731534.88245  22064761.481    22064760.677    22064778.739
       214.000         159.000
    110216.92749     87682.82947  21265451.806    21265451.299    21265465.462
       230.000         190.000
  -9403470.62649  -7312444.85747  21136406.698    21136407.202    21136420.542
       234.000         191.000
   -235105.10545                  22954703.919
       203.000         139.000
  -5861087.87949  -4559136.69847  19545160.592    19545160.529    19545170.061
       241.000         207.000
 -17837380.53849 -13880878.08347  18935263.917    18935263.718    18935274.737
       236.000         207.000
   -670318.48849   -513564.14447  19725883.535    19725883.042    19725895.198
       236.000         200.000
  -8482061.78949  -6597185.82546  22196480.392    22196480.256    22196495.618
       224.000         170.000
 01 12 19 21 35 59.9950000  0  8G27G 2G26G 4G28G 7G 8G11
   6133600.25849   4779208.37745  22076404.029    22076403.234    22076421.462
       214.000         158.000
    119275.82049     94741.66047  21267175.708    21267175.200    21267189.355
       230.000         190.000
  -9434767.33349  -7336831.85847  21130451.174    21130451.651    21130465.012
       234.000         190.000
  -1366045.44549   -347436.85145  22927270.838    22927269.209    22927294.276
       209.000         150.000
  -5876566.19149  -4571197.73547  19542215.259    19542215.124    19542224.653
       240.000         207.000
 -17897973.25649 -13928093.13947  18923733.452    18923733.303    18923744.291
       236.000         207.000
   -636196.83349   -486975.89047  19732376.687    19732376.231    19732388.390
       237.000         200.000
  -8484653.47649  -6599205.35946  22195987.215    22195987.118    22196002.585
       223.000         172.000
 01 12 19 21 36 29.9950000  0  8G27G 2G26G 4G28G 7G 8G11
   6195023.09949   4827070.11645  22088092.497    22088091.790    22088110.015
       209.000         157.000
    128452.72649    101892.43647  21268922.037    21268921.563    21268935.729
       231.000         191.000
  -9465509.83149  -7360787.04047  21124601.072    21124601.552    21124614.815
       234.000         191.000
  -1510265.63749   -459815.57745  22899825.987    22899824.452    22899848.408
       206.000         144.000
  -5891864.45149  -4583118.47147  19539304.169    19539303.982    19539313.527
       240.000         208.000
 -17958119.09549 -13974959.98447  18912288.101    18912287.890    18912298.890
       236.000         206.000
   -601676.14049   -460076.71147  19738945.763    19738945.328    19738957.506
       236.000         200.000
  -8486741.75049  -6600832.59746  22195589.908    22195589.773    22195605.280
       222.000         170.000
 01 12 19 21 36 59.9950000  0  8G27G 2G26G 4G28G 7G 8G11
   6256677.24849   4875112.05445  22099825.110    22099824.389    22099842.700
       212.000         159.000
    137739.40849    109128.75347  21270689.323    21270688.821    21270703.003
       230.000         191.000
  -9495707.42849  -7384317.59147  21118854.626    21118855.114    21118868.362
       235.000         190.000
  -1654551.60159   -572245.60255  22872368.847    22872368.311    22872392.095
       205.000         144.000
  -5906991.05549  -4594905.43047  19536425.626    19536425.479    19536435.068
       240.000         207.000
 -18017827.05749 -14021485.62547  18900925.975    18900925.802    18900936.810
       234.000         206.000
   -566765.95349   -432874.03047  19745588.997    19745588.548    19745600.750
       236.000         200.000
  -8488336.11949  -6602074.96546  22195286.510    22195286.409    22195301.967
       223.000         170.000
 01 12 19 21 37 29.9950000  0  8G27G 2G26G 4G28G 7G 8G11
   6318558.11149   4923330.66545  22111600.886    22111600.095    22111618.418
       211.000         157.000
    147133.40549    116448.68847  21272476.888    21272476.457    21272490.688
       231.000         190.000
  -9525363.92249  -7407426.53047  21113211.285    21113211.708    21113224.872
       234.000         190.000
  -1798903.35249   -684726.89945  22844899.403    22844898.309    22844922.192
       209.000         146.000
  -5921948.80349  -4606560.82447  19533579.324    19533579.141    19533588.722
       241.000         208.000
 -18077100.33449 -14067672.54747  18889646.584    18889646.412    18889657.428
       235.000         206.000
   -531470.30149   -405370.99247  19752305.596    19752305.132    19752317.353
       236.000         200.000
  -8489440.34449  -6602935.41446  22195076.428    22195076.313    22195091.908
       221.000         169.000
 01 12 19 21 37 59.9940000  0  8G27G 2G26G 4G28G 7G 8G11
   6380657.91649   4971719.86245  22123418.162    22123417.480    22123435.943
       210.000         157.000
    156631.02149    123849.36247  21274284.260    21274283.834    21274298.056
       230.000         189.000
  -9554482.96749  -7430116.65647  21107670.100    21107670.530    21107683.668
       235.000         190.000
  -1943317.23649   -797256.52545  22817417.838    22817417.067    22817441.046
       209.000         143.000
  -5936741.42149  -4618087.52747  19530764.359    19530764.203    19530773.823
       240.000         208.000
 -18135941.18149 -14113522.51147  18878449.488    18878449.326    18878460.341
       236.000         206.000
   -495795.19349   -377572.28547  19759094.299    19759093.916    19759106.162
       235.000         199.000
  -8490059.03449  -6603417.52446  22194958.789    22194958.622    22194974.203
       221.000         170.000
 01 12 19 21 38 29.9940000  0  8G27G 2G26G 4G28G 7G 8G11
   6442974.59849   5020278.06045  22135276.789    22135276.111    22135294.621
       208.000         154.000
    166228.48749    131327.83547  21276110.583    21276110.222    21276124.432
       231.000         189.000
  -9583071.84749  -7452393.69547  21102229.827    21102230.239    21102243.352
       233.000         191.000
  -2087804.25849   -909843.30445  22789922.472    22789922.143    22789945.762
       209.000         147.000
  -5951374.50149  -4629489.91647  19527979.826    19527979.647    19527989.269
       241.000         208.000
 -18194358.47549 -14159042.43447  18867332.967    18867332.839    18867343.828
       236.000         206.000
   -459744.11349   -349480.62247  19765954.629    19765954.247    19765966.521
       236.000         199.000
  -8490197.77949  -6603525.67746  22194932.435    22194932.265    22194947.869
       223.000         171.000
 01 12 19 21 38 59.9940000  0  8G27G 2G26G 4G28G 7G 8G11
   6505515.30449   5069010.83545  22147177.835    22147177.374    22147196.001
       206.000         154.000
    175936.91549    138892.77547  21277958.196    21277957.742    21277971.924
       232.000         189.000
  -9611119.75049  -7474249.15547  21096892.299    21096892.795    21096906.092
       233.000         191.000
  -2232346.13749  -1022472.69345  22762416.473    22762416.531    22762440.087
       207.000         140.000
  -5965836.60649  -4640759.07247  19525227.860    19525227.625    19525237.215
       241.000         208.000
 -18252339.50649 -14204222.40647  18856299.550    18856299.383    18856310.344
       237.000         206.000
   -423308.33749   -321089.19147  19772888.206    19772887.801    19772900.074
       236.000         199.000
  -8489846.50949  -6603252.01146  22194999.257    22194999.124    22195014.822
       221.000         168.000
 01 12 19 21 39 29.9940000  0  8G27G 2G26G 4G28G 7G 8G11
   6568261.35749   5117903.58445  22159118.336    22159117.708    22159136.424
       209.000         152.000
    185739.68349    146531.21547  21279823.796    21279823.235    21279837.367
       230.000         189.000
  -9638644.33449  -7495696.86747  21091654.639    21091655.081    21091668.413
       235.000         192.000
  -2376956.63849  -1135155.67545  22734897.485    22734897.847    22734921.316
       207.000         142.000
  -5980144.64549  -4651908.17447  19522505.158    19522504.900    19522514.492
       240.000         207.000
 -18309901.83649 -14249076.12347  18845345.773    18845345.607    18845356.558
       237.000         206.000
   -386505.97349   -292412.10347  19779891.489    19779891.103    19779903.401
       235.000         199.000
  -8489023.28949  -6602610.57346  22195155.885    22195155.778    22195171.501
       223.000         170.000
 01 12 19 21 39 59.9940000  0  8G27G 2G26G 4G28G 7G 8G11
   6631227.46849   5166967.85945  22171100.581    22171099.958    22171118.647
       208.000         154.000
    195653.80749    154256.42047  21281710.445    21281709.897    21281724.028
       230.000         189.000
  -9665630.12949  -7516724.74247  21086519.456    21086519.863    21086533.101
       233.000         188.000
  -2521616.46949  -1247876.97745  22707368.846    22707369.667    22707393.277
       207.000         143.000
  -5994281.86749  -4662924.17447  19519814.801    19519814.657    19519824.285
       240.000         208.000
 -18367029.32649 -14293591.00947  18834474.763    18834474.578    18834485.527
       236.000         206.000
   -349321.63049   -263437.38547  19786967.501    19786967.093    19786979.407
       235.000         198.000
  -8487712.41649  -6601589.16146  22195405.336    22195405.254    22195420.995
       221.000         167.000
 01 12 19 21 40 29.9940000  0  8G27G 2G26G 4G28G 7G 8G11
   6694402.04749   5216194.50445  22183122.431    22183121.878    22183140.740
       211.000         155.000
    205669.79949    162060.98947  21283616.443    21283615.921    21283630.107
       230.000         189.000
  -9692087.83449  -7537341.11447  21081484.530    21081485.034    21081498.303
       233.000         190.000
  -2666332.58449  -1360642.18145  22679829.643    22679830.822    22679854.433
       209.000         145.000
  -6008258.37249  -4673814.93247  19517155.085    19517155.007    19517164.621
       240.000         207.000
 -18423732.13149 -14337774.97247  18823684.582    18823684.356    18823695.305
       237.000         206.000
   -311766.13149   -234173.45147  19794114.083    19794113.703    19794126.049
       234.000         197.000
  -8485924.59949  -6600196.06546  22195745.590    22195745.514    22195761.182
       222.000         166.000
 01 12 19 21 40 59.9940000  0  8G27G 2G26G 4G28G 7G 8G11
   6757798.36349   5265594.02945  22195186.667    22195186.039    22195204.823
       211.000         153.000
    215803.03949    169956.93347  21285544.769    21285544.274    21285558.462
       229.000         189.000
  -9718003.22549  -7557534.91247  21076552.865    21076553.433    21076566.739
       232.000         188.000
  -2811086.98649  -1473437.19845  22652283.528    22652284.660    22652308.275
       209.000         137.000
  -6022059.03049  -4684568.67647  19514528.852    19514528.825    19514538.428
       241.000         208.000
 -18479995.72749 -14381616.69447  18812977.925    18812977.699    18812988.648
       236.000         206.000
   -273825.83249   -204609.68047  19801333.918    19801333.532    19801345.919
       234.000         197.000
  -8483645.69849  -6598420.31346  22196179.195    22196179.181    22196194.799
       219.000         166.000
 01 12 19 21 41 29.9940000  0  8G27G 2G26G 4G28G 7G 8G11
   6821397.44949   5315151.47045  22207289.542    22207288.742    22207307.633
       213.000         159.000
    226036.82849    177931.22747  21287492.313    21287491.781    21287505.980
       229.000         189.000
  -9743394.57749  -7577320.37347  21071721.013    21071721.576    21071734.721
       235.000         189.000
  -2955893.82049  -1586272.99045  22624727.522    22624728.579    22624752.236
       203.000         139.000
  -6035701.02849  -4695198.79047  19511932.904    19511932.832    19511942.431
       241.000         208.000
 -18535837.82649 -14425129.98947  18802351.512    18802351.272    18802362.214
       236.000         206.000
   -235518.99249   -174760.29947  19808623.523    19808623.127    19808635.540
       233.000         197.000
  -8480894.07249  -6596276.22346  22196702.856    22196702.823    22196718.472
       223.000         164.000
 01 12 19 21 41 59.9940000  0  8G27G 2G26G 4G28G 7G 8G11
   6885219.98349   5364883.07045  22219434.770    22219433.988    22219452.923
       209.000         153.000
    236393.88849    186001.56547  21289463.224    21289462.709    21289476.919
       228.000         188.000
  -9768240.61749  -7596680.92347  21066993.099    21066993.582    21067006.638
       233.000         190.000
  -3100727.96049  -1699130.11445  22597165.853    22597167.109    22597190.862
       210.000         149.000
  -6049161.85549  -4705687.74747  19509371.439    19509371.344    19509380.919
       242.000         208.000
 -18591236.41749 -14468297.69047  18791809.521    18791809.276    18791820.180
       236.000         206.000
   -196824.71549   -144609.01747  19815986.823    19815986.447    19815998.882
       234.000         196.000
  -8477648.43549  -6593747.19146  22197320.546    22197320.481    22197336.090
       223.000         166.000
 01 12 19 21 42 29.9940000  0  8G27G 2G26G 4G28G 7G 8G11
   6949267.38349   5414789.88545  22231622.715    22231622.039    22231640.964
       214.000         156.000
    246877.86949    194170.79046  21291458.272    21291457.772    21291472.019
       228.000         187.000
  -9792539.20449  -7615614.88947  21062369.238    21062369.734    21062382.729
       235.000         191.000
  -3245583.38249  -1812003.85945  22569600.317    22569601.670    22569625.326
       210.000         146.000
  -6062438.16549  -4716032.91747  19506845.065    19506844.956    19506854.499
       242.000         208.000
 -18646188.75449 -14511117.66547  18781352.427    18781352.178    18781363.049
       237.000         206.000
   -157740.83349   -114154.15647  19823424.306    19823423.929    19823436.374
       233.000         196.000
  -8473906.50249  -6590831.43446  22198032.648    22198032.620    22198048.176
       221.000         165.000
 01 12 19 21 42 59.9940000  0  8G27G 2G26G 4G28G 7G 8G11
   7013526.58449   5464861.70845  22243850.980    22243850.353    22243869.358
       211.000         154.000
    257478.19449    202430.68247  21293475.534    21293475.010    21293489.286
       228.000         188.000
  -9816302.34649  -7634131.60747  21057847.263    21057847.725    21057860.765
       233.000         189.000
  -3390468.13349  -1924900.45945  22542029.391    22542030.670    22542054.220
       206.000         150.000
  -6075541.03949  -4726242.95047  19504351.797    19504351.597    19504361.119
       242.000         208.000
 -18700706.42449 -14553598.93747  18770978.053    18770977.805    18770988.633
       237.000         206.000
   -118279.50749    -83405.18547  19830933.636    19830933.229    19830945.699
       233.000         196.000
  -8469680.46049  -6587538.44446  22198836.913    22198836.816    22198852.353
       220.000         163.000
 01 12 19 21 43 29.9940000  0  8G27G 2G26G 4G28G 7G 8G11
   7077981.85849   5515086.34445  22256116.624    22256115.945    22256134.961
       209.000         151.000
    268181.17549    210770.55846  21295512.229    21295511.752    21295526.084
       227.000         187.000
  -9839545.19749  -7652242.91647  21053424.225    21053424.732    21053437.772
       234.000         191.000
  -3535393.25549  -2037828.43945  22514450.853    22514451.990    22514475.477
       206.000         146.000
  -6088484.56049  -4736328.82047  19501888.730    19501888.536    19501898.056
       241.000         208.000
 -18754804.00949 -14595752.87447  18760683.525    18760683.348    18760694.170
       236.000         206.000
    -78456.16849    -52374.12047  19838511.829    19838511.403    19838523.935
       233.000         196.000
  -8464985.51549  -6583880.09646  22199730.393    22199730.283    22199745.833
       222.000         165.000
 01 12 19 21 43 59.9940000  0  8G27G 2G26G 4G28G 7G 8G11
   7142656.05749   5565481.54845  22268423.925    22268423.215    22268442.305
       207.000         151.000
    279011.67749    219209.80747  21297573.113    21297572.733    21297587.148
       226.000         188.000
  -9862244.37749  -7669930.60447  21049104.738    21049105.235    21049118.225
       236.000         191.000
  -3680331.27449  -2150766.48845  22486869.449    22486870.742    22486894.272
       208.000         149.000
  -6101244.04249  -4746271.29347  19499460.654    19499460.502    19499470.009
       242.000         208.000
 -18808457.47949 -14637560.75247  18750473.617    18750473.405    18750484.238
       236.000         206.000
    -38247.50949    -21042.80147  19846163.350    19846162.920    19846175.487
       233.000         196.000
  -8459798.16049  -6579838.02445  22200717.481    22200717.388    22200732.921
       220.000         162.000
 01 12 19 21 44 29.9940000  0  8G27G 2G26G 4G28G 7G 8G11
   7207526.58449   5616029.69445  22280768.587    22280767.789    22280786.982
       207.000         149.000
    289949.38849    227732.58247  21299654.647    21299654.197    21299668.629
       229.000         188.000
  -9884421.57549  -7687211.54447  21044884.675    21044885.084    21044898.005
       234.000         189.000
  -3825299.89249  -2263728.39145  22459282.313    22459283.735    22459307.168
       212.000         153.000
  -6113840.07249  -4756086.41247  19497063.684    19497063.548    19497073.051
       241.000         208.000
 -18861688.16849 -14679039.19647  18740344.174    18740343.909    18740354.730
       235.000         206.000
      2324.55349     10571.69047  19853883.993    19853883.599    19853896.193
       233.000         197.000
  -8454140.17249  -6575429.24046  22201794.183    22201794.077    22201809.623
       221.000         163.000
 01 12 19 21 44 59.9940000  0  8G27G 2G26G 4G28G 7G 8G11
   7272587.92549   5666726.60445  22293149.459    22293148.769    22293167.936
       203.000         146.000
    300991.04449    236336.36646  21301755.977    21301755.459    21301769.870
       228.000         186.000
  -9906081.85049  -7704089.67247  21040762.749    21040763.217    21040776.190
       232.000         189.000
  -3970299.98049  -2376714.78645  22431689.212    22431690.688    22431714.128
       211.000         151.000
  -6126276.48049  -4765777.14947  19494697.106    19494696.990    19494706.478
       241.000         208.000
 -18914500.30649 -14720191.49247  18730294.321    18730294.060    18730304.872
       236.000         205.000
     43254.88349     42465.34947  19861672.862    19861672.454    19861685.106
       233.000         196.000
  -8448016.35449  -6570657.44246  22202959.532    22202959.422    22202974.964
       222.000         163.000
 01 12 19 21 45 29.9940000  0  8G27G 2G26G 4G28G 7G 8G11
   7337841.56449   5717573.25845  22305567.076    22305566.300    22305585.513
       208.000         149.000
    312140.46649    245024.10846  21303877.683    21303877.170    21303891.636
       228.000         185.000
  -9927222.86749  -7720563.20947  21036739.691    21036740.168    21036753.176
       234.000         189.000
  -4115325.01949  -2489720.71645  22404091.409    22404092.936    22404116.227
       212.000         153.000
  -6138549.78349  -4775340.80547  19492361.649    19492361.475    19492370.940
       242.000         208.000
 -18966890.95049 -14761015.35447  18720324.716    18720324.433    18720335.237
       236.000         205.000
     84545.80349     74639.98947  19869530.371    19869529.935    19869542.641
       233.000         197.000
  -8441424.62149  -6565521.07345  22204213.848    22204213.805    22204229.305
       218.000         162.000
 01 12 19 21 45 59.9940000  0  8G27G 2G26G 4G28G 7G 8G11
   7403292.62049   5768573.83545  22318022.096    22318021.381    22318040.550
       204.000         145.000
    323404.95949    253801.52846  21306021.341    21306020.793    21306035.286
       227.000         185.000
  -9947838.84249  -7736627.59647  21032816.579    21032817.070    21032830.091
       234.000         189.000
  -4260365.22249  -2602738.46545  22376490.721    22376492.284    22376515.366
       209.000         152.000
  -6150652.82149  -4784771.78447  19490058.575    19490058.366    19490067.830
       242.000         208.000
 -19018853.71349 -14801505.79947  18710436.493    18710436.249    18710447.019
       235.000         205.000
    126202.76749    107099.85947  19877457.557    19877457.075    19877469.825
       233.000         196.000
  -8434358.89749  -6560015.35945  22205558.430    22205558.405    22205573.913
       220.000         162.000
 01 12 19 21 46 29.9940000  0  8G27G 2G26G 4G28G 7G 8G11
   7468942.86549   5819729.58045  22330515.038    22330514.400    22330533.587
       209.000         148.000
    334788.49249    262671.70146  21308187.623    21308187.086    21308201.609
       227.000         185.000
  -9967927.42049  -7752281.05147  21028993.947    21028994.382    21029007.296
       235.000         190.000
  -4405413.94249  -2715762.79945  22348888.040    22348889.926    22348912.969
       213.000         153.000
  -6162581.86049  -4794067.18247  19487788.606    19487788.382    19487797.830
       241.000         208.000
 -19070385.72649 -14841660.59647  18700630.309    18700630.020    18700640.745
       236.000         205.000
    168228.16849    139846.82647  19885454.823    19885454.323    19885467.092
       233.000         196.000
  -8426817.21249  -6554138.75745  22206993.624    22206993.558    22207009.015
       217.000         158.000
 01 12 19 21 46 59.9940000  0  8G27G 2G26G 4G28G 7G 8G11
   7534784.26449   5871034.31145  22343044.509    22343043.922    22343063.054
       207.000         145.000
    346285.58949    271630.37246  21310375.553    21310374.981    21310389.552
       229.000         185.000
  -9987496.05549  -7767529.35846  21025270.167    21025270.592    21025283.427
       230.000         187.000
  -4550474.48749  -2828796.43845  22321283.547    22321285.406    22321308.214
       214.000         153.000
  -6174343.15449  -4803231.87447  19485550.514    19485550.297    19485559.754
       242.000         208.000
 -19121493.74849 -14881485.01147  18690904.805    18690904.504    18690915.148
       235.000         205.000
    210614.58649    172875.11047  19893520.839    19893520.287    19893533.041
       233.000         195.000
  -8418806.86749  -6547896.97045  22208517.872    22208517.917    22208533.323
       220.000         162.000
 01 12 19 21 47 29.9940000  0  8G27G 2G26G 4G28G 7G 8G11
   7600804.42149   5922478.31845  22355608.109    22355607.353    22355626.432
       211.000         145.000
    357885.87349    280669.44946  21312583.129    21312582.529    21312597.117
       228.000         185.000
 -10006556.59749  -7782381.74247  21021642.950    21021643.449    21021656.265
       234.000         189.000
  -4695554.24149  -2941845.00645  22293675.194    22293677.199    22293699.872
       209.000         147.000
  -6185947.11049  -4812273.97247  19483342.449    19483342.169    19483351.622
       242.000         208.000
 -19172188.98749 -14920987.77347  18681257.810    18681257.501    18681268.117
       235.000         204.000
    253350.05549    206175.38147  19901653.290    19901652.664    19901665.416
       234.000         195.000
  -8410339.34949  -6541298.97646  22210129.332    22210129.299    22210144.708
       221.000         164.000
 01 12 19 21 47 59.9940000  0  8G27G 2G26G 4G28G 7G 8G11
   7667004.56649   5974062.57345  22368205.729    22368205.051    22368224.137
       205.000         141.000
    369592.84349    289791.65746  21314811.012    21314810.383    21314824.959
       227.000         184.000
 -10025107.15549  -7796836.74147  21018112.911    21018113.376    21018126.293
       233.000         190.000
  -4840647.23449  -3054903.92945  22266064.455    22266066.440    22266088.957
       208.000         150.000
  -6197390.53749  -4821190.97747  19481164.815    19481164.568    19481174.028
       241.000         208.000
 -19222468.95149 -14960166.94347  18671689.888    18671689.522    18671700.107
       235.000         204.000
    296436.11149    239748.83447  19909852.386    19909851.763    19909864.527
       233.000         195.000
  -8401413.14449  -6534343.56845  22211827.952    22211827.980    22211843.293
       220.000         161.000
 01 12 19 21 48 29.9940000  0  8G27G 2G26G 4G28G 7G 8G11
   7733394.55649   6025794.73345  22380839.431    22380838.839    22380857.942
       208.000         144.000
    381418.72349    299006.51646  21317061.526    21317060.868    21317075.408
       228.000         183.000
 -10043137.23849  -7810886.16447  21014681.950    21014682.401    21014695.323
       235.000         190.000
  -4985738.59549  -3167961.64245  22238454.136    22238456.025    22238478.328
       210.000         146.000
  -6208661.55649  -4829973.63447  19479020.052    19479019.803    19479029.251
       241.000         208.000
 -19272322.48549 -14999013.82347  18662203.021    18662202.696    18662213.272
       235.000         204.000
    339883.38049    273603.75247  19918120.165    19918119.596    19918132.356
       233.000         195.000
  -8392017.73349  -6527022.56546  22213615.859    22213615.894    22213631.226
       221.000         166.000
 01 12 19 21 48 59.9940000  0  8G27G 2G26G 4G28G 7G 8G11
   7799977.23049   6077677.03645  22393510.020    22393509.318    22393528.506
       202.000         140.000
    393368.78149    308318.14446  21319335.663    21319334.963    21319349.496
       227.000         183.000
 -10060643.61149  -7824527.50347  21011350.628    21011351.065    21011363.970
       233.000         189.000
  -5130820.65949  -3281012.03445  22210845.610    22210847.413    22210869.688
       213.000         150.000
  -6219755.43349  -4838618.26047  19476909.029    19476908.734    19476918.176
       242.000         208.000
 -19321745.62249 -15037525.33047  18652798.125    18652797.774    18652808.340
       236.000         204.000
    383694.97949    307742.56447  19926457.322    19926456.749    19926469.516
       233.000         194.000
  -8382149.60849  -6519333.23146  22215493.786    22215493.788    22215509.143
       223.000         163.000
 01 12 19 21 49 29.9940000  0  8G27G 2G26G 4G28G 7G 8G11
   7866744.71749   6129703.37445  22406215.531    22406214.992    22406234.172
       205.000         146.000
    405437.12249    317721.94346  21321632.260    21321631.588    21321646.095
       228.000         183.000
 -10077633.73349  -7837766.59347  21008117.539    21008117.992    21008130.891
       233.000         191.000
  -5275896.51649  -3394057.63245  22183238.161    22183239.989    22183262.080
       216.000         154.000
  -6230678.26249  -4847129.59947  19474830.525    19474830.219    19474839.687
       242.000         208.000
 -19370745.13449 -15075706.73647  18643473.735    18643473.456    18643484.016
       234.000         204.000
    427863.54349    342159.52347  19934862.378    19934861.841    19934874.592
       232.000         194.000
  -8371816.34149  -6511281.43245  22217460.223    22217460.231    22217475.554
       220.000         162.000
 01 12 19 21 49 59.9940000  0  8G27G 2G26G 4G28G 7G 8G11
   7933675.34649   6181856.76845  22418952.211    22418951.655    22418971.033
       200.000         143.000
    417604.39649    327202.83946  21323947.717    21323947.030    21323961.596
       226.000         183.000
 -10094128.64249  -7850619.75547  21004978.543    21004979.041    21004992.119
       232.000         188.000
  -5420982.75749  -3507111.39145  22155628.881    22155630.616    22155652.500
       216.000         155.000
  -6241449.39249  -4855522.72447  19472780.851    19472780.579    19472790.059
       242.000         208.000
 -19419341.44549 -15113573.95547  18634226.123    18634225.864    18634236.425
       235.000         204.000
    472367.98549    376838.20347  19943331.348    19943330.843    19943343.595
       233.000         193.000
  -8361038.65749  -6502883.36046  22219511.179    22219511.176    22219526.549
       221.000         163.000
 01 12 19 21 50 29.9940000  0  8G27G 2G26G 4G28G 7G 8G11
   8000786.64149   6234150.98045  22431723.227    22431722.784    22431742.111
       203.000         142.000
    429890.60049    336776.40046  21326285.697    21326285.094    21326299.709
       226.000         183.000
 -10110110.32649  -7863073.04746  21001937.337    21001937.836    21001950.791
       232.000         187.000
  -5566057.10749  -3620155.83545  22128021.764    22128023.494    22128045.268
       214.000         156.000
  -6252049.62149  -4863782.67647  19470763.685    19470763.445    19470772.942
       243.000         208.000
 -19467515.92249 -15151112.46747  18625058.798    18625058.538    18625069.093
       235.000         205.000
    517226.18849    411792.54647  19951867.714    19951867.171    19951879.907
       234.000         194.000
  -8349798.64749  -6494125.04546  22221650.249    22221650.162    22221665.539
       223.000         165.000
 01 12 19 21 50 59.9940000  0  8G27G 2G26G 4G28G 7G 8G11
   8068075.07749   6286583.16545  22444527.917    22444527.577    22444547.115
       202.000         147.000
    442294.58949    346441.73146  21328646.184    21328645.580    21328660.261
       227.000         183.000
 -10125581.86949  -7875128.78447  20998993.052    20998993.603    20999006.734
       233.000         190.000
  -5711118.13649  -3733189.93745  22100417.170    22100418.915    22100440.525
       216.000         158.000
  -6262480.33849  -4871910.53647  19468778.869    19468778.584    19468788.070
       242.000         208.000
 -19515270.81549 -15188324.03147  18615971.280    18615971.075    18615981.621
       235.000         204.000
    562435.16049    447020.21447  19960470.760    19960470.233    19960482.977
       233.000         192.000
  -8338099.36049  -6485008.83046  22223876.543    22223876.484    22223891.914
       220.000         165.000
 01 12 19 21 51 29.9940000  0  8G27G 2G26G 4G28G 7G 8G11
   8135540.10749   6339152.95445  22457366.420    22457365.930    22457385.552
       209.000         149.000
    454817.99949    356200.11446  21331029.371    21331028.799    21331043.506
       225.000         183.000
 -10140543.21649  -7886787.00547  20996146.086    20996146.593    20996159.699
       232.000         188.000
  -5856161.38049  -3846210.19645  22072815.927    22072817.726    22072839.194
       211.000         157.000
  -6272739.89149  -4879905.01447  19466826.569    19466826.269    19466835.785
       241.000         208.000
 -19562605.58249 -15225208.22747  18606963.783    18606963.549    18606974.090
       235.000         204.000
    607994.87449    482521.17647  19969140.547    19969140.031    19969152.783
       232.000         192.000
  -8325940.75249  -6475534.72446  22226190.390    22226190.257    22226205.766
       222.000         169.000
 01 12 19 21 51 59.9940000  0  8G27G 2G26G 4G28G 7G 8G11
   8203172.72749   6391853.44445  22470236.801    22470236.270    22470255.846
       202.000         145.000
    467453.97449    366046.21146  21333433.947    21333433.414    21333448.175
       225.000         182.000
 -10155003.02649  -7898054.40747  20993394.577    20993395.033    20993408.127
       235.000         192.000
  -6001190.98649  -3959219.85845  22045217.321    22045219.172    22045240.465
       209.000         155.000
  -6282835.43049  -4887771.68847  19464905.441    19464905.185    19464914.719
       241.000         208.000
 -19609528.01849 -15261771.12247  18598034.765    18598034.512    18598045.011
       234.000         205.000
    653896.65649    518288.67647  19977875.447    19977874.935    19977887.678
       232.000         192.000
  -8313331.13649  -6465709.18546  22228590.057    22228589.883    22228605.383
       221.000         164.000
 01 12 19 21 52 29.9940000  0  8G27G 2G26G 4G28G 7G 8G11
   8270964.51549   6444677.79145  22483137.446    22483136.891    22483156.688
       209.000         153.000
    480196.74949    375975.52846  21335858.939    21335858.366    21335873.155
       225.000         182.000
 -10168969.41149  -7908937.32947  20990736.959    20990737.354    20990750.484
       232.000         190.000
  -6146210.16649  -4072221.30345  22017620.691    22017622.479    22017643.784
       211.000         156.000
  -6292773.36149  -4895515.54747  19463014.291    19463014.079    19463023.655
       242.000         208.000
 -19656045.40749 -15298018.39547  18589182.775    18589182.533    18589193.008
       235.000         205.000
    700132.57549    554316.54647  19986673.914    19986673.409    19986686.172
       231.000         191.000
  -8300278.79149  -6455538.61446  22231073.969    22231073.790    22231089.237
       220.000         165.000
 01 12 19 21 52 59.9940000  0  8G27G 2G26G 4G28G 7G 8G11
   8338930.97649   6497638.37345  22496071.401    22496070.682    22496090.555
       201.000         139.000
    493063.95649    386001.80746  21338307.503    21338306.988    21338321.842
       226.000         182.000
 -10182426.34449  -7919423.27247  20988176.034    20988176.526    20988189.790
       231.000         188.000
  -6291198.67849  -4185198.95745  21990029.918    21990031.707    21990052.825
       211.000         156.000
  -6302536.25549  -4903123.01147  19461156.434    19461156.270    19461165.884
       242.000         208.000
 -19702141.15349 -15333937.11947  18580410.998    18580410.791    18580421.244
       233.000         204.000
    746718.66949    590617.27047  19995538.944    19995538.513    19995551.297
       232.000         190.000
  -8286767.62249  -6445010.56346  22233645.090    22233644.948    22233660.400
       221.000         167.000
 01 12 19 21 53 29.9940000  0  8G27G 2G26G 4G28G 7G 8G11
   8407050.95249   6550718.57845  22509034.609    22509033.637    22509053.586
       211.000         149.000
    506036.76349    396110.36646  21340776.253    21340775.711    21340790.628
       226.000         183.000
 -10195394.66749  -7929528.46947  20985708.171    20985708.709    20985722.023
       233.000         191.000
  -6436172.67549  -4298165.33145  21962441.947    21962443.693    21962464.639
       209.000         152.000
  -6312142.99449  -4910608.79547  19459328.341    19459328.184    19459337.801
       241.000         208.000
 -19747835.29549 -15369542.90247  18571715.703    18571715.467    18571725.910
       232.000         204.000
    793634.07649    627174.59947  20004466.720    20004466.287    20004479.083
       231.000         190.000
  -8272818.26249  -6434141.03846  22236299.588    22236299.518    22236314.963
       220.000         164.000
 01 12 19 21 53 59.9940000  0  8G27G 2G26G 4G28G 7G 8G11
   8475345.29549   6603934.57345  22522030.980    22522029.873    22522050.067
       199.000         144.000
    519138.40649    406319.30646  21343269.528    21343268.962    21343283.901
       226.000         183.000
 -10207853.07049  -7939236.34547  20983337.649    20983338.061    20983351.283
       234.000         189.000
  -6581106.23549  -4411100.08645  21934861.874    21934863.401    21934884.271
       210.000         152.000
  -6321570.85449  -4917955.19347  19457534.225    19457534.124    19457543.780
       241.000         208.000
 -19793105.85149 -15404818.63347  18563100.956    18563100.739    18563111.171
       233.000         204.000
    840900.06649    664005.11047  20013461.173    20013460.778    20013473.600
       231.000         190.000
  -8258409.46449  -6422913.51446  22239041.630    22239041.512    22239056.980
       221.000         165.000
 01 12 19 21 54 29.9940000  0  8G27G 2G26G 4G28G 7G 8G11
   8543808.21449   6657281.92845  22535059.109    22535058.155    22535078.343
       207.000         136.000
    532365.36749    416625.90946  21345786.653    21345786.091    21345801.006
       227.000         183.000
 -10219807.02649  -7948551.13147  20981062.978    20981063.326    20981076.557
       234.000         191.000
  -6726000.35649  -4524004.13245  21907288.903    21907290.565    21907311.353
       213.000         158.000
  -6330823.41649  -4925165.00547  19455773.615    19455773.441    19455783.108
       242.000         208.000
 -19837957.53549 -15439767.96747  18554565.941    18554565.721    18554576.142
       233.000         204.000
    888511.14149    701104.51547  20022521.393    20022520.921    20022533.792
       231.000         189.000
  -8243546.40649  -6411332.03346  22241870.100    22241869.912    22241885.420
       220.000         164.000
 01 12 19 21 54 59.9940000  0  8G27G 2G26G 4G28G 7G 8G11
   8612416.11149   6710742.40645  22548114.941    22548114.117    22548134.195
       201.000         143.000
    545696.58149    427013.74546  21348323.674    21348323.055    21348337.958
       227.000         183.000
 -10231279.55249  -7957490.78147  20978879.975    20978880.275    20978893.459
       234.000         190.000
  -6870873.16749  -4636891.62245  21879720.043    21879721.888    21879742.396
       215.000         159.000
  -6339922.12349  -4932254.91547  19454042.173    19454042.013    19454051.714
       241.000         208.000
 -19882412.58249 -15474408.23847  18546106.365    18546106.189    18546116.607
       233.000         204.000
    936444.62849    738455.15547  20031642.915    20031642.441    20031655.344
       230.000         189.000
  -8228252.05649  -6399414.43646  22244780.526    22244780.395    22244795.904
       218.000         163.000
 01 12 19 21 55 29.9940000  0  8G27G 2G26G 4G28G 7G 8G11
   8681168.88949   6764315.50345  22561198.213    22561197.443    22561218.002
       204.000         141.000
    559133.98449    437484.32846  21350880.745    21350880.187    21350895.117
       227.000         182.000
 -10242270.71049  -7966055.32747  20976788.419    20976788.730    20976801.938
       232.000         188.000
  -7015720.00949  -4749758.94545  21852156.141    21852158.108    21852178.352
       215.000         156.000
  -6348865.14549  -4939223.52747  19452340.355    19452340.230    19452349.947
       241.000         208.000
 -19926470.36349 -15508738.96047  18537722.489    18537722.257    18537732.678
       234.000         205.000
    984700.42249    776056.93747  20040825.746    20040825.294    20040838.233
       231.000         190.000
  -8212526.52649  -6387160.85846  22247773.137    22247772.935    22247788.483
       221.000         165.000
 01 12 19 21 55 59.9940000  0  8G27G 2G26G 4G28G 7G 8G11
   8750071.31049   6818005.44445  22574310.296    22574309.513    22574329.852
       206.000         135.000
    572685.27749    448043.65946  21353459.639    21353459.024    21353473.946
       228.000         182.000
 -10252775.00249  -7974240.52847  20974789.499    20974789.816    20974802.963
       231.000         188.000
  -7160530.70449  -4862597.99445  21824599.336    21824601.236    21824621.404
       217.000         157.000
  -6357645.18949  -4946065.14047  19450669.513    19450669.451    19450679.170
       240.000         208.000
 -19970124.36949 -15542755.05747  18529415.447    18529415.171    18529425.590
       233.000         205.000
   1033284.16649    813914.25247  20050071.084    20050070.569    20050083.531
       231.000         190.000
  -8196364.05549  -6374566.85145  22250848.871    22250848.623    22250864.180
       220.000         160.000
 01 12 19 21 56 29.9940000  0  8G27G 2G26G 4G28G 7G 8G11
   8819119.21449   6871808.71645  22587449.653    22587449.105    22587469.522
       195.000         143.000
    586348.44049    458690.15746  21356059.784    21356059.128    21356074.076
       225.000         181.000
 -10262796.59249  -7982049.56746  20972882.244    20972882.688    20972895.919
       232.000         187.000
  -7305304.59649  -4975408.33445  21797049.691    21797051.404    21797071.529
       219.000         158.000
  -6366264.70949  -4952781.67147  19449029.252    19449029.214    19449038.937
       242.000         208.000
 -20013378.15349 -15576459.28947  18521184.479    18521184.234    18521194.642
       234.000         205.000
   1082191.85349    852023.99747  20059377.988    20059377.492    20059390.497
       230.000         190.000
  -8179768.89549  -6361635.65745  22254006.954    22254006.716    22254022.221
       220.000         161.000
 01 12 19 21 56 59.9940000  0  8G27G 2G26G 4G28G 7G 8G11
   8888319.35449   6925730.42045  22600618.474    22600617.761    22600638.474
       212.000         151.000
    600132.77749    469431.08146  21358682.940    21358682.293    21358697.287
       226.000         181.000
 -10272328.20849  -7989476.80146  20971068.546    20971068.924    20971082.089
       232.000         187.000
  -7450029.79649  -5088180.79446  21769509.269    21769510.846    21769530.796
       217.000         164.000
  -6374714.74749  -4959366.13647  19447421.424    19447421.270    19447430.986
       241.000         208.000
 -20056223.67449 -15609845.39647  18513031.309    18513031.008    18513041.421
       232.000         205.000
   1131430.52049    890391.64447  20068747.929    20068747.413    20068760.466
       231.000         191.000
  -8162733.38349  -6348361.36845  22257248.718    22257248.552    22257264.069
       218.000         159.000
 01 12 19 21 57 29.9940000  0  8G27G 2G26G 4G28G 7G 8G11
   8957679.85748   6979777.38945  22613817.868    22613816.885    22613837.421
       193.000         132.000
    614048.68249    480274.51946  21361331.143    21361330.499    21361345.537
       226.000         181.000
 -10281361.56249  -7996515.78846  20969349.557    20969349.924    20969362.996
       231.000         184.000
  -7594693.21849  -5200905.09446  21741980.538    21741982.003    21742001.770
       216.000         164.000
  -6382985.19649  -4965810.66947  19445847.707    19445847.490    19445857.189
       242.000         208.000
 -20098651.86149 -15642906.30647  18504957.501    18504957.170    18504967.591
       232.000         205.000
   1181008.86549    929023.96747  20078182.481    20078181.955    20078195.074
       231.000         190.000
  -8145249.52449  -6334737.71345  22260575.961    22260575.680    22260591.207
       216.000         155.000
 01 12 19 21 57 59.9930000  0  8G27G 2G26G 4G28G 7G 8G11
   9027188.96249   7033939.93145  22627045.052    22627044.150    22627065.007
       207.000         146.000
    628088.43849    491214.46746  21364002.966    21364002.266    21364017.322
       225.000         182.000
 -10289905.86249  -8003173.70046  20967723.587    20967723.990    20967736.911
       233.000         186.000
  -7739294.58549  -5313581.02845  21714463.390    21714464.933    21714484.494
       217.000         161.000
  -6391083.20349  -4972120.82747  19444306.761    19444306.521    19444316.226
       242.000         208.000
 -20140669.80449 -15675647.54747  18496961.638    18496961.409    18496971.833
       232.000         205.000
   1230915.88149    967912.40447  20087679.680    20087679.068    20087692.220
       231.000         190.000
  -8127327.08749  -6320772.33845  22263986.480    22263986.250    22264001.789
       216.000         157.000
 01 12 19 21 58 29.9930000  0  8G27G 2G26G 4G28G 7G 8G11
   9096844.21949   7088216.39545  22640300.478    22640299.487    22640320.463
       207.000         156.000
    642248.50749    502248.16146  21366697.591    21366696.936    21366712.059
       227.000         182.000
 -10297968.10449  -8009455.97147  20966189.410    20966189.836    20966202.709
       231.000         189.000
  -7883845.07649  -5426217.31045  21686955.958    21686957.544    21686977.041
       215.000         157.000
  -6399013.77349  -4978300.51647  19442797.686    19442797.415    19442807.098
       242.000         208.000
 -20182286.10549 -15708075.82047  18489042.262    18489042.068    18489052.505
       232.000         205.000
   1281148.43949   1007054.49647  20097238.729    20097238.123    20097251.311
       231.000         190.000
  -8108971.15349  -6306469.14845  22267479.526    22267479.318    22267494.975
       213.000         152.000
 01 12 19 21 58 59.9930000  0  8G27G 2G26G 4G28G 7G 8G11
   9166642.11748   7142603.99144  22653582.339    22653581.751    22653602.939
       191.000         123.000
    656529.30849    513375.94646  21369415.255    21369414.576    21369429.682
       228.000         180.000
 -10305549.14749  -8015363.29246  20964746.862    20964747.248    20964760.205
       232.000         187.000
  -8028336.42249  -5538807.46345  21659459.611    21659461.391    21659480.913
       209.000         155.000
  -6406775.56749  -4984348.69447  19441320.678    19441320.431    19441330.082
       242.000         208.000
 -20223499.65949 -15740190.26347  18481199.569    18481199.361    18481209.799
       232.000         204.000
   1331703.97349   1046448.26047  20106859.300    20106858.658    20106871.859
       232.000         191.000
  -8090183.11249  -6291829.28245  22271054.871    22271054.619    22271070.396
       216.000         153.000
 01 12 19 21 59 29.9930000  0  8G27G 2G26G 4G28G 7G 8G11
   9236578.20349   7197099.44845  22666891.203    22666890.254    22666911.359
       211.000         149.000
    670929.10449    524596.46346  21372155.527    21372154.870    21372169.963
       227.000         178.000
 -10312653.15849  -8020898.92046  20963395.087    20963395.449    20963408.270
       231.000         187.000
  -8172767.64449  -5651350.75745  21631974.862    21631976.661    21631996.118
       212.000         159.000
  -6414371.26049  -4990267.43847  19439875.224    19439875.037    19439884.702
       242.000         208.000
 -20264313.77049 -15771993.45747  18473432.848    18473432.667    18473443.115
       232.000         204.000
   1382578.46049   1086090.55547  20116540.522    20116539.883    20116553.114
       232.000         191.000
  -8070967.03949  -6276855.89645  22274711.523    22274711.368    22274727.150
       212.000         150.000
 01 12 19 21 59 59.9930000  0  8G27G 2G26G 4G28G 7G 8G11
   9306645.41048   7251696.89645  22680224.895    22680224.014    22680245.358
       194.000         153.000
    685443.13249    535905.98246  21374917.534    21374916.877    21374931.978
       226.000         177.000
 -10319287.02649  -8026068.16146  20962132.798    20962133.110    20962145.891
       233.000         186.000
  -8317140.72249  -5763848.76445  21604501.112    21604503.000    21604522.392
       215.000         160.000
  -6421805.58549  -4996060.44947  19438460.521    19438460.342    19438470.031
       241.000         208.000
 -20304734.45249 -15803490.07347  18465741.097    18465740.850    18465751.310
       233.000         204.000
   1433765.19849   1125976.17047  20126281.133    20126280.533    20126293.786
       232.000         191.000
  -8051329.90849  -6261554.39845  22278448.368    22278448.299    22278464.078
       215.000         155.000
 01 12 19 22  0 29.9930000  0  8G27G 2G26G 4G28G 7G 8G11
   9376864.55749   7306412.54344  22693586.969    22693586.426    22693608.059
       202.000         131.000
    700094.53749    547322.55146  21377705.595    21377704.988    21377720.135
       224.000         177.000
 -10325429.81249  -8030854.76746  20960963.922    20960964.224    20960976.902
       231.000         187.000
  -8461429.96049  -5876281.48445  21577043.461    21577045.288    21577064.498
       215.000         162.000
  -6429055.76849  -5001709.96347  19437080.877    19437080.686    19437090.394
       241.000         208.000
 -20344739.90649 -15834663.13947  18458128.281    18458128.054    18458138.512
       232.000         204.000
   1485285.32949   1166121.56747  20136085.264    20136084.625    20136097.909
       233.000         191.000
  -8031250.68149  -6245908.40945  22282269.448    22282269.353    22282285.188
       214.000         157.000
 01 12 19 22  0 59.9930000  0  8G27G 2G26G 4G28G 7G 8G11
   9447218.64049   7361233.85345  22706975.513    22706974.784    22706996.067
       209.000         142.000
    714868.89449    558834.92646  21380517.159    21380516.536    21380531.735
       224.000         176.000
 -10331098.18149  -8035271.72346  20959885.272    20959885.571    20959898.228
       232.000         187.000
  -8605646.81349  -5988657.78646  21549599.576    21549601.339    21549620.470
       219.000         164.000
  -6436136.56449  -5007227.49147  19435733.518    19435733.292    19435742.995
       243.000         208.000
 -20384345.99549 -15865525.01247  18450591.468    18450591.252    18450601.714
       232.000         204.000
   1537122.15249   1206513.74447  20145949.668    20145948.969    20145962.294
       232.000         190.000
  -8010745.67549  -6229930.63745  22286171.583    22286171.437    22286187.343
       217.000         156.000
 01 12 19 22  1 29.9930000  0  8G27G 2G26G 4G28G 7G 8G11
   9517717.79248   7416167.91445  22720391.439    22720390.514    22720412.152
       178.000         132.000
    729778.43749    570452.64746  21383354.490    21383353.826    21383369.015
       225.000         177.000
 -10336282.17349  -8039311.19947  20958898.853    20958899.136    20958911.789
       234.000         189.000
  -8749776.47949  -6100966.17446  21522172.238    21522174.078    21522192.988
       220.000         163.000
  -6443035.82649  -5012603.56247  19434420.575    19434420.412    19434430.126
       241.000         208.000
 -20423541.75149 -15896067.14447  18443132.758    18443132.527    18443142.989
       232.000         204.000
   1589286.12449   1247160.83847  20155876.236    20155875.579    20155888.927
       232.000         189.000
  -7989804.72749  -6213613.17245  22290156.659    22290156.430    22290172.436
       218.000         156.000
 01 12 19 22  1 59.9930000  0  8G27G 2G26G 4G28G 7G 8G11
   9588332.80349   7471192.08045  22733829.326    22733828.255    22733850.130
       205.000         138.000
    744796.49449    582154.92146  21386212.399    21386211.773    21386226.990
       225.000         177.000
 -10341010.53849  -8042995.68347  20957999.137    20957999.427    20958012.067
       231.000         188.000
  -8893842.75249  -6213225.12345  21494757.086    21494758.855    21494777.629
       220.000         162.000
  -6449780.37949  -5017859.08147  19433137.103    19433136.971    19433146.711
       242.000         208.000
 -20462355.41449 -15926311.54347  18435746.791    18435746.525    18435756.976
       232.000         204.000
   1641748.38349   1288040.35747  20165859.613    20165858.939    20165872.307
       232.000         189.000
  -7968456.56349  -6196978.38545  22294219.222    22294218.966    22294234.986
       218.000         158.000
 01 12 19 22  2 29.9930000  0  8G27G 2G26G 4G28G 7G 8G11
   9659078.15749   7526318.22444  22747291.980    22747291.071    22747312.577
       203.000         131.000
    759939.92249    593954.89646  21389094.174    21389093.569    21389108.751
       225.000         177.000
 -10345268.84949  -8046313.86946  20957188.675    20957189.041    20957201.861
       230.000         186.000
  -9037825.99349  -6325419.36445  21467357.829    21467359.437    21467378.049
       222.000         162.000
  -6456353.51949  -5022981.03047  19431886.380    19431886.188    19431895.897
       242.000         208.000
 -20500771.22949 -15956245.92547  18428436.458    18428436.222    18428446.676
       232.000         204.000
   1694523.90149   1329163.98447  20175902.573    20175901.907    20175915.329
       231.000         188.000
  -7946686.65649  -6180014.98645  22298362.073    22298361.759    22298377.825
       218.000         161.000
 01 12 19 22  2 59.9930000  0  8G27G 2G26G 4G28G 7G 8G11
   9729953.96148   7581545.86344  22760778.960    22760778.376    22760800.058
       193.000         129.000
    775211.13249    605854.43846  21392000.294    21391999.680    21392014.899
       225.000         177.000
 -10349057.08949  -8049265.79946  20956467.709    20956468.129    20956481.029
       231.000         186.000
  -9181721.06049  -6437544.88345  21439975.196    21439976.768    21439995.278
       218.000         161.000
  -6462753.10449  -5027967.74647  19430668.659    19430668.424    19430678.110
       243.000         208.000
 -20538788.43149 -15985869.70247  18421201.997    18421201.767    18421212.204
       231.000         204.000
   1747612.85849   1370531.83346  20186005.180    20186004.484    20186017.984
       230.000         187.000
  -7924494.55549  -6162722.61246  22302585.205    22302584.860    22302601.007
       221.000         163.000
 01 12 19 22  3 29.9930000  0  8G27G 2G26G 4G28G 7G 8G11
   9800936.66649   7636856.62645  22774286.485    22774286.128    22774308.231
       202.000         140.000
    790589.29449    617837.31946  21394926.745    21394926.116    21394941.391
       223.000         176.000
 -10352398.28549  -8051869.36046  20955831.825    20955832.279    20955845.337
       231.000         186.000
  -9325546.17049  -6549615.90545  21412605.658    21412607.377    21412625.783
       219.000         162.000
  -6469000.31349  -5032835.72747  19429479.839    19429479.638    19429489.336
       242.000         208.000
 -20576429.28649 -16015200.22047  18414039.097    18414038.910    18414049.364
       231.000         203.000
   1800992.16049   1412125.94746  20196162.979    20196162.325    20196175.860
       230.000         187.000
  -7901903.28849  -6145119.17745  22306884.370    22306883.966    22306900.133
       217.000         158.000
 01 12 19 22  3 59.9930000  0  8G27G 2G26G 4G28G 7G 8G11
   9872064.37449   7692280.53045  22787821.991    22787821.639    22787843.666
       201.000         137.000
    806115.19949    629935.31446  21397881.304    21397880.686    21397895.978
       224.000         175.000
 -10355254.18349  -8054094.80246  20955288.309    20955288.794    20955301.942
       231.000         185.000
  -9469257.98449  -6661598.67245  21385257.940    21385259.525    21385277.879
       221.000         161.000
  -6475054.52949  -5037553.32547  19428327.774    19428327.571    19428337.277
       242.000         207.000
 -20613654.69049 -16044207.00647  18406955.339    18406955.121    18406965.580
       231.000         204.000
   1854700.43849   1453976.39746  20206383.321    20206382.766    20206396.334
       229.000         186.000
  -7878874.36849  -6127174.72145  22311266.642    22311266.319    22311282.541
       219.000         158.000
 01 12 19 22  4 29.9930000  0  8G27G 2G26G 4G28G 7G 8G11
   9943311.52649   7747797.51244  22801380.515    22801379.823    22801401.765
       197.000         129.000
    821765.40149    642130.17446  21400859.466    21400858.870    21400874.216
       223.000         175.000
 -10357650.38649  -8055962.05946  20954832.531    20954832.907    20954845.943
       229.000         186.000
  -9612877.03149  -6773509.19846  21357927.844    21357929.377    21357947.603
       221.000         163.000
  -6480939.45749  -5042139.01247  19427207.873    19427207.724    19427217.459
       241.000         208.000
 -20650489.24049 -16072909.23747  18399945.941    18399945.730    18399956.169
       232.000         204.000
   1908712.28949   1496063.40846  20216661.513    20216660.978    20216674.590
       227.000         186.000
  -7855433.44249  -6108909.19245  22315727.391    22315727.068    22315743.365
       216.000         158.000
 01 12 19 22  4 59.9930000  0  8G27G 2G26G 4G28G 7G 8G11
  10014696.66849   7803421.98344  22814965.098    22814964.218    22814986.179
       204.000         129.000
    837560.94149    654438.28746  21403865.343    21403864.749    21403880.094
       224.000         175.000
 -10359568.52349  -8057456.75846  20954467.440    20954467.869    20954481.038
       230.000         186.000
  -9756379.60449  -6885328.95446  21330619.852    21330621.386    21330639.528
       217.000         164.000
  -6486634.18849  -5046576.49647  19426124.259    19426124.060    19426133.830
       241.000         208.000
 -20686913.66549 -16101291.88347  18393014.578    18393014.372    18393024.816
       231.000         204.000
   1963046.50749   1538401.62246  20227001.181    20227000.544    20227014.189
       230.000         186.000
  -7831561.69949  -6090307.99245  22320270.136    22320269.845    22320286.176
       217.000         157.000
 01 12 19 22  5 29.9930000  0  8G27G 2G26G 4G28G 7G 8G11
  10086209.90949   7859146.34045  22828573.759    22828573.013    22828594.937
       202.000         138.000
    853494.24949    666853.74246  21406897.456    21406896.870    21406912.150
       225.000         175.000
 -10361018.22149  -8058586.45747  20954191.790    20954192.128    20954205.254
       234.000         188.000
  -9899770.39249  -6997061.63246  21303332.962    21303334.665    21303352.681
       216.000         165.000
  -6492146.33749  -5050871.70047  19425075.317    19425075.142    19425084.939
       240.000         207.000
 -20722936.65849 -16129361.72247  18386159.680    18386159.408    18386169.865
       232.000         204.000
   2017693.50849   1580983.55046  20237400.177    20237399.623    20237413.316
       227.000         185.000
  -7807268.66549  -6071378.49745  22324893.118    22324892.806    22324909.136
       215.000         158.000
 01 12 19 22  5 59.9930000  0  8G27G 2G26G 4G28G 7G 8G11
  10157844.53949   7914965.19045  22842205.796    22842204.911    22842226.987
       204.000         138.000
    869561.07149    679373.22046  21409954.944    21409954.347    21409969.683
       223.000         175.000
 -10362006.12749  -8059356.32346  20954003.971    20954004.231    20954017.309
       230.000         185.000
 -10043050.57749  -7108708.12446  21276067.196    21276068.971    21276086.937
       219.000         165.000
  -6497480.44949  -5055028.17847  19424060.233    19424060.114    19424069.930
       241.000         207.000
 -20758563.96549 -16157123.24147  18379380.066    18379379.750    18379390.225
       232.000         204.000
   2072647.06549   1623804.35346  20247857.639    20247857.051    20247870.778
       228.000         185.000
  -7782560.87349  -6052125.84745  22329594.897    22329594.622    22329611.064
       213.000         156.000
 01 12 19 22  6 29.9930000  0  8G27G 2G26G 4G28G 7G 8G11
  10229611.65649   7970887.27645  22855862.872    22855861.892    22855884.200
       196.000         133.000
    885774.99249    692007.31846  21413040.440    21413039.842    21413055.202
       225.000         175.000
 -10362521.23849  -8059757.79546  20953905.834    20953906.181    20953919.270
       231.000         185.000
 -10186204.05249  -7220255.92846  21248825.699    21248827.408    21248845.262
       221.000         166.000
  -6502622.91149  -5059035.31747  19423081.638    19423081.531    19423091.379
       241.000         207.000
 -20793783.55149 -16184567.05147  18372677.993    18372677.688    18372688.144
       232.000         205.000
   2127918.37849   1666872.75746  20258375.509    20258374.928    20258388.702
       228.000         185.000
  -7757426.92849  -6032541.09245  22334377.823    22334377.574    22334394.065
       217.000         157.000
 01 12 19 22  6 59.9930000  0  7G 2G26G 4G28G 7G 8G11
    902125.03449    704747.49546  21416151.842    21416151.222    21416166.581
       222.000         174.000
 -10362576.83249  -8059801.16946  20953895.264    20953895.580    20953908.778
       230.000         186.000
 -10329238.97749  -7331711.39846  21221606.914    21221608.490    21221626.170
       222.000         169.000
  -6507584.97249  -5062901.88847  19422137.464    19422137.306    19422147.145
       241.000         207.000
 -20828607.90149 -16211702.88147  18366051.192    18366050.832    18366061.279
       232.000         204.000
   2183494.44249   1710178.63046  20268951.401    20268950.811    20268964.641
       228.000         185.000
  -7731880.13349  -6012634.59645  22339239.375    22339239.099    22339255.672
       212.000         155.000
 01 12 19 22  7 29.9930000  0  7G 2G26G 4G28G 7G 8G11
    918618.82249    717599.69146  21419290.649    21419289.994    21419305.335
       224.000         174.000
 -10362167.97449  -8059482.63746  20953972.961    20953973.377    20953986.631
       230.000         184.000
 -10472145.15049  -7443066.56946  21194412.590    21194414.108    21194431.548
       218.000         167.000
  -6512359.46449  -5066622.28947  19421228.892    19421228.761    19421238.597
       240.000         207.000
 -20863030.95249 -16238526.01947  18359500.613    18359500.322    18359510.770
       232.000         203.000
   2239380.58049   1753726.11246  20279586.248    20279585.704    20279599.593
       228.000         185.000
  -7705915.02949  -5992402.16445  22344180.350    22344180.113    22344196.804
       213.000         150.000
 01 12 19 22  7 59.9930000  0  7G 2G26G 4G28G 7G 8G11
    935237.52749    730549.22646  21422453.124    21422452.482    21422467.900
       221.000         175.000
 -10361315.89149  -8058818.74846  20954135.057    20954135.514    20954148.738
       230.000         183.000
 -10614938.56249  -7554333.86446  21167239.629    21167241.089    21167258.440
       221.000         169.000
  -6516965.34449  -5070211.30647  19420352.399    19420352.306    19420362.165
       240.000         206.000
 -20897073.25849 -16265052.46947  18353022.506    18353022.271    18353032.703
       231.000         203.000
   2295555.73849   1797498.80446  20290276.191    20290275.587    20290289.523
       228.000         185.000
  -7679552.91649  -5971860.33445  22349197.005    22349196.750    22349213.446
       213.000         153.000
 01 12 19 22  8 29.9930000  0  7G 2G26G 4G28G 7G 8G11
    952006.23449    743615.63446  21425644.148    21425643.541    21425659.016
       222.000         174.000
 -10359998.04149  -8057791.91946  20954385.931    20954386.333    20954399.418
       232.000         183.000
 -10757591.20349  -7665491.51746  21140093.512    21140094.919    21140112.173
       221.000         168.000
  -6521377.50549  -5073649.36947  19419512.811    19419512.706    19419522.572
       241.000         206.000
 -20930711.05649 -16291263.71647  18346621.469    18346621.174    18346631.613
       232.000         204.000
   2352042.86149   1841514.58746  20301025.475    20301024.841    20301038.816
       229.000         184.000
  -7652770.74849  -5950991.21745  22354293.576    22354293.330    22354310.109
       214.000         155.000
 01 12 19 22  8 59.9930000  0  7G 2G26G 4G28G 7G 8G11
    968913.24449    756789.81046  21428861.459    21428860.919    21428876.423
       222.000         174.000
 -10358228.32549  -8056412.98346  20954722.829    20954723.159    20954736.091
       229.000         183.000
 -10900112.00049  -7776546.45346  21112972.600    21112973.849    21112991.023
       219.000         168.000
  -6525607.88949  -5076945.78847  19418707.831    19418707.720    19418717.579
       240.000         206.000
 -20963957.44149 -16317169.97347  18340294.853    18340294.569    18340305.012
       231.000         204.000
   2408828.11649   1885762.68446  20311831.472    20311830.815    20311844.841
       227.000         183.000
  -7625582.57649  -5929805.72045  22359467.565    22359467.208    22359483.995
       215.000         157.000
 01 12 19 22  9 29.9930000  0  7G 2G26G 4G28G 7G 8G11
    985955.22949    770069.13946  21432104.556    21432103.956    21432119.544
       222.000         174.000
 -10356013.09649  -8054686.86146  20955144.191    20955144.646    20955157.755
       229.000         182.000
 -11042501.68249  -7887499.22046  21085876.445    21085877.717    21085894.763
       220.000         166.000
  -6529660.05649  -5080103.33347  19417936.726    19417936.630    19417946.501
       242.000         206.000
 -20996817.57749 -16342775.25247  18334041.823    18334041.487    18334051.906
       233.000         204.000
   2465905.72949   1930238.58546  20322693.091    20322692.418    20322706.517
       226.000         182.000
  -7597994.47449  -5908308.58445  22364717.509    22364717.181    22364733.966
       217.000         155.000
 01 12 19 22  9 59.9930000  0  7G 2G26G 4G28G 7G 8G11
   1003138.20949    783458.35646  21435374.468    21435373.852    21435389.483
       220.000         174.000
 -10353348.37649  -8052610.52246  20955651.303    20955651.751    20955664.828
       229.000         184.000
 -11184750.99049  -7998342.63546  21058807.103    21058808.323    21058825.214
       221.000         166.000
  -6533528.00049  -5083117.33647  19417200.708    19417200.604    19417210.442
       241.000         205.000
 -21029286.71249 -16368075.86547  18327863.145    18327862.815    18327873.219
       231.000         204.000
   2523279.98049   1974945.62946  20333611.141    20333610.454    20333624.654
       226.000         183.000
  -7570001.93149  -5886496.26545  22370044.296    22370044.034    22370060.788
       216.000         151.000
 01 12 19 22 10 29.9930000  0  7G 2G26G 4G28G 7G 8G11
   1020469.24749    796962.93746  21438672.463    21438671.884    21438687.603
       221.000         175.000
 -10350229.83749  -8050180.52846  20956244.831    20956245.229    20956258.407
       232.000         186.000
 -11326850.36449  -8109069.25146  21031766.294    21031767.474    21031784.202
       219.000         167.000
  -6537204.93249  -5085982.49547  19416501.118    19416500.925    19416510.767
       241.000         205.000
 -21061359.37549 -16393067.54247  18321759.853    18321759.577    18321769.972
       231.000         204.000
   2580955.57549   2019887.48746  20344586.493    20344585.847    20344600.136
       226.000         183.000
  -7541600.58849  -5864365.37345  22375449.046    22375448.756    22375465.464
       216.000         154.000
 01 12 19 22 10 59.9930000  0  7G 2G26G 4G28G 7G 8G11
   1037940.63449    810576.88746  21441997.349    21441996.716    21442012.461
       224.000         175.000
 -10346667.74249  -8047404.92246  20956922.779    20956923.123    20956936.330
       231.000         184.000
 -11468804.46549  -8219682.63646  21004753.094    21004754.238    21004770.932
       220.000         167.000
  -6540698.61549  -5088704.86247  19415836.281    19415836.109    19415845.964
       241.000         205.000
 -21093044.94049 -16417757.58247  18315730.294    18315730.006    18315740.375
       232.000         204.000
   2638922.55249   2065056.38846  20355617.285    20355616.699    20355631.069
       226.000         182.000
  -7512800.42049  -5841923.74545  22380929.577    22380929.315    22380946.084
       215.000         156.000
 01 12 19 22 11 29.9930000  0  7G 2G26G 4G28G 7G 8G11
   1055541.91649    824292.05246  21445346.884    21445346.235    21445361.996
       222.000         174.000
 -10342674.98549  -8044293.74346  20957682.725    20957683.029    20957696.148
       232.000         186.000
 -11610620.99049  -8330188.81946  20977766.101    20977767.199    20977783.851
       221.000         169.000
  -6544019.48349  -5091292.56547  19415204.444    19415204.201    19415214.028
       241.000         205.000
 -21124355.21649 -16442155.19347  18309772.180    18309771.835    18309782.213
       231.000         203.000
   2697168.22749   2110442.46446  20366701.262    20366700.609    20366715.016
       226.000         182.000
  -7483614.23649  -5819181.34245  22386483.458    22386483.297    22386500.201
       213.000         155.000
 01 12 19 22 11 59.9930000  0  7G 2G26G 4G28G 7G 8G11
   1073289.46049    838121.17546  21448724.298    21448723.578    21448739.361
       223.000         174.000
 -10338238.00749  -8040836.42047  20958527.160    20958527.425    20958540.610
       231.000         188.000
 -11752280.67149  -8440572.82146  20950809.054    20950810.051    20950826.674
       222.000         170.000
  -6547151.51449  -5093733.11847  19414608.394    19414608.194    19414618.037
       240.000         205.000
 -21155275.59049 -16466248.99647  18303888.211    18303887.873    18303898.263
       231.000         204.000
   2755706.85249   2156056.79146  20377840.998    20377840.270    20377854.687
       226.000         182.000
  -7454028.08549  -5796127.27645  22392113.470    22392113.350    22392130.312
       214.000         153.000
 01 12 19 22 12 29.9930000  0  7G 2G26G 4G28G 7G 8G11
   1091183.37349    852064.36546  21452129.571    21452128.806    21452144.597
       223.000         174.000
 -10333359.22849  -8037034.81646  20959455.640    20959455.885    20959469.191
       232.000         187.000
 -11893780.86249  -8550832.48946  20923882.320    20923883.267    20923899.798
       219.000         170.000
  -6550094.73949  -5096026.55747  19414048.304    19414048.145    19414057.973
       241.000         205.000
 -21185807.62249 -16490040.18947  18298078.172    18298077.800    18298088.178
       231.000         204.000
   2814535.96949   2201897.49246  20389035.999    20389035.222    20389049.652
       225.000         180.000
  -7424044.28149  -5772763.35545  22397819.286    22397819.132    22397836.072
       214.000         154.000
 01 12 19 22 12 59.9930000  0  7G 2G26G 4G28G 7G 8G11
   1109237.76149    866132.59246  21455565.283    21455564.542    21455580.407
       221.000         174.000
 -10328027.00649  -8032879.89146  20960470.361    20960470.619    20960484.080
       231.000         187.000
 -12035104.10449  -8660954.27946  20896989.280    20896990.188    20897006.652
       224.000         170.000
  -6552834.85649  -5098161.73247  19413526.871    19413526.718    19413536.584
       241.000         205.000
 -21215938.52149 -16513518.81647  18292344.355    18292344.061    18292354.454
       230.000         204.000
   2873667.74949   2247974.03546  20400288.507    20400287.759    20400302.209
       226.000         179.000
  -7393650.67749  -5749080.13445  22403603.081    22403602.922    22403619.903
       215.000         154.000
 01 12 19 22 13 29.9930000  0  7G 2G26G 4G28G 7G 8G11
   1127446.89449    880321.38646  21459030.403    21459029.710    21459045.619
       219.000         173.000
 -10322249.66749  -8028378.12546  20961569.794    20961570.069    20961583.566
       230.000         187.000
 -12176253.65949  -8770940.71746  20870129.289    20870130.165    20870146.572
       221.000         170.000
  -6555377.97649  -5100143.41147  19413042.970    19413042.808    19413052.679
       240.000         205.000
 -21245675.73749 -16536690.68047  18286685.467    18286685.246    18286695.660
       231.000         204.000
   2933094.39849   2294280.35446  20411597.092    20411596.427    20411610.840
       226.000         180.000
  -7362855.45049  -5725083.95945  22409463.264    22409463.103    22409480.100
       215.000         157.000
 01 12 19 22 13 59.9930000  0  7G 2G26G 4G28G 7G 8G11
   1145799.07749    894621.65446  21462522.896    21462522.115    21462538.075
       221.000         173.000
 -10316041.75349  -8023540.84246  20962751.179    20962751.436    20962764.971
       231.000         186.000
 -12317238.15349  -8880798.52646  20843300.596    20843301.518    20843317.899
       221.000         171.000
  -6557735.82049  -5101980.71647  19412594.204    19412594.146    19412604.000
       240.000         205.000
 -21275032.47749 -16559566.06547  18281099.041    18281098.845    18281109.239
       231.000         204.000
   2992801.51749   2340805.21046  20422959.172    20422958.468    20422972.847
       227.000         180.000
  -7331673.04749  -5700786.10645  22415397.180    22415397.009    22415414.061
       216.000         160.000
 01 12 19 22 14 29.9930000  0  7G 2G26G 4G28G 7G 8G11
   1164299.87949    909037.73746  21466043.546    21466042.798    21466058.813
       221.000         172.000
 -10309400.38449  -8018365.80646  20964014.894    20964015.234    20964028.745
       229.000         184.000
 -12458049.46449  -8990521.36646  20816504.716    20816505.770    20816522.163
       221.000         171.000
  -6559903.08249  -5103669.51647  19412181.782    19412181.733    19412191.606
       240.000         205.000
 -21304004.88449 -16582141.97047  18275585.828    18275585.551    18275595.959
       231.000         203.000
   3052792.66149   2387551.40946  20434375.259    20434374.568    20434388.923
       227.000         181.000
  -7300100.00549  -5676183.87045  22421405.392    22421405.248    22421422.318
       215.000         159.000
 01 12 19 22 14 59.9930000  0  7G 2G26G 4G28G 7G 8G11
   1182942.95049    923564.67346  21469591.261    21469590.529    21469606.579
       220.000         172.000
 -10302334.40549  -8012859.90746  20965359.593    20965359.927    20965373.398
       231.000         187.000
 -12598690.91049  -9100111.85046  20789741.470    20789742.372    20789758.739
       222.000         172.000
  -6561886.20249  -5105214.82847  19411804.490    19411804.389    19411814.233
       241.000         205.000
 -21332601.01549 -16604424.67047  18270144.100    18270143.881    18270154.282
       232.000         203.000
   3113059.13349   2434512.13546  20445843.716    20445843.053    20445857.399
       226.000         182.000
  -7268145.23149  -5651284.19945  22427486.230    22427486.103    22427503.242
       212.000         156.000
 01 12 19 22 15 29.9930000  0  7G 2G26G 4G28G 7G 8G11
   1201716.58449    938193.35346  21473163.803    21473163.125    21473179.179
       219.000         171.000
 -10294858.36249  -8007034.47846  20966782.312    20966782.611    20966796.109
       229.000         186.000
 -12739171.44749  -9209576.92246  20763008.759    20763009.634    20763025.947
       221.000         172.000
  -6563697.00949  -5106625.87247  19411459.923    19411459.818    19411469.666
       241.000         205.000
 -21360834.12849 -16626424.50047  18264771.417    18264771.286    18264781.676
       231.000         204.000
   3173586.88649   2481676.45246  20457361.887    20457361.235    20457375.587
       227.000         180.000
  -7235822.84749  -5626098.11345  22433637.043    22433636.915    22433654.058
       212.000         154.000
 01 12 19 22 15 59.9930000  0  7G 2G26G 4G28G 7G 8G11
   1220634.34649    952934.34246  21476763.852    21476763.161    21476779.260
       221.000         171.000
 -10286961.54049  -8000881.16346  20968285.017    20968285.354    20968298.916
       231.000         186.000
 -12879474.71249  -9318903.85746  20736309.724    20736310.600    20736326.876
       221.000         173.000
  -6565322.12649  -5107892.22147  19411150.747    19411150.599    19411160.425
       241.000         205.000
 -21388692.39549 -16648132.24247  18259470.205    18259470.044    18259480.413
       231.000         204.000
   3234387.25449   2529053.19146  20468932.038    20468931.263    20468945.669
       224.000         179.000
  -7203121.71449  -5600616.87345  22439860.003    22439859.849    22439876.986
       212.000         154.000
 01 12 19 22 16 29.9930000  0  7G 2G26G 4G28G 7G 8G11
   1239699.32949    967790.04346  21480391.885    21480391.208    21480407.356
       220.000         172.000
 -10278643.15549  -7994399.35946  20969868.064    20969868.354    20969881.935
       232.000         187.000
 -13019594.64849  -9428087.94146  20709645.553    20709646.436    20709662.687
       222.000         172.000
  -6566758.35449  -5109011.38947  19410877.528    19410877.315    19410887.132
       240.000         205.000
 -21416174.08849 -16669546.54447  18254240.617    18254240.435    18254250.811
       231.000         204.000
   3295461.12649   2576643.04146  20480554.077    20480553.339    20480567.835
       224.000         179.000
  -7170040.89949  -5574839.79545  22446155.102    22446154.961    22446172.223
       209.000         149.000
 01 12 19 22 16 59.9930000  0  7G 2G26G 4G28G 7G 8G11
   1258931.47849    982776.01246  21484051.662    21484051.050    21484067.213
       221.000         171.000
 -10269886.22249  -7987575.83046  20971534.550    20971534.783    20971548.411
       233.000         187.000
 -13159508.55649  -9537111.48746  20683020.635    20683021.512    20683037.728
       224.000         174.000
  -6567985.87949  -5109967.93147  19410643.955    19410643.749    19410653.565
       241.000         204.000
 -21443261.11649 -16690653.31247  18249086.070    18249085.943    18249096.324
       231.000         203.000
   3356826.16449   2624459.78346  20492231.576    20492230.830    20492245.385
       223.000         179.000
  -7136563.02349  -5548753.26145  22452525.902    22452525.653    22452543.052
       209.000         146.000
 01 12 19 22 17 29.9930000  0  7G 2G26G 4G28G 7G 8G11
   1278323.50449    997886.57646  21487741.927    21487741.297    21487757.509
       220.000         171.000
 -10260700.67149  -7980418.31047  20973282.622    20973282.835    20973296.429
       233.000         189.000
 -13299220.79249  -9645977.88446  20656434.204    20656435.002    20656451.164
       224.000         176.000
  -6569012.08449  -5110767.60647  19410448.656    19410448.478    19410458.323
       240.000         204.000
 -21469962.29749 -16711459.41647  18244005.051    18244004.864    18244015.250
       231.000         204.000
   3418472.71549   2672495.88246  20503962.697    20503961.901    20503976.533
       224.000         179.000
  -7102697.85949  -5522364.96145  22458970.325    22458970.058    22458987.432
       209.000         143.000
 01 12 19 22 17 59.9920000  0  7G 2G26G 4G28G 7G 8G11
   1297870.79549   1013118.10146  21491461.929    21491461.127    21491477.355
       219.000         170.000
 -10251093.52349  -7972932.29047  20975110.895    20975111.067    20975124.732
       232.000         189.000
 -13438727.76649  -9754684.33646  20629886.651    20629887.542    20629903.634
       223.000         176.000
  -6569841.09849  -5111413.62047  19410290.878    19410290.737    19410300.602
       241.000         204.000
 -21496282.41849 -16731968.59147  18238996.519    18238996.330    18239006.712
       232.000         203.000
   3480392.42849   2720744.83946  20515745.752    20515744.957    20515759.653
       226.000         179.000
  -7068452.85549  -5495680.68245  22465487.011    22465486.733    22465504.133
       212.000         147.000
 01 12 19 22 18 29.9920000  0  7G 2G26G 4G28G 7G 8G11
   1317559.53149   1028459.85446  21495208.560    21495207.872    21495224.087
       220.000         172.000
 -10241082.00149  -7965131.16446  20977016.080    20977016.272    20977029.931
       231.000         187.000
 -13578051.21649  -9863247.78746  20603374.001    20603374.962    20603390.990
       225.000         176.000
  -6570487.98249  -5111917.71947  19410167.863    19410167.676    19410177.565
       240.000         205.000
 -21522239.98049 -16752195.23847  18234057.069    18234056.754    18234067.139
       232.000         203.000
   3542572.26149   2769196.49946  20527578.204    20527577.520    20527592.230
       225.000         177.000
  -7033843.31349  -5468712.32245  22472073.044    22472072.830    22472090.255
       213.000         148.000
 01 12 19 22 18 59.9920000  0  7G 2G26G 4G28G 7G 8G11
   1337406.95849   1043925.24846  21498985.521    21498984.809    21499001.074
       220.000         171.000
 -10230651.31649  -7957003.41246  20979000.945    20979001.188    20979014.854
       232.000         187.000
 -13717165.40749  -9971648.18346  20576901.313    20576902.201    20576918.173
       224.000         176.000
  -6570934.89449  -5112265.99647  19410082.794    19410082.638    19410092.583
       240.000         205.000
 -21547817.90449 -16772126.07147  18229189.706    18229189.439    18229199.819
       232.000         204.000
   3605025.47549   2817861.19646  20539462.817    20539462.122    20539476.843
       225.000         176.000
  -6998854.93049  -5441448.77445  22478731.310    22478731.020    22478748.432
       217.000         150.000
 01 12 19 22 19 29.9920000  0  7G 2G26G 4G28G 7G 8G11
   1357391.12049   1059497.18146  21502788.528    21502787.810    21502804.116
       219.000         173.000
 -10219826.13549  -7948568.27447  20981060.946    20981061.185    20981074.871
       230.000         188.000
 -13856089.63949 -10079900.57146  20550464.717    20550465.631    20550481.551
       224.000         178.000
  -6571203.88849  -5112475.64647  19410031.693    19410031.495    19410041.435
       241.000         205.000
 -21573039.65049 -16791779.36647  18224390.090    18224389.876    18224400.281
       232.000         204.000
   3667728.02349   2866720.17446  20551394.833    20551394.155    20551408.850
       222.000         174.000
  -6963512.11149  -5413909.02745  22485456.985    22485456.665    22485474.141
       217.000         151.000
 01 12 19 22 19 59.9920000  0  7G 2G26G 4G28G 7G 8G11
   1377517.13949   1075179.65146  21506618.410    21506617.749    21506634.095
       221.000         171.000
 -10208604.25049  -7939824.00946  20983196.501    20983196.712    20983210.478
       231.000         186.000
 -13994816.05149 -10187998.83046  20524065.671    20524066.688    20524082.516
       225.000         177.000
  -6571290.03549  -5112542.80747  19410015.283    19410015.116    19410025.079
       239.000         204.000
 -21597902.00649 -16811152.60847  18219658.993    18219658.720    18219669.126
       232.000         204.000
   3730682.46749   2915775.43246  20563374.881    20563374.102    20563388.790
       222.000         174.000
  -6927812.46749  -5386091.22145  22492250.567    22492250.185    22492267.742
       216.000         150.000
 01 12 19 22 20 29.9920000  0  7G 2G26G 4G28G 7G 8G11
   1397787.43949   1090974.56446  21510475.806    21510475.168    21510491.508
       220.000         171.000
 -10196985.92449  -7930770.83246  20985407.383    20985407.620    20985421.356
       232.000         187.000
 -14133339.16049 -10295938.68046  20497705.396    20497706.430    20497722.165
       226.000         177.000
  -6571190.93249  -5112465.63047  19410034.136    19410033.995    19410043.969
       241.000         204.000
 -21622404.08649 -16830245.12747  18214996.397    18214996.104    18215006.544
       232.000         204.000
   3793889.03949   2965027.14446  20575402.726    20575401.991    20575416.753
       222.000         173.000
  -6891755.62549  -5357995.07245  22499112.063    22499111.711    22499129.315
       215.000         150.000
 01 12 19 22 20 59.9920000  0  7G 2G26G 4G28G 7G 8G11
   1418201.68649   1106881.63446  21514360.609    21514359.980    21514376.360
       219.000         169.000
 -10184974.51449  -7921411.34446  20987693.136    20987693.392    20987707.031
       231.000         185.000
 -14271656.59149 -10403718.27946  20471384.288    20471385.308    20471400.962
       226.000         178.000
  -6570907.25449  -5112244.62547  19410088.196    19410088.014    19410097.986
       240.000         204.000
 -21646547.99149 -16849058.54947  18210402.030    18210401.649    18210412.106
       231.000         204.000
   3857345.05649   3014473.23346  20587478.122    20587477.369    20587492.186
       224.000         175.000
  -6855344.75949  -5329623.04745  22506040.891    22506040.592    22506058.234
       214.000         152.000
 01 12 19 22 21 29.9920000  0  7G 2G26G 4G28G 7G 8G11
   1438763.24349   1122903.49946  21518273.426    21518272.780    21518289.206
       220.000         170.000
 -10172569.30849  -7911745.00846  20990053.875    20990054.104    20990067.662
       232.000         186.000
 -14409762.00949 -10511332.67546  20445103.532    20445104.562    20445120.091
       227.000         179.000
  -6570435.44549  -5111877.03147  19410178.035    19410177.828    19410187.800
       239.000         204.000
 -21670331.93649 -16867591.48647  18205876.125    18205875.706    18205886.169
       232.000         204.000
   3921051.45849   3064114.41846  20599601.197    20599600.374    20599615.280
       220.000         175.000
  -6818578.83849  -5300974.36745  22513037.282    22513037.010    22513054.675
       211.000         151.000
 01 12 19 22 21 59.9920000  0  7G 2G26G 4G28G 7G 8G11
   1459461.18649   1139031.63846  21522212.148    21522211.556    21522227.985
       216.000         170.000
 -10159783.88049  -7901782.42446  20992486.948    20992487.135    20992500.660
       230.000         186.000
 -14547663.18149 -10618787.95546  20418861.689    20418862.700    20418878.099
       226.000         176.000
  -6569786.08949  -5111371.07847  19410301.596    19410301.414    19410311.419
       240.000         203.000
 -21693768.51349 -16885853.75047  18201416.280    18201415.888    18201426.317
       233.000         205.000
   3984995.24049   3113940.57646  20611769.391    20611768.598    20611783.563
       223.000         176.000
  -6781470.98549  -5272059.29545  22520098.749    22520098.468    22520116.186
       207.000         150.000
 01 12 19 22 22 29.9920000  0  7G 2G26G 4G28G 7G 8G11
   1480317.19949   1155282.94446  21526181.039    21526180.437    21526196.874
       218.000         169.000
 -10146599.45849  -7891508.91146  20994995.921    20994996.121    20995009.636
       231.000         187.000
 -14685335.64049 -10726065.02646  20392663.394    20392664.354    20392679.603
       226.000         177.000
  -6568937.95249  -5110710.23547  19410463.028    19410462.830    19410472.830
       240.000         203.000
 -21716837.61949 -16903829.66847  18197026.337    18197025.985    18197036.393
       232.000         205.000
   4049195.65349   3163966.72846  20623986.540    20623985.682    20624000.630
       223.000         175.000
  -6744002.21749  -5242862.99845  22527228.912    22527228.666    22527246.363
       207.000         149.000
 01 12 19 22 22 59.9920000  0  7G 2G26G 4G28G 7G 8G11
   1501320.99949   1171649.40446  21530177.956    21530177.432    21530193.896
       217.000         169.000
 -10133029.33449  -7880934.85446  20997578.270    20997578.489    20997592.056
       231.000         187.000
 -14822787.06349 -10833169.86446  20366507.076    20366508.041    20366523.179
       227.000         176.000
  -6567901.46849  -5109902.63347  19410660.232    19410660.082    19410670.085
       239.000         202.000
 -21739551.51549 -16921528.80647  18192704.028    18192703.672    18192714.079
       232.000         204.000
   4113640.02549   3214182.94946  20636250.001    20636249.163    20636264.159
       225.000         175.000
  -6706185.41649  -5213395.52345  22534425.206    22534425.089    22534442.699
       206.000         150.000
 01 12 19 22 23 29.9920000  0  7G 2G26G 4G28G 7G 8G11
   1522463.72349   1188124.12146  21534201.369    21534200.829    21534217.390
       219.000         168.000
 -10119085.11349  -7870069.29546  21000231.814    21000232.057    21000245.665
       229.000         186.000
 -14960023.35049 -10940107.06446  20340391.699    20340392.651    20340407.716
       226.000         177.000
  -6566685.32949  -5108955.03047  19410891.583    19410891.512    19410901.543
       239.000         202.000
 -21761920.51349 -16938959.19147  18188447.306    18188446.971    18188457.386
       232.000         204.000
   4178317.17549   3264580.58246  20648557.807    20648556.958    20648571.954
       224.000         174.000
  -6668031.89649  -5183665.63745  22541685.688    22541685.517    22541703.107
       208.000         150.000
 01 12 19 22 23 59.9920000  0  7G 2G26G 4G28G 7G 8G11
   1543760.50049   1204718.87946  21538254.165    21538253.559    21538270.137
       216.000         165.000
 -10104754.30449  -7858902.51946  21002958.804    21002959.106    21002972.820
       228.000         184.000
 -15097026.15349 -11046862.35846  20314320.728    20314321.722    20314336.688
       228.000         179.000
  -6565274.35149  -5107855.61347  19411160.094    19411160.023    19411170.078
       239.000         202.000
 -21783931.10349 -16956110.29947  18184258.753    18184258.483    18184268.898
       231.000         204.000
   4243240.27549   3315169.87046  20660912.400    20660911.575    20660926.533
       223.000         169.000
  -6629528.89949  -5153663.42545  22549012.703    22549012.499    22549030.086
       210.000         154.000
 01 12 19 22 24 29.9920000  0  7G 2G26G 4G28G 7G 8G11
   1565205.00249   1221428.74746  21542335.011    21542334.404    21542350.994
       218.000         166.000
 -10090046.32249  -7847441.84046  21005757.651    21005757.956    21005771.754
       227.000         185.000
 -15233799.05149 -11153438.48546  20288293.622    20288294.568    20288309.471
       228.000         179.000
  -6563674.94249  -5106609.36647  19411464.523    19411464.413    19411474.457
       239.000         202.000
 -21805591.43049 -16972988.47647  18180136.923    18180136.628    18180147.071
       232.000         204.000
   4308400.22249   3365943.70746  20673311.882    20673311.195    20673326.164
       220.000         168.000
  -6590685.39849  -5123395.86645  22556404.461    22556404.232    22556421.903
       214.000         156.000
 01 12 19 22 24 59.9920000  0  7G 2G26G 4G28G 7G 8G11
   1586802.23249   1238257.62146  21546444.862    21546444.309    21546460.923
       219.000         167.000
 -10074958.83149  -7835685.43046  21008628.717    21008629.022    21008642.906
       227.000         184.000
 -15370334.04949 -11259829.23546  20262311.740    20262312.674    20262327.543
       230.000         180.000
  -6561881.91249  -5105212.23847  19411805.801    19411805.637    19411815.697
       239.000         202.000
 -21826898.05949 -16989591.04147  18176082.416    18176082.084    18176092.556
       232.000         204.000
   4373799.96049   3416904.42346  20685757.036    20685756.458    20685771.427
       220.000         167.000
  -6551498.74649  -5092860.92445  22563861.566    22563861.330    22563878.996
       213.000         157.000
 01 12 19 22 25 29.9920000  0  7G 2G26G 4G28G 7G 8G11
   1608544.27549   1255199.33346  21550582.382    21550581.799    21550598.463
       219.000         168.000
 -10059502.78849  -7823641.84846  21011569.807    21011570.205    21011584.225
       229.000         186.000
 -15506636.21849 -11366038.54146  20236374.125    20236375.099    20236389.929
       227.000         181.000
  -6559903.58849  -5103670.72947  19412182.305    19412182.128    19412192.174
       239.000         203.000
 -21847860.74749 -17005925.60047  18172093.272    18172092.997    18172103.455
       232.000         204.000
   4439429.09649   3468043.84846  20698245.818    20698245.314    20698260.404
       218.000         167.000
  -6511979.58549  -5062066.89845  22571381.833    22571381.693    22571399.370
       214.000         155.000
 01 12 19 22 25 59.9920000  0  7G 2G26G 4G28G 7G 8G11
   1630436.70949   1272258.24146  21554748.493    21554747.885    21554764.603
       219.000         167.000
 -10043675.72849  -7811309.16946  21014581.731    21014582.047    21014596.125
       229.000         186.000
 -15642697.32249 -11472060.02346  20210482.489    20210483.392    20210498.193
       227.000         179.000
  -6557734.33849  -5101980.44847  19412595.176    19412594.963    19412605.012
       239.000         202.000
 -21868475.82049 -17021989.29247  18168170.461    18168170.071    18168180.527
       233.000         205.000
   4505290.74549   3519364.45546  20710778.795    20710778.454    20710793.609
       218.000         169.000
  -6472124.85549  -5031011.38745  22578966.043    22578965.903    22578983.549
       212.000         151.000
 01 12 19 22 26 29.9920000  0  8G 2G26G 4G28G 7G 8G24G11
   1652495.64749   1289446.88146  21558946.357    21558945.677    21558962.358
       220.000         167.000
 -10027464.03749  -7798676.78546  21017666.686    21017667.024    21017681.134
       227.000         182.000
 -15778498.06949 -11577878.60446  20184640.315    20184641.200    20184655.983
       226.000         179.000
  -6555357.85949  -5100128.69747  19413047.433    19413047.232    19413057.276
       239.000         202.000
 -21888728.48749 -17037770.59147  18164316.495    18164316.130    18164326.560
       232.000         205.000
   4571398.71149   3570877.00046  20723359.004    20723358.524    20723373.743
       221.000         173.000
   -281842.33254                  22757770.685
       202.000         124.000
  -6431920.63249  -4999683.51545  22586616.678    22586616.588    22586634.261
       210.000         149.000
 01 12 19 22 26 59.9920000  0  8G 2G26G 4G28G 7G 8G24G11
   1674698.42549   1306747.61746  21563171.494    21563170.825    21563187.554
       221.000         165.000
 -10010893.57149  -7785764.80346  21020820.023    21020820.311    21020834.394
       227.000         182.000
 -15914058.40349 -11683509.84046  20158843.836    20158844.761    20158859.515
       228.000         181.000
  -6552797.00949  -5098133.27147  19413534.819    19413534.588    19413544.612
       239.000         202.000
 -21908643.23749 -17053288.57947  18160526.758    18160526.490    18160536.904
       233.000         205.000
   4637728.16649   3622562.12846  20735981.374    20735980.774    20735996.044
       224.000         177.000
    -45220.01843                  22729778.788
       202.000          74.000
  -6391392.40849  -4968103.17345  22594329.058    22594328.938    22594346.649
       209.000         146.000
 01 12 19 22 27 29.9920000  0  8G 2G26G 4G28G 7G 8G24G11
   1697047.07449   1324162.01546  21567424.482    21567423.736    21567440.381
       220.000         164.000
  -9993965.11049  -7772573.90146  21024041.435    21024041.739    21024055.872
       228.000         182.000
 -16049373.29149 -11788949.79846  20133094.217    20133095.049    20133109.784
       228.000         180.000
  -6550049.96849  -5095992.76347  19414057.617    19414057.376    19414067.407
       240.000         202.000
 -21928219.92749 -17068543.13847  18156801.411    18156801.164    18156811.597
       231.000         205.000
   4704278.42649   3674419.31846  20748645.664    20748644.999    20748660.347
       223.000         176.000
   -159900.65745                  22701771.852
       203.000         135.000
  -6350540.79749  -4936270.84945  22602103.022    22602102.850    22602120.612
       206.000         140.000
 01 12 19 22 27 59.9920000  0  8G 2G26G 4G28G 7G 8G24G11
   1719543.44249   1341691.52246  21571705.563    21571704.796    21571721.408
       220.000         165.000
  -9976679.72049  -7759104.85446  21027330.747    21027331.074    21027345.281
       228.000         184.000
 -16184437.89349 -11894194.71246  20107392.091    20107392.948    20107407.684
       228.000         180.000
  -6547114.37549  -5093705.33647  19414616.296    19414616.044    19414626.087
       240.000         202.000
 -21947458.18749 -17083533.99247  18153140.478    18153140.223    18153150.678
       232.000         205.000
   4771049.22049   3726448.34946  20761351.950    20761351.198    20761366.623
       222.000         175.000
   -832488.58849   -274639.13545  22673750.743    22673750.798    22673775.816
       202.000         136.000
  -6309366.35949  -4904186.98645  22609938.206    22609938.135    22609955.946
       202.000         136.000
 01 12 19 22 28 29.9920000  0  8G 2G26G 4G28G 7G 8G24G11
   1742187.38549   1359336.02546  21576014.547    21576013.882    21576030.568
       220.000         163.000
  -9959040.28649  -7745359.94546  21030687.647    21030687.865    21030702.028
       228.000         183.000
 -16319249.46249 -11999242.45346  20081738.061    20081738.989    20081753.696
       227.000         180.000
  -6543990.54149  -5091271.21547  19415210.787    19415210.528    19415220.564
       239.000         202.000
 -21966359.92449 -17098262.62347  18149543.567    18149543.331    18149553.803
       232.000         205.000
   4838038.09749   3778647.31746  20774099.563    20774098.886    20774114.363
       221.000         174.000
   -979809.94649   -389434.13345  22645715.779    22645713.130    22645742.898
       197.000         134.000
  -6267871.68749  -4871853.60244  22617834.535    22617834.434    22617852.164
       201.000         131.000
 01 12 19 22 28 59.9920000  0  8G 2G26G 4G28G 7G 8G24G11
   1764988.66549   1377103.13845  21580353.613    21580352.924    21580369.627
       218.000         162.000
  -9941040.26249  -7731334.04246  21034112.936    21034113.216    21034127.340
       228.000         184.000
 -16453795.42449 -12104083.20746  20056134.566    20056135.543    20056150.251
       227.000         180.000
  -6540668.78649  -5088682.87147  19415842.904    19415842.662    19415852.712
       239.000         202.000
 -21984917.15549 -17112722.81247  18146012.221    18146012.002    18146022.476
       233.000         205.000
   4905252.38949   3831021.91146  20786890.162    20786889.443    20786905.017
       220.000         171.000
  -1127191.93259   -504276.48555  22617669.713    22617668.274    22617694.750
       201.000         135.000
  -6226049.73049  -4839265.15544  22625793.041    22625793.000    22625810.743
       198.000         128.000
 01 12 19 22 29 29.9920000  0  9G 2G26G 4G 9G28G 7G 8G24G11
   1787940.56349   1394987.59745  21584721.278    21584720.597    21584737.334
       218.000         161.000
  -9922688.93849  -7717034.41146  21037605.274    21037605.460    21037619.613
       229.000         184.000
 -16588079.13949 -12208719.58146  20030581.052    20030582.022    20030596.709
       228.000         182.000
   -210035.23855                  20858408.254
       213.000         154.000
  -6537155.56549  -5085945.33247  19416511.484    19416511.259    19416521.306
       240.000         202.000
 -22003138.01949 -17126920.89147  18142544.881    18142544.670    18142555.154
       231.000         205.000
   4972683.28049   3883565.29746  20799721.848    20799721.181    20799736.810
       217.000         166.000
  -1274638.71049   -619169.33945  22589611.299    22589609.870    22589636.539
       199.000         137.000
  -6183909.22649  -4806428.50644  22633812.168    22633812.075    22633829.869
       196.000         121.000
 01 12 19 22 29 59.9920000  0  9G 2G26G 4G 9G28G 7G 8G24G11
   1811050.22249   1412994.98745  21589119.028    21589118.324    21589135.067
       218.000         161.000
  -9903982.33849  -7702457.94046  21041165.143    21041165.288    21041179.415
       228.000         180.000
 -16722091.11249 -12313144.22146  20005079.250    20005080.215    20005094.857
       226.000         183.000
   -434818.57749   -311632.80745  20833597.007    20833596.759    20833612.591
       217.000         159.000
  -6533443.79849  -5083053.08547  19417217.947    19417217.646    19417227.681
       240.000         203.000
 -22021017.34649 -17140852.84747  18139142.441    18139142.326    18139152.825
       232.000         205.000
   5040335.26549   3936280.96145  20812595.542    20812594.988    20812610.691
       217.000         162.000
  -1422141.30348   -734105.64845  22561542.148    22561540.795    22561567.491
       193.000         132.000
  -6141445.95048  -4773340.30544  22641892.739    22641892.557    22641910.275
       192.000         115.000
 01 12 19 22 30 29.9920000  0  9G 2G26G 4G 9G28G 7G 8G24G11
   1834327.31649   1431132.84445  21593548.595    21593547.939    21593564.741
       217.000         162.000
  -9884913.72449  -7687599.39646  21044793.740    21044793.966    21044808.055
       227.000         179.000
 -16855818.67349 -12417347.23446  19979631.486    19979632.535    19979647.140
       227.000         183.000
   -564924.76249   -413014.00746  20808838.726    20808839.012    20808853.775
       218.000         164.000
  -6529523.79549  -5079998.57447  19417963.959    19417963.655    19417973.672
       240.000         202.000
 -22038547.12349 -17154512.42147  18135806.728    18135806.514    18135817.030
       233.000         205.000
   5108215.72649   3989174.67546  20825512.887    20825512.343    20825528.025
       218.000         165.000
  -1569687.16249   -849075.70544  22533464.480    22533463.417    22533490.396
       200.000         130.000
  -6098652.67448  -4739994.94644  22650035.969    22650037.452    22650056.961
       185.000         109.000
 01 12 19 22 30 59.9920000  0  9G 2G26G 4G 9G28G 7G 8G24G11
   1857760.16849   1449392.08245  21598007.839    21598007.170    21598024.014
       217.000         161.000
  -9865497.77449  -7672470.17546  21048488.543    21048488.754    21048502.807
       227.000         180.000
 -16989270.47249 -12521335.36346  19954236.285    19954237.323    19954251.896
       227.000         183.000
   -694762.86459   -514186.32156  20784131.348    20784131.341    20784146.576
       222.000         169.000
  -6525407.36449  -5076791.00247  19418747.252    19418747.024    19418757.035
       240.000         202.000
 -22055740.91849 -17167910.19347  18132534.885    18132534.653    18132545.149
       232.000         205.000
   5176310.54149   4042235.41346  20838471.096    20838470.506    20838486.121
       221.000         167.000
  -1717285.54249   -964086.75845  22505376.909    22505376.212    22505403.006
       206.000         136.000
                  -4706403.71344  22658239.473                    22658259.588
       184.000         107.000
 01 12 19 22 31 29.9920000  0  9G 2G26G 4G 9G28G 7G 8G24G11
   1881360.63849   1467781.92245  21602499.008    21602498.300    21602515.186
       218.000         161.000
  -9845725.42749  -7657063.25946  21052251.314    21052251.423    21052265.372
       227.000         180.000
 -17122431.63849 -12625097.03746  19928896.311    19928897.414    19928911.948
       228.000         184.000
   -824318.41349   -615138.46146  20759477.667    20759477.675    20759492.864
       226.000         174.000
  -6521082.48449  -5073421.01247  19419570.263    19419570.044    19419580.096
       239.000         202.000
 -22072588.26249 -17181038.00047  18129328.880    18129328.720    18129339.183
       231.000         205.000
   5244629.33549   4095470.68046  20851472.017    20851471.315    20851486.917
       221.000         167.000
  -1864922.92849  -1079128.18545  22477281.969    22477281.500    22477308.417
       208.000         133.000
                  -4672559.30044  22666504.552
       180.000         102.000
 01 12 19 22 31 59.9920000  0  9G 2G26G 4G 9G28G 7G 8G24G11
   1905095.41849   1486276.41545  21607015.655    21607014.989    21607031.949
       217.000         162.000
  -9825633.24549  -7641407.12246  21056074.756    21056074.887    21056088.843
       225.000         178.000
 -17255332.89449 -12728656.18446  19903605.910    19903606.964    19903621.442
       229.000         184.000
   -953622.63649   -715894.77346  20734871.875    20734871.897    20734886.996
       228.000         178.000
  -6516582.78049  -5069914.78447  19420426.587    19420426.342    19420436.430
       239.000         203.000
 -22089124.51449 -17193923.40147  18126182.107    18126181.983    18126192.428
       233.000         205.000
   5313136.24449   4148852.56146  20864508.622    20864507.946    20864523.502
       222.000         171.000
  -2012629.84749  -1194223.79045  22449173.725    22449173.736    22449200.461
       210.000         139.000
                  -4638489.61353  22674824.933
       182.000          93.000
 01 12 19 22 32 29.9920000  0  9G 2G26G 4G 9G28G 7G 8G24G11
   1928984.26349   1504890.96945  21611561.664    21611560.976    21611577.996
       219.000         160.000
  -9805204.22149  -7625488.48946  21059962.341    21059962.470    21059976.481
       227.000         179.000
 -17387951.44049 -12831995.05746  19878369.195    19878370.323    19878384.740
       228.000         183.000
  -1082653.21749   -816437.85646  20710318.082    20710318.125    20710333.218
       231.000         181.000
  -6511888.01749  -5066256.56547  19421319.964    19421319.764    19421329.866
       240.000         202.000
 -22105331.46849 -17206552.20347  18123098.116    18123097.925    18123108.347
       233.000         205.000
   5381848.81249   4202394.66646  20877584.346    20877583.655    20877599.250
       223.000         172.000
  -2160384.12149  -1309356.21545  22421056.646    22421056.805    22421083.473
       210.000         141.000
                  -4604181.37753  22683203.231
       173.000          90.000
 01 12 19 22 32 59.9920000  0  9G 2G26G 4G 9G28G 7G 8G24G11
   1953041.20349   1523636.51145  21616139.678    21616138.965    21616156.033
       215.000         162.000
  -9784427.31349  -7609298.77846  21063916.116    21063916.274    21063930.389
       226.000         181.000
 -17520270.21549 -12935100.34646  19853189.537    19853190.718    19853205.066
       229.000         184.000
  -1211394.01549   -916755.13246  20685819.374    20685819.472    20685834.580
       230.000         184.000
  -6506984.29849  -5062435.52747  19422253.175    19422252.946    19422263.064
       239.000         202.000
 -22121196.63049 -17218914.66847  18120079.187    18120078.893    18120089.302
       234.000         205.000
   5450778.80849   4256106.21046  20890701.432    20890700.761    20890716.400
       222.000         173.000
  -2308169.16849  -1424512.53145  22392933.610    22392933.980    22392960.450
       210.000         143.000
                     29762.84253  22691642.386
       170.000          76.000
 01 12 19 22 33 29.9920000  0  9G 2G26G 4G 9G28G 7G 8G24G11
   1977267.75549   1542514.23345  21620749.905    21620749.218    21620766.346
       218.000         161.000
  -9763304.14949  -7592839.28346  21067935.795    21067935.951    21067950.078
       227.000         179.000
 -17652285.01749 -13037968.77846  19828067.754    19828068.938    19828083.232
       229.000         184.000
  -1339841.34649  -1016843.74046  20661376.518    20661376.667    20661391.804
       231.000         185.000
  -6501869.85349  -5058450.27947  19423226.473    19423226.226    19423236.397
       239.000         202.000
 -22136720.43449 -17231011.13947  18117125.164    18117124.803    18117135.216
       234.000         205.000
   5519925.02049   4309986.20046  20903859.581    20903858.992    20903874.756
       220.000         172.000
  -2455981.64449  -1539690.17345  22364805.164    22364805.794    22364832.325
       208.000         144.000
                     64617.49553  22700141.117
       174.000          76.000
 01 12 19 22 33 59.9920000  0  9G 2G26G 4G 9G28G 7G 8G24G11
   2001650.16649   1561513.40045  21625389.945    21625389.174    21625406.308
       217.000         162.000
  -9741851.31549  -7576122.88246  21072018.235    21072018.416    21072032.424
       226.000         178.000
 -17784006.47149 -13140608.64046  19803001.846    19803003.010    19803017.214
       230.000         185.000
  -1468006.59549  -1116712.53546  20636987.343    20636987.538    20637002.680
       230.000         184.000
  -6496558.59849  -5054311.67747  19424237.135    19424236.933    19424247.161
       238.000         202.000
 -22151918.26749 -17242853.60647  18114233.130    18114232.749    18114243.164
       234.000         205.000
   5589271.73849   4364022.45846  20917055.989    20917055.354    20917071.163
       220.000         170.000
  -2603832.29749  -1654897.53045  22336669.538    22336670.329    22336696.761
       210.000         145.000
                     99705.95053  22708697.197
       170.000          80.000
 01 12 19 22 34 29.9920000  0  9G 2G26G 4G 9G28G 7G 8G24G11
   2026222.60849   1580660.64046  21630065.983    21630065.261    21630082.434
       217.000         163.000
  -9720037.47949  -7559125.19746  21076169.275    21076169.514    21076183.575
       225.000         177.000
 -17915397.40849 -13242990.98246  19777998.903    19777999.961    19778014.078
       232.000         186.000
  -1595853.19849  -1216333.03646  20612658.740    20612659.033    20612674.175
       230.000         183.000
  -6491016.21649  -5049992.97547  19425291.886    19425291.639    19425301.898
       239.000         201.000
 -22166757.46349 -17254416.60847  18111409.326    18111408.937    18111419.385
       233.000         205.000
   5658850.75649   4418239.71646  20930296.478    20930295.919    20930311.770
       217.000         166.000
  -2751684.47549  -1770106.03445  22308533.451    22308534.497    22308560.877
       202.000         142.000
                     26872.00153  22717317.112
       179.000          74.000
 01 12 19 22 34 59.9920000  0  8G 2G26G 4G 9G28G 7G 8G24
   2050948.01849   1599927.07945  21634771.124    21634770.439    21634787.637
       217.000         162.000
  -9697902.65849  -7541877.36546  21080381.498    21080381.725    21080395.832
       227.000         179.000
 -18046491.98049 -13345142.39646  19753052.307    19753053.341    19753067.361
       230.000         186.000
  -1723415.83249  -1315732.25446  20588384.221    20588384.575    20588399.698
       228.000         180.000
  -6485279.51249  -5045522.86047  19426383.548    19426383.334    19426393.594
       239.000         201.000
 -22181276.96849 -17265730.50847  18108646.360    18108645.988    18108656.440
       234.000         206.000
   5728622.59949   4472607.22046  20943573.837    20943573.151    20943589.043
       216.000         164.000
  -2899572.93449  -1885342.78745  22280390.588    22280391.751    22280417.963
       208.000         143.000
 01 12 19 22 35 29.9920000  0  8G 2G26G 4G 9G28G 7G 8G24
   2075818.45049   1619306.50646  21639503.901    21639503.184    21639520.440
       219.000         163.000
  -9675458.15049  -7524388.24446  21084652.623    21084652.842    21084667.055
       226.000         179.000
 -18177295.35749 -13447066.92946  19728161.060    19728162.114    19728176.067
       231.000         187.000
  -1850700.01949  -1414914.51646  20564162.687    20564163.071    20564178.174
       228.000         178.000
  -6479356.38149  -5040907.46647  19427510.708    19427510.494    19427520.782
       239.000         201.000
 -22195486.44749 -17276802.82947  18105942.453    18105942.017    18105952.486
       234.000         206.000
   5798576.71749   4527116.76045  20956885.651    20956885.073    20956900.978
       217.000         161.000
  -3047503.49849  -2000612.30245  22252239.682    22252240.976    22252267.132
       204.000         146.000
 01 12 19 22 35 59.9920000  0  8G 2G26G 4G 9G28G 7G 8G24
   2100826.82049   1638793.43145  21644262.989    21644262.210    21644279.525
       216.000         162.000
  -9652713.94849  -7506665.56246  21088980.805    21088980.985    21088995.285
       227.000         178.000
 -18307812.03349 -13548768.06046  19703324.429    19703325.460    19703339.330
       231.000         187.000
  -1977710.79149  -1513883.74146  20539993.215    20539993.620    20540008.650
       228.000         173.000
  -6473254.26849  -5036152.60347  19428671.954    19428671.712    19428682.028
       238.000         201.000
 -22209394.88549 -17287640.57447  18103295.641    18103295.339    18103305.812
       233.000         206.000
   5868703.69449   4581761.02045  20970230.537    20970229.924    20970245.761
       214.000         160.000
  -3195480.96949  -2115918.34945  22224079.760    22224081.183    22224107.275
       203.000         136.000
 01 12 19 22 36 29.9920000  0  8G 2G26G 4G 9G28G 7G 8G24
   2125993.03949   1658403.34546  21649051.961    21649051.268    21649068.655
       217.000         163.000
  -9629653.05949  -7488696.15646  21093369.300    21093369.425    21093383.631
       227.000         176.000
 -18438018.76849 -13650227.69446  19678546.789    19678547.781    19678561.572
       231.000         186.000
  -2104425.83549  -1612622.57146  20515879.972    20515880.442    20515895.305
       229.000         171.000
  -6466952.95149  -5031242.52047  19429871.026    19429870.822    19429881.180
       238.000         201.000
 -22222983.94749 -17298229.45747  18100709.693    18100709.412    18100719.893
       234.000         206.000
   5939021.12649   4636553.67845  20983611.640    20983610.992    20983626.810
       217.000         160.000
  -3343482.81749  -2231243.39945  22195915.265    22195916.811    22195942.695
       205.000         145.000
 01 12 19 22 36 59.9920000  0  8G 2G26G 4G 9G28G 7G 8G24
   2151307.75449   1678128.98346  21653869.269    21653868.584    21653886.001
       219.000         164.000
  -9606287.94449  -7470489.67546  21097815.399    21097815.660    21097829.909
       227.000         177.000
 -18567922.11549 -13751450.93146  19653826.935    19653827.868    19653841.549
       230.000         187.000
  -2230852.23549  -1711136.48546  20491821.593    20491822.178    20491836.863
       230.000         174.000
  -6460461.60649  -5026184.36047  19431106.317    19431106.110    19431116.480
       238.000         202.000
 -22236264.57549 -17308578.01047  18098182.510    18098182.204    18098192.691
       234.000         206.000
   6009517.34549   4691485.64545  20997026.734    20997026.059    20997041.885
       219.000         162.000
  -3491516.20049  -2346593.14245  22167744.627    22167746.452    22167772.126
       205.000         138.000
 01 12 19 22 37 29.9920000  0  8G 2G26G 4G 9G28G 7G 8G24
   2176769.82549   1697969.43946  21658714.691    21658713.962    21658731.425
       217.000         164.000
  -9582622.49949  -7452049.17046  21102319.006    21102319.177    21102333.441
       227.000         176.000
 -18697520.17749 -13852436.28746  19629165.125    19629166.036    19629179.628
       231.000         187.000
  -2356988.62449  -1809424.40646  20467818.509    20467819.082    20467833.653
       231.000         178.000
  -6453781.16149  -5020978.84047  19432377.628    19432377.391    19432387.778
       238.000         202.000
 -22249239.67049 -17318688.48347  18095713.513    18095713.137    18095723.609
       234.000         206.000
   6080189.03649   4746554.34445  21010475.242    21010474.592    21010490.444
       216.000         162.000
  -3639579.38449  -2461965.96345  22139568.432    22139570.284    22139595.815
       211.000         149.000
 01 12 19 22 37 59.9910000  0  8G 2G26G 4G 9G28G 7G 8G24
   2202396.99249   1717938.52946  21663591.434    21663590.761    21663608.261
       219.000         164.000
  -9558641.89449  -7433363.08646  21106882.515    21106882.617    21106896.900
       226.000         177.000
 -18826787.29949 -13953163.76646  19604566.271    19604567.194    19604580.716
       231.000         187.000
  -2482809.76849  -1907466.67146  20443875.389    20443875.984    20443890.477
       229.000         182.000
  -6446893.33549  -5015611.72947  19433688.373    19433688.136    19433698.541
       239.000         201.000
 -22261891.88249 -17328547.36947  18093305.877    18093305.498    18093315.997
       234.000         206.000
   6151049.97149   4801770.48946  21023959.719    21023959.105    21023974.955
       218.000         164.000
  -3787646.45249  -2577342.09245  22111391.495    22111393.432    22111418.721
       211.000         145.000
 01 12 19 22 38 29.9910000  0  8G 2G26G 4G 9G28G 7G 8G24
   2228185.99849   1738033.71946  21668499.011    21668498.351    21668515.922
       216.000         163.000
  -9534352.79349  -7414436.61846  21111504.443    21111504.668    21111519.052
       223.000         174.000
 -18955733.99249 -14053641.58446  19580028.415    19580029.316    19580042.766
       230.000         187.000
  -2608326.85049  -2005271.98646  20419990.106    20419990.738    20420005.183
       228.000         181.000
  -6439802.51749  -5010086.43447  19435037.758    19435037.519    19435047.922
       238.000         202.000
 -22274228.71849 -17338160.50347  18090958.187    18090957.879    18090968.376
       234.000         207.000
   6222097.48749   4857132.01346  21037479.687    21037479.145    21037495.041
       217.000         164.000
  -3935729.97649  -2692730.89345  22083211.413    22083213.459    22083238.473
       205.000         139.000
 01 12 19 22 38 59.9910000  0  8G 2G26G 4G 9G28G 7G 8G24
   2254124.15149   1758245.14145  21673434.988    21673434.301    21673451.895
       216.000         161.000
  -9509770.67049  -7395281.82246  21116182.362    21116182.567    21116196.944
       227.000         176.000
 -19084364.93249 -14153873.35447  19555550.569    19555551.502    19555564.921
       231.000         188.000
  -2733545.14149  -2102844.47646  20396161.767    20396162.329    20396176.770
       225.000         181.000
  -6432520.67349  -5004412.29247  19436423.391    19436423.220    19436433.653
       238.000         202.000
 -22286263.25049 -17347538.07747  18088668.103    18088667.778    18088678.288
       234.000         207.000
   6293314.89049   4912625.91846  21051032.217    21051031.505    21051047.478
       217.000         164.000
  -4083833.91749  -2808135.88145  22055027.543    22055029.646    22055054.257
       208.000         154.000
 01 12 19 22 39 29.9910000  0  8G 2G26G 4G 9G28G 7G 8G24
   2280222.08349   1778581.06745  21678401.397    21678400.691    21678418.303
       219.000         162.000
  -9484888.00549  -7375892.82546  21120917.375    21120917.639    21120931.948
       226.000         175.000
 -19212666.61249 -14253848.59047  19531135.468    19531136.364    19531149.730
       231.000         188.000
  -2858451.58149  -2200173.95246  20372392.700    20372393.255    20372407.750
       227.000         181.000
  -6425037.11849  -4998580.98147  19437847.571    19437847.332    19437857.765
       239.000         202.000
 -22297986.61749 -17356673.18647  18086437.255    18086436.919    18086447.406
       235.000         207.000
   6364710.58649   4968258.74146  21064618.466    21064617.732    21064633.801
       217.000         164.000
  -4231945.61249  -2923546.84045  22026842.210    22026844.235    22026868.425
       213.000         138.000
 01 12 19 22 39 59.9910000  0  8G 2G26G 4G 9G28G 7G 8G24
   2306474.60749   1799037.46745  21683397.090    21683396.474    21683414.118
       216.000         158.000
  -9459712.94749  -7356276.00346  21125708.059    21125708.329    21125722.774
       226.000         178.000
 -19340641.39349 -14353569.07847  19506782.601    19506783.466    19506796.766
       231.000         189.000
  -2983049.00649  -2297262.64246  20348682.449    20348683.011    20348697.503
       228.000         183.000
  -6417356.89849  -4992596.42047  19439309.126    19439308.874    19439319.312
       238.000         201.000
 -22309405.54549 -17365571.06647  18084264.362    18084263.998    18084274.459
       234.000         207.000
   6436277.02849   5024024.62845  21078237.313    21078236.486    21078252.642
       215.000         162.000
  -4380067.61149  -3038965.81545  21998654.681    21998656.929    21998680.941
       214.000         149.000
 01 12 19 22 40 29.9910000  0  8G 2G26G 4G 9G28G 7G 8G24
   2332891.92449   1819622.27745  21688424.255    21688423.631    21688441.266
       215.000         159.000
  -9434238.33849  -7336425.74746  21130555.742    21130556.038    21130570.639
       225.000         177.000
 -19468276.12349 -14453024.59847  19482494.444    19482495.285    19482508.546
       232.000         189.000
  -3107324.79549  -2394100.74146  20325033.414    20325033.963    20325048.473
       232.000         184.000
  -6409469.67349  -4986450.55547  19440809.947    19440809.774    19440820.230
       238.000         201.000
 -22320511.69849 -17374225.21947  18082150.911    18082150.590    18082161.030
       236.000         207.000
   6508022.10949   5079929.70646  21091890.091    21091889.246    21091905.468
       216.000         164.000
  -4528187.02549  -3154383.02345  21970467.784    21970470.096    21970493.863
       207.000         151.000
 01 12 19 22 40 59.9910000  0  8G 2G26G 4G 9G28G 7G 8G24
   2359483.81549   1840343.12245  21693484.636    21693483.992    21693501.671
       216.000         159.000
  -9408457.50549  -7316336.87746  21135461.833    21135462.070    21135476.682
       227.000         180.000
 -19595558.09049 -14552205.24047  19458273.393    19458274.212    19458287.430
       232.000         189.000
  -3231267.05949  -2490678.95346  20301447.842    20301448.403    20301462.899
       231.000         182.000
  -6401365.60549  -4980135.73047  19442352.165    19442351.961    19442362.400
       238.000         201.000
 -22331297.13349 -17382629.45447  18080098.542    18080098.190    18080108.621
       235.000         207.000
   6579953.04949   5135979.61145  21105578.183    21105577.358    21105593.611
       216.000         161.000
  -4676291.72449  -3269788.60645  21942283.868    21942286.113    21942309.778
       203.000         137.000
 01 12 19 22 41 29.9910000  0  8G 2G26G 4G 9G28G 7G 8G24
   2386232.88849   1861186.43545  21698574.918    21698574.266    21698591.943
       215.000         159.000
  -9382390.67649  -7296025.16146  21140422.420    21140422.557    21140437.200
       229.000         180.000
 -19722501.72049 -14651122.24047  19434116.714    19434117.525    19434130.722
       232.000         190.000
  -3354890.68849  -2587008.85346  20277922.879    20277923.459    20277937.923
       227.000         181.000
  -6393061.96649  -4973665.39947  19443932.290    19443932.133    19443942.560
       239.000         201.000
 -22341780.51549 -17390798.32647  18078103.489    18078103.259    18078113.703
       234.000         207.000
   6652050.28249   5192159.09845  21119297.878    21119297.079    21119313.420
       215.000         162.000
  -4824396.54249  -3385194.38845  21914099.888    21914101.984    21914125.648
       210.000         153.000
 01 12 19 22 41 59.9910000  0  8G 2G26G 4G 9G28G 7G 8G24
   2413150.88449   1882161.37945  21703697.318    21703696.636    21703714.369
       216.000         157.000
  -9356029.40049  -7275484.00746  21145438.937    21145439.029    21145453.697
       225.000         177.000
 -19849092.48049 -14749764.26947  19410027.215    19410027.998    19410041.155
       234.000         191.000
  -3478181.81049  -2683079.63946  20254461.176    20254461.765    20254476.217
       229.000         183.000
  -6384546.81749  -4967030.25947  19445552.777    19445552.546    19445562.962
       238.000         200.000
 -22351952.18649 -17398724.30847  18076167.851    18076167.651    18076178.116
       235.000         207.000
   6724323.16549   5248475.43145  21133051.151    21133050.285    21133066.672
       215.000         159.000
  -4972487.18749  -3500589.22445  21885918.448    21885920.598    21885944.054
       210.000         149.000
 01 12 19 22 42 29.9910000  0  8G 2G26G 4G 9G28G 7G 8G24
   2440224.57549   1903257.61845  21708849.288    21708848.666    21708866.525
       215.000         155.000
  -9329389.63249  -7254725.85446  21150508.256    21150508.440    21150523.126
       227.000         178.000
 -19975340.60049 -14848139.30347  19386002.997    19386003.693    19386016.809
       233.000         191.000
  -3601150.78449  -2778899.41846  20231060.808    20231061.380    20231075.839
       233.000         187.000
  -6375833.22449  -4960240.48847  19447210.898    19447210.721    19447221.146
       238.000         200.000
 -22361826.78349 -17406418.79747  18074288.816    18074288.567    18074299.048
       235.000         207.000
   6796756.31949   5304916.67445  21146834.836    21146833.974    21146850.386
       214.000         157.000
  -5120574.38849  -3615981.24345  21857737.928    21857739.989    21857763.370
       210.000         144.000
 01 12 19 22 42 59.9910000  0  8G 2G26G 4G 9G28G 7G 8G24
   2467444.09449   1924467.54745  21714028.981    21714028.485    21714046.246
       211.000         154.000
  -9302484.35949  -7233760.81246  21155628.270    21155628.416    21155643.111
       226.000         177.000
 -20101253.11849 -14946252.82147  19362042.538    19362043.238    19362056.339
       231.000         191.000
  -3723805.12449  -2874474.05246  20207720.277    20207720.891    20207735.310
       232.000         185.000
  -6366930.86149  -4953303.62747  19448905.018    19448904.823    19448915.238
       238.000         200.000
 -22371415.86849 -17413890.81047  18072464.114    18072463.842    18072474.313
       235.000         207.000
   6869337.36049   5361473.13645  21160646.522    21160645.782    21160662.271
       213.000         155.000
  -5268665.02749  -3731376.09945  21829556.516    21829558.736    21829581.964
       209.000         148.000
 01 12 19 22 43 29.9910000  0  8G 2G26G 4G 9G28G 7G 8G24
   2494813.85349   1945794.52745  21719237.272    21719236.846    21719254.619
       215.000         157.000
  -9275312.27049  -7212587.86046  21160799.086    21160799.167    21160813.893
       225.000         175.000
 -20226822.86749 -15044099.23347  19338147.218    19338147.989    19338161.078
       232.000         191.000
  -3846138.34449  -2969798.45846  20184440.919    20184441.511    20184455.874
       230.000         182.000
  -6357835.38749  -4946216.29047  19450635.912    19450635.675    19450646.092
       238.000         200.000
 -22380716.82249 -17421138.28947  18070694.229    18070693.946    18070704.400
       235.000         207.000
   6942068.22049   5418146.37845  21174486.781    21174486.154    21174502.597
       213.000         156.000
  -5416752.66549  -3846768.59845  21801376.052    21801378.118    21801401.159
       207.000         147.000
 01 12 19 22 43 59.9910000  0  8G 2G26G 4G 9G28G 7G 8G24
   2522360.19449   1967259.11545  21724479.335    21724478.841    21724496.693
       215.000         159.000
  -9247849.93449  -7191188.72546  21166024.959    21166025.093    21166039.884
       224.000         177.000
 -20352020.31849 -15141655.55247  19314322.779    19314323.581    19314336.661
       232.000         191.000
  -3968121.41449  -3064850.01546  20161228.158    20161228.766    20161243.062
       233.000         186.000
  -6348520.34549  -4938957.86147  19452408.555    19452408.299    19452418.705
       238.000         200.000
 -22389704.83849 -17428141.92347  18068983.881    18068983.572    18068994.003
       236.000         207.000
   7014973.23949   5474955.29845  21188360.435    21188359.632    21188376.135
       214.000         157.000
  -5564807.80949  -3962135.75245  21773201.747    21773203.648    21773226.561
       208.000         147.000
 01 12 19 22 44 29.9910000  0  8G 2G26G 4G 9G28G 7G 8G24
   2550086.96349   1988864.28145  21729755.701    21729755.151    21729773.107
       214.000         158.000
  -9220096.64849  -7169562.90246  21171306.309    21171306.467    21171321.258
       225.000         176.000
 -20476839.00549 -15238916.72447  19290570.412    19290571.262    19290584.303
       232.000         190.000
  -4089748.20649  -3159623.93946  20138083.252    20138083.844    20138098.050
       232.000         187.000
  -6338981.64749  -4931525.16447  19454223.685    19454223.484    19454233.872
       238.000         199.000
 -22398377.94049 -17434900.16947  18067333.497    18067333.152    18067343.556
       236.000         207.000
   7088053.46149   5531900.77245  21202267.136    21202266.467    21202283.009
       213.000         156.000
  -5712824.28749  -4077472.74545  21745034.729    21745036.613    21745059.417
       214.000         155.000
 01 12 19 22 44 59.9910000  0  8G 2G26G 4G 9G28G 7G 8G24
   2577972.98949   2010593.53945  21735062.370    21735061.728    21735079.797
       215.000         157.000
  -9192076.46949  -7147729.12146  21176638.535    21176638.624    21176653.378
       225.000         175.000
 -20601296.99649 -15335896.83047  19266886.781    19266887.574    19266900.596
       232.000         190.000
  -4211037.62149  -3254134.96346  20115002.519    20115003.104    20115017.244
       233.000         185.000
  -6329240.22449  -4923934.49347  19456077.403    19456077.226    19456087.626
       238.000         198.000
 -22406758.80449 -17441430.70347  18065738.707    18065738.318    18065748.705
       236.000         207.000
   7161285.87049   5588964.80345  21216202.875    21216202.248    21216218.869
       213.000         157.000
  -5860820.43949  -4192793.92345  21716871.662    21716873.429    21716896.099
       216.000         154.000
 01 12 19 22 45 29.9910000  0  8G 2G26G 4G 9G28G 7G 8G24
   2606033.19849   2032458.54745  21740402.137    21740401.494    21740419.627
       211.000         158.000
  -9163777.68849  -7125678.24546  21182023.629    21182023.766    21182038.473
       221.000         174.000
 -20725376.65349 -15432582.12347  19243275.109    19243275.893    19243288.874
       233.000         191.000
  -4331972.60249  -3348369.84246  20091989.242    20091989.795    20092003.816
       233.000         182.000
  -6319281.24649  -4916174.30547  19457972.582    19457972.398    19457982.793
       238.000         198.000
 -22414834.24249 -17447723.23547  18064201.934    18064201.600    18064211.995
       237.000         207.000
   7234682.62549   5646156.90945  21230169.958    21230169.284    21230185.975
       212.000         155.000
  -6008778.99149  -4308085.79345  21688715.754    21688717.398    21688740.027
       216.000         152.000
 01 12 19 22 45 59.9910000  0  8G 2G26G 4G 9G28G 7G 8G24
   2634240.75249   2054438.38245  21745769.901    21745769.362    21745787.455
       216.000         158.000
  -9135230.14849  -7103433.51646  21187456.009    21187456.201    21187471.067
       223.000         176.000
 -20849102.04449 -15528991.36647  19219730.949    19219731.637    19219744.586
       232.000         191.000
  -4452577.41249  -3442347.45646  20069038.810    20069039.357    20069053.277
       233.000         183.000
  -6309131.10249  -4908265.15347  19459904.139    19459903.936    19459914.323
       238.000         198.000
 -22422632.72749 -17453799.96647  18062717.942    18062717.598    18062727.985
       236.000         207.000
   7308214.69949   5703454.43445  21244162.805    21244162.089    21244178.899
       214.000         158.000
  -6156724.10449  -4423367.23745  21660562.363    21660563.965    21660586.381
       212.000         149.000
 01 12 19 22 46 29.9910000  0  8G 2G26G 4G 9G28G 7G 8G24
   2662614.74049   2076547.89845  21751169.377    21751168.875    21751186.996
       217.000         158.000
  -9106417.81949  -7080982.46546  21192938.859    21192939.055    21192954.069
       222.000         175.000
 -20972451.13549 -15625107.38047  19196258.288    19196258.975    19196271.896
       232.000         191.000
  -4572830.60449  -3536051.08046  20046155.344    20046155.845    20046169.666
       232.000         187.000
  -6298770.85149  -4900192.27947  19461875.651    19461875.458    19461885.862
       237.000         198.000
 -22430136.97849 -17459647.42647  18061290.015    18061289.610    18061299.967
       236.000         207.000
   7381898.76249   5760870.40045  21258184.456    21258183.836    21258200.718
       212.000         157.000
  -6304634.17849  -4538621.28545  21632415.574    21632417.219    21632439.421
       211.000         142.000
 01 12 19 22 46 59.9910000  0  8G 2G26G 4G 9G28G 7G 8G24
   2691164.90349   2098794.72345  21756602.451    21756601.860    21756619.994
       214.000         157.000
  -9077333.81749  -7058319.75946  21198473.661    21198473.700    21198488.696
       223.000         175.000
 -21095411.15849 -15720920.22847  19172859.634    19172860.351    19172873.239
       233.000         191.000
  -4692719.56449  -3629470.85046  20023341.045    20023341.591    20023355.453
       229.000         185.000
  -6288190.22749  -4891947.69847  19463889.104    19463888.906    19463899.332
       238.000         197.000
 -22437338.52649 -17465259.01947  18059919.530    18059919.171    18059929.540
       236.000         207.000
   7455742.43949   5818410.76945  21272236.478    21272235.907    21272252.880
       211.000         158.000
  -6452496.46549  -4653838.13145  21604278.036    21604279.577    21604301.504
       206.000         146.000
 01 12 19 22 47 29.9910000  0  8G 2G26G 4G 9G28G 7G 8G24
   2719881.61249   2121171.26745  21762067.037    21762066.508    21762084.763
       213.000         160.000
  -9047990.89449  -7035455.26346  21204057.491    21204057.540    21204072.526
       224.000         175.000
 -21217989.10049 -15816435.32947  19149533.716    19149534.437    19149547.275
       233.000         192.000
  -4812251.89149  -3722612.73346  20000594.538    20000595.163    20000609.039
       230.000         183.000
  -6277398.88049  -4883538.90947  19465942.731    19465942.486    19465952.899
       237.000         197.000
 -22444248.72349 -17470643.58047  18058604.462    18058604.215    18058614.568
       237.000         208.000
   7529733.73649   5876066.11945  21286316.800    21286316.064    21286333.155
       215.000         161.000
  -6600317.82449  -4769023.04345  21576148.066    21576149.633    21576171.480
       207.000         151.000
 01 12 19 22 47 59.9910000  0  8G 2G26G 4G 9G28G 7G 8G24
   2748752.41449   2143667.91145  21767561.089    21767560.502    21767578.815
       212.000         160.000
  -9018404.30249  -7012400.91046  21209687.871    21209687.870    21209702.789
       222.000         175.000
 -21340194.09849 -15911659.82947  19126278.707    19126279.499    19126292.285
       234.000         192.000
  -4931437.45349  -3815484.48046  19977914.201    19977914.804    19977928.582
       234.000         187.000
  -6266408.97149  -4874975.39647  19468034.065    19468033.823    19468044.225
       237.000         197.000
 -22450881.61849 -17475812.06947  18057342.315    18057342.012    18057352.366
       236.000         208.000
   7603857.97649   5933825.10545  21300422.379    21300421.582    21300438.666
       216.000         159.000
  -6748108.14249  -4884183.85345  21548024.042    21548025.582    21548047.310
       206.000         149.000
 01 12 19 22 48 29.9910000  0  8G 2G26G 4G 9G28G 7G 8G24
   2777792.05649   2166296.13545  21773087.241    21773086.653    21773104.960
       217.000         161.000
  -8988562.53449  -6989147.71646  21215366.673    21215366.678    21215381.611
       223.000         175.000
 -21462008.96049 -16006580.31547  19103098.056    19103098.794    19103111.529
       234.000         193.000
  -5050259.36049  -3908072.81946  19955303.016    19955303.607    19955317.363
       229.000         186.000
  -6255205.64749  -4866245.58147  19470165.965    19470165.773    19470176.150
       236.000         197.000
 -22457224.36849 -17480754.47647  18056135.315    18056135.034    18056145.383
       237.000         208.000
   7678127.40649   5991697.20245  21314555.584    21314554.739    21314571.879
       212.000         157.000
  -6895850.67849  -4999307.30645  21519909.181    21519910.655    21519932.402
       210.000         149.000
 01 12 19 22 48 59.9910000  0  8G 2G26G 4G 9G28G 7G 8G24
   2807009.01249   2189062.51345  21778647.110    21778646.519    21778664.837
       214.000         160.000
  -8958460.12549  -6965691.43446  21221095.071    21221095.070    21221110.077
       224.000         178.000
 -21583422.29749 -16101187.92647  19079993.805    19079994.494    19080007.184
       233.000         193.000
  -5168706.72349  -4000369.27746  19932763.031    19932763.655    19932777.413
       230.000         187.000
  -6243780.20049  -4857342.69347  19472340.237    19472340.007    19472350.395
       236.000         196.000
 -22463269.92749 -17485465.30747  18054984.908    18054984.613    18054994.957
       237.000         208.000
   7752548.18649   6049687.24545  21328717.468    21328716.719    21328733.829
       212.000         154.000
  -7043534.06849  -5114384.68745  21491805.538    21491807.110    21491828.674
       209.000         149.000
 01 12 19 22 49 29.9910000  0  8G 2G26G 4G 9G28G 7G 8G24
   2836397.14649   2211962.30545  21784239.498    21784238.998    21784257.239
       215.000         155.000
  -8928105.97349  -6942038.98246  21226871.312    21226871.371    21226886.492
       222.000         177.000
 -21704437.17849 -16195485.04447  19056965.260    19056966.006    19056978.661
       234.000         193.000
  -5286782.79349  -4092376.46247  19910293.833    19910294.405    19910308.103
       232.000         188.000
  -6232138.54149  -4848271.32247  19474555.548    19474555.364    19474565.781
       236.000         196.000
 -22469025.90149 -17489950.48547  18053889.687    18053889.304    18053899.626
       238.000         208.000
   7827112.07849   6107788.78745  21342906.739    21342905.915    21342923.075
       211.000         154.000
  -7191160.93349  -5229418.06445  21463712.866    21463714.272    21463735.664
       213.000         156.000
 01 12 19 22 49 59.9910000  0  8G 2G26G 4G 9G28G 7G 8G24
   2865946.22449   2234987.49045  21789862.533    21789862.075    21789880.365
       213.000         156.000
  -8897513.65449  -6918200.97846  21232692.805    21232692.943    21232708.134
       221.000         173.000
 -21825061.24849 -16289477.62647  19034011.093    19034011.878    19034024.498
       234.000         194.000
  -5404495.80849  -4184100.75046  19887893.622    19887894.227    19887907.869
       230.000         185.000
  -6220290.70149  -4839039.29047  19476810.076    19476809.953    19476820.417
       236.000         197.000
 -22474504.28049 -17494219.35847  18052847.232    18052846.808    18052857.116
       237.000         208.000
   7901806.55449   6165992.08845  21357120.650    21357119.958    21357137.120
       206.000         151.000
  -7338739.43949  -5344413.77345  21435629.346    21435630.680    21435651.852
       212.000         158.000
 01 12 19 22 50 29.9910000  0  8G 2G26G 4G 9G28G 7G 8G24
   2895676.46449   2258153.84945  21795519.880    21795519.577    21795537.916
       212.000         153.000
  -8866665.61249  -6894163.69246  21238563.056    21238563.155    21238578.354
       221.000         170.000
 -21945271.21749 -16383147.54347  19011135.793    19011136.566    19011149.120
       235.000         195.000
  -5521822.84949  -4275524.25847  19865566.726    19865567.416    19865581.136
       231.000         189.000
  -6208216.36449  -4829630.77947  19479107.851    19479107.666    19479118.164
       235.000         196.000
 -22479686.30449 -17498257.31247  18051861.115    18051860.706    18051870.997
       238.000         208.000
   7976649.52249   6224311.06645  21371362.818    21371362.210    21371379.410
       209.000         152.000
  -7486246.26649  -5459353.65645  21407559.532    21407560.669    21407581.617
       217.000         158.000
 01 12 19 22 50 59.9910000  0  8G 2G26G 4G 9G28G 7G 8G24
   2925574.94049   2281451.27845  21801209.523    21801209.178    21801227.521
       209.000         154.000
  -8835577.83149  -6869939.59146  21244479.007    21244479.089    21244494.256
       224.000         174.000
 -22065077.17849 -16476502.63947  18988337.345    18988338.135    18988350.640
       235.000         195.000
  -5638774.50549  -4366655.26347  19843311.330    19843312.076    19843325.880
       232.000         190.000
  -6195928.16149  -4820055.60747  19481446.192    19481446.039    19481456.615
       235.000         196.000
 -22484586.63349 -17502075.76547  18050928.588    18050928.216    18050938.502
       237.000         208.000
   8051625.69549   6282733.89445  21385630.403    21385629.860    21385647.029
       209.000         152.000
  -7633691.83149  -5574245.73145  21379501.132    21379502.359    21379523.225
       214.000         155.000
 01 12 19 22 51 29.9910000  0  8G 2G26G 4G 9G28G 7G 8G24
   2955619.54349   2304862.57945  21806926.928    21806926.516    21806944.932
       212.000         154.000
  -8804275.61449  -6845548.39846  21250435.751    21250435.835    21250451.006
       221.000         171.000
 -22184498.64249 -16569558.13747  18965612.071    18965612.857    18965625.319
       235.000         196.000
  -5755370.64449  -4457509.25047  19821123.710    19821124.427    19821138.254
       233.000         188.000
  -6183448.20649  -4810331.01947  19483821.136    19483820.948    19483831.555
       236.000         196.000
 -22489228.88849 -17505693.12047  18050045.141    18050044.818    18050055.118
       237.000         208.000
   8126710.62249   6341241.43745  21399918.749    21399918.196    21399935.447
       208.000         152.000
  -7781095.92649  -5689105.58645  21351450.665    21351451.887    21351472.609
       214.000         156.000
 01 12 19 22 51 59.9910000  0  8G 2G26G 4G 9G28G 7G 8G24
   2985806.43949   2328384.77045  21812671.362    21812670.898    21812689.349
       212.000         155.000
  -8772765.75149  -6820995.40646  21256431.928    21256432.000    21256447.203
       224.000         173.000
 -22303536.27449 -16662314.53647  18942959.825    18942960.607    18942973.035
       235.000         196.000
  -5871612.46449  -4548087.15247  19799003.536    19799004.234    19799018.027
       232.000         190.000
  -6170779.77049  -4800459.57247  19486231.900    19486231.701    19486242.340
       236.000         196.000
 -22493618.47749 -17509113.59647  18049209.838    18049209.493    18049219.791
       237.000         207.000
   8201898.32749   6399829.04845  21414226.760    21414226.080    21414243.400
       209.000         151.000
  -7928459.30849  -5803933.71345  21323407.940    21323409.176    21323429.695
       216.000         157.000
